[[{"header":{"parameterUnit":"m.s-1","parameterCategory":1,"la1":31.0,"la2":29.5877,"lo1":-88.7671,"lo2":-86.6584,"dy":0.0162,"dx":0.0185,"nx":115,"ny":88,"refTime":"2023-09-04T06:00:00:Z","depth":0,"parameterNumber":2,"parameterNumberName":"U-component_of_WINDS"},"data":[0.0,0.0,0.0,0.0,0.0,0.0,0.0,0.0,0.0,0.0,0.0,0.0,0.0,0.0,0.0,0.0,0.0,0.0,0.0,0.0,0.0,0.0,0.0,0.0,0.0,0.0,0.0,0.0,0.0,0.0,0.0,0.0,0.0,0.0,0.0,0.0,0.0,0.0,0.0,0.0,0.0,0.0,0.0,0.0,0.0,0.0,0.0,0.0,0.0,0.0,0.0,0.0,0.0,0.0,0.0,0.0,0.0,0.0,0.0,0.0,0.0,0.0,0.0,0.0,0.0,0.0,0.0,0.0,0.0,0.0,0.0,0.0,0.0,0.0,0.0,0.0,0.0,0.0,0.0,0.0,0.0,0.0,0.0,0.0,0.0,0.0,0.0,0.0,0.0,0.0,0.0,0.0,0.0,0.0,0.0,0.0,0.0,0.0,0.0,0.0,0.0,0.0,0.0,0.0,0.0,0.0,0.0,0.0,0.0,0.0,0.0,0.0,0.0,0.0,0.0,0.0,0.0,0.0,0.0,0.0,0.0,0.0,0.0,0.0,0.0,0.0,0.0,0.0,0.0,0.0,0.0,0.0,0.0,0.0,0.0,0.0,0.0,0.0,0.0,0.0,0.0,0.0,0.0,0.0,0.0,0.0,0.0,0.0,0.0,0.0,0.0,0.0,0.0,0.0,0.0,0.0,0.0,0.0,0.0,0.0,0.0,0.0,0.0,0.0,0.0,0.0,0.0,0.0,0.0,0.0,0.0,0.0,0.0,0.0,0.0,0.0,0.0,0.0,0.0,0.0,0.0,0.0,0.0,0.0,0.0,0.0,0.0,0.0,0.0,0.0,0.0,0.0,0.0,0.0,0.0,0.0,0.0,0.0,0.0,0.0,0.0,0.0,0.0,0.0,0.0,0.0,0.0,0.0,0.0,0.0,0.0,0.0,0.0,0.0,0.0,0.0,0.0,0.0,0.0,0.0,0.0,0.0,0.0,0.0,0.0,0.0,0.0,0.0,0.0,0.0,0.0,0.0,0.0,0.0,0.0,0.0,0.0,0.0,0.0,0.0,0.0,0.0,0.0,0.0,0.0,0.0,0.0,0.0,0.0,0.0,0.0,0.0,0.0,0.0,0.0,0.0,0.0,0.0,0.0,0.0,0.0,0.0,0.0,0.0,0.0,0.0,0.0,0.0,0.0,0.0,0.0,0.0,0.0,0.0,0.0,0.0,0.0,0.0,0.0,0.0,0.0,0.0,0.0,0.0,0.0,0.0,0.0,0.0,0.0,0.0,0.0,0.0,0.0,0.0,0.0,0.0,0.0,0.0,0.0,0.0,0.0,0.0,0.0,0.0,0.0,0.0,0.0,0.0,0.0,0.0,0.0,0.0,0.0,0.0,0.0,0.0,0.0,0.0,0.0,0.0,0.0,0.0,0.0,0.0,0.0,0.0,0.0,0.0,0.0,0.0,0.0,0.0,0.0,0.0,0.0,0.0,0.0,0.0,0.0,0.0,0.0,0.0,0.0,0.0,0.0,0.0,0.0,0.0,0.0,0.0,0.0,0.0,0.0,0.0,0.0,0.0,0.0,0.0,0.0,0.0,0.0,0.0,0.0,0.0,0.0,0.0,0.0,0.0,0.0,0.0,0.0,0.0,0.0,0.0,0.0,0.0,0.0,0.0,0.0,0.0,0.0,0.0,0.0,0.0,0.0,0.0,0.0,0.0,0.0,0.0,0.0,0.0,0.0,0.0,0.0,0.0,0.0,0.0,0.0,0.0,0.0,0.0,0.0,0.0,0.0,0.0,0.0,0.0,0.0,0.0,0.0,0.0,0.0,0.0,0.0,0.0,0.0,0.0,0.0,0.0,0.0,0.0,0.0,0.0,0.0,0.0,0.0,0.0,0.0,0.0,0.0,0.0,0.0,0.0,0.0,0.0,0.0,0.0,0.0,0.0,0.0,0.0,0.0,0.0,0.0,0.0,0.0,0.0,0.0,0.0,0.0,0.0,0.0,0.0,0.0,0.0,0.0,0.0,0.0,0.0,0.0,0.0,0.0,0.0,0.0,0.0,0.0,0.0,0.0,0.0,0.0,0.0,0.0,0.0,0.0,0.0,0.0,0.0,0.0,0.0,0.0,0.0,0.0,0.0,0.0,0.0,0.0,0.0,0.0,0.0,0.0,0.0,0.0,0.0,0.0,0.0,0.0,0.0,0.0,0.0,0.0,0.0,0.0,0.0,0.0,0.0,0.0,0.0,0.0,0.0,0.0,0.0,0.0,0.0,0.0,0.0,0.0,0.0,0.0,0.0,0.0,0.0,0.0,0.0,0.0,0.0,0.0,0.0,0.0,0.0,0.0,0.0,0.0,0.0,0.0,0.0,0.0,0.0,0.0,0.0,0.0,0.0,0.0,0.0,0.0,0.0,0.0,0.0,0.0,0.0,0.0,0.0,0.0,0.0,0.0,0.0,0.0,0.0,0.0,0.0,0.0,0.0,0.0,0.0,0.0,0.0,0.0,0.0,0.0,0.0,0.0,0.0,0.0,0.0,0.0,0.0,0.0,0.0,0.0,0.0,0.0,0.0,0.0,0.0,0.0,0.0,0.0,0.0,0.0,0.0,0.0,0.0,0.0,0.0,0.0,0.0,0.0,0.0,0.0,0.0,0.0,0.0,0.0,0.0,0.0,0.0,0.0,0.0,0.0,0.0,0.0,0.0,0.0,0.0,0.0,0.0,0.0,0.0,0.0,0.0,0.0,0.0,0.0,0.0,0.0,0.0,0.0,0.0,0.0,0.0,0.0,0.0,0.0,0.0,0.0,0.0,0.0,0.0,0.0,0.0,0.0,0.0,0.0,0.0,0.0,0.0,0.0,0.0,0.0,0.0,0.0,0.0,0.0,0.0,0.0,0.0,0.0,0.0,0.0,0.0,0.0,0.0,0.0,0.0,0.0,0.0,0.0,0.0,0.0,0.0,0.0,0.0,0.0,0.0,0.0,0.0,0.0,0.0,0.0,0.0,0.0,0.0,0.0,0.0,0.0,0.0,0.0,0.0,0.0,0.0,0.0,0.0,0.0,0.0,0.0,0.0,0.0,0.0,0.0,0.0,0.0,0.0,0.0,0.0,0.0,0.0,0.0,0.0,0.0,0.0,0.0,0.0,0.0,0.0,0.0,0.0,0.0,0.0,0.0,0.0,0.0,0.0,0.0,0.0,0.0,0.0,0.0,0.0,0.0,0.0,0.0,0.0,0.0,0.0,0.0,0.0,0.0,0.0,0.0,0.0,0.0,0.0,0.0,0.0,0.0,0.0,0.0,0.0,0.0,0.0,0.0,0.0,0.0,0.0,0.0,0.0,0.0,0.0,0.0,0.0,0.0,0.0,0.0,0.0,0.0,0.0,0.0,0.0,0.0,0.0,0.0,0.0,0.0,0.0,0.0,0.0,0.0,0.0,0.0,0.0,0.0,0.0,0.0,0.0,0.0,0.0,0.0,0.0,0.0,0.0,0.0,0.0,0.0,0.0,0.0,0.0,0.0,0.0,0.0,0.0,0.0,0.0,0.0,0.0,0.0,0.0,0.0,0.0,0.0,0.0,0.0,0.0,0.0,0.0,0.0,0.0,0.0,0.0,0.0,0.0,0.0,0.0,0.0,0.0,0.0,0.0,0.0,0.0,0.0,0.0,0.0,0.0,0.0,0.0,0.0,0.0,0.0,0.0,0.0,0.0,0.0,0.0,0.0,0.0,0.0,0.0,0.0,0.0,0.0,0.0,0.0,0.0,0.0,0.0,0.0,0.0,0.0,0.0,0.0,0.0,0.0,0.0,0.0,0.0,0.0,0.0,0.0,0.0,0.0,0.0,0.0,0.0,0.0,0.0,0.0,0.0,0.0,0.0,0.0,0.0,0.0,0.0,0.0,0.0,0.0,0.0,0.0,0.0,0.0,0.0,0.0,0.0,0.0,0.0,0.0,0.0,0.0,0.0,0.0,0.0,0.0,0.0,0.0,0.0,0.0,0.0,0.0,0.0,0.0,0.0,0.0,0.0,0.0,0.0,0.0,0.0,0.0,0.0,0.0,0.0,0.0,0.0,0.0,0.0,0.0,0.0,0.0,0.0,0.0,0.0,0.0,0.0,0.0,0.0,0.0,0.0,0.0,0.0,0.0,0.0,0.0,0.0,0.0,0.0,0.0,0.0,0.0,0.0,0.0,0.0,0.0,0.0,0.0,0.0,0.0,0.0,0.0,0.0,0.0,0.0,0.0,0.0,0.0,0.0,0.0,0.0,-1.0505,0.0,0.0,0.0,0.0,0.0,0.0,0.0,0.0,0.0,0.0,0.0,0.0,0.0,0.0,0.0,0.0,0.0,0.0,0.0,0.0,0.0,0.0,0.0,0.0,0.0,0.0,0.0,0.0,0.0,0.0,0.0,0.0,0.0,0.0,0.0,0.0,0.0,0.0,0.0,0.0,0.0,0.0,0.0,0.0,0.0,0.0,0.0,0.0,0.0,0.0,0.0,0.0,0.0,0.0,0.0,0.0,0.0,0.0,0.0,0.0,0.0,0.0,0.0,0.0,0.0,0.0,0.0,0.0,0.0,0.0,0.0,0.0,0.0,0.0,0.0,0.0,0.0,0.0,0.0,0.0,0.0,0.0,0.0,0.0,0.0,0.0,0.0,0.0,0.0,0.0,0.0,0.0,0.0,0.0,0.0,0.0,0.0,0.0,0.0,0.0,0.0,0.0,0.0,0.0,0.0,0.0,0.0,0.0,0.0,0.0,-1.1299,-1.0645,-1.0625,-1.0518,-1.0303,0.0,0.0,0.0,0.0,0.0,0.0,0.0,0.0,0.0,0.0,0.0,0.0,0.0,0.0,0.0,0.0,0.0,0.0,0.0,0.0,0.0,0.0,0.0,0.0,0.0,0.0,0.0,0.0,0.0,0.0,0.0,0.0,0.0,0.0,0.0,0.0,0.0,0.0,0.0,0.0,0.0,0.0,0.0,0.0,0.0,0.0,0.0,0.0,0.0,0.0,0.0,0.0,0.0,0.0,0.0,0.0,0.0,0.0,0.0,0.0,0.0,0.0,0.0,0.0,0.0,0.0,0.0,0.0,0.0,0.0,0.0,0.0,0.0,0.0,0.0,0.0,0.0,0.0,0.0,0.0,0.0,0.0,0.0,0.0,0.0,0.0,0.0,0.0,0.0,0.0,0.0,0.0,0.0,0.0,0.0,0.0,0.0,0.0,0.0,0.0,0.0,0.0,0.0,0.0,0.0,0.0,0.0,0.0,0.0,0.0,0.0,0.0,-1.1055,-1.0818,-1.034,0.0,0.0,0.0,0.0,0.0,0.0,0.0,0.0,0.0,0.0,0.0,0.0,0.0,0.0,0.0,0.0,0.0,0.0,0.0,0.0,0.0,0.0,0.0,0.0,0.0,0.0,0.0,0.0,0.0,0.0,0.0,0.0,0.0,0.0,0.0,0.0,0.0,0.0,0.0,0.0,0.0,0.0,0.0,0.0,0.0,0.0,0.0,0.0,0.0,0.0,0.0,0.0,0.0,0.0,0.0,0.0,0.0,0.0,0.0,0.0,0.0,0.0,0.0,0.0,0.0,0.0,0.0,0.0,0.0,0.0,0.0,0.0,0.0,0.0,0.0,0.0,0.0,0.0,0.0,0.0,0.0,0.0,0.0,0.0,0.0,0.0,0.0,0.0,0.0,0.0,0.0,0.0,0.0,0.0,0.0,0.0,0.0,0.0,0.0,0.0,0.0,0.0,0.0,0.0,0.0,0.0,0.0,0.0,0.0,0.0,-1.1992,-1.1567,-1.1538,0.0,-1.0359,0.0,0.0,0.0,0.0,0.0,0.0,0.0,0.0,0.0,0.0,0.0,0.0,0.0,0.0,0.0,0.0,0.0,0.0,0.0,0.0,0.0,0.0,0.0,0.0,0.0,0.0,0.0,0.0,0.0,0.0,0.0,0.0,0.0,0.0,0.0,0.0,0.0,0.0,0.0,0.0,0.0,0.0,0.0,0.0,0.0,0.0,0.0,0.0,0.0,0.0,0.0,0.0,0.0,0.0,0.0,0.0,0.0,0.0,0.0,0.0,0.0,0.0,0.0,0.0,0.0,0.0,0.0,0.0,0.0,0.0,0.0,0.0,0.0,0.0,0.0,0.0,0.0,0.0,0.0,0.0,0.0,0.0,0.0,0.0,0.0,0.0,0.0,0.0,0.0,0.0,0.0,0.0,0.0,0.0,0.0,0.0,0.0,0.0,0.0,0.0,0.0,0.0,0.0,0.0,0.0,0.0,0.0,0.0,0.0,0.0,-1.2402,-1.1963,-1.1334,-1.0795,0.0,0.0,0.0,0.0,0.0,0.0,0.0,0.0,0.0,0.0,0.0,0.0,0.0,0.0,0.0,0.0,0.0,0.0,0.0,0.0,0.0,0.0,0.0,0.0,0.0,0.0,0.0,0.0,0.0,0.0,0.0,0.0,0.0,0.0,0.0,0.0,0.0,0.0,0.0,0.0,0.0,0.0,0.0,0.0,0.0,0.0,0.0,0.0,0.0,0.0,0.0,0.0,0.0,0.0,0.0,0.0,0.0,0.0,0.0,0.0,0.0,0.0,0.0,0.0,0.0,0.0,0.0,0.0,0.0,0.0,0.0,0.0,0.0,0.0,0.0,0.0,0.0,0.0,0.0,0.0,0.0,0.0,0.0,0.0,0.0,0.0,0.0,0.0,0.0,0.0,0.0,0.0,0.0,0.0,0.0,0.0,0.0,0.0,0.0,0.0,0.0,0.0,0.0,0.0,0.0,0.0,0.0,0.0,0.0,0.0,-1.2725,-1.2368,-1.1808,-1.1122,-1.0669,-1.0463,0.0,0.0,0.0,0.0,0.0,0.0,0.0,0.0,0.0,0.0,0.0,0.0,0.0,0.0,0.0,0.0,0.0,0.0,0.0,0.0,0.0,0.0,0.0,0.0,0.0,0.0,0.0,0.0,0.0,0.0,0.0,0.0,0.0,0.0,0.0,0.0,0.0,0.0,0.0,0.0,0.0,0.0,0.0,0.0,0.0,0.0,0.0,0.0,0.0,0.0,0.0,0.0,0.0,0.0,0.0,0.0,0.0,0.0,0.0,0.0,0.0,0.0,0.0,0.0,0.0,0.0,0.0,0.0,0.0,0.0,0.0,0.0,0.0,0.0,0.0,0.0,0.0,0.0,0.0,0.0,0.0,0.0,0.0,0.0,0.0,0.0,0.0,0.0,0.0,0.0,0.0,0.0,0.0,0.0,0.0,0.0,0.0,0.0,0.0,0.0,0.0,0.0,0.0,0.0,0.0,0.0,0.0,0.0,-1.2881,-1.2187,-1.1557,-1.0931,-1.1072,-1.1054,0.0,0.0,0.0,0.0,0.0,0.0,0.0,0.0,0.0,0.0,0.0,0.0,0.0,0.0,0.0,0.0,0.0,0.0,0.0,0.0,0.0,0.0,0.0,0.0,0.0,0.0,0.0,0.0,0.0,0.0,0.0,0.0,0.0,0.0,0.0,0.0,0.0,0.0,0.0,0.0,0.0,0.0,0.0,0.0,0.0,0.0,0.0,0.0,0.0,0.0,0.0,0.0,0.0,0.0,0.0,0.0,0.0,0.0,0.0,0.0,0.0,0.0,0.0,0.0,0.0,0.0,0.0,0.0,0.0,0.0,0.0,0.0,0.0,0.0,0.0,0.0,0.0,0.0,0.0,0.0,0.0,0.0,0.0,0.0,0.0,0.0,0.0,0.0,0.0,0.0,0.0,0.0,0.0,0.0,0.0,0.0,0.0,0.0,0.0,0.0,0.0,0.0,0.0,0.0,0.0,0.0,0.0,0.0,0.0,-1.1584,-1.1325,-1.1015,-1.0813,-1.0489,-1.0449,0.0,0.0,0.0,0.0,0.0,0.0,0.0,0.0,0.0,0.0,0.0,0.0,0.0,0.0,0.0,0.0,0.0,0.0,0.0,0.0,0.0,0.0,0.0,0.0,0.0,0.0,0.0,0.0,0.0,0.0,0.0,0.0,0.0,0.0,0.0,0.0,0.0,0.0,0.0,0.0,0.0,0.0,0.0,0.0,0.0,0.0,0.0,0.0,0.0,0.0,0.0,0.0,0.0,0.0,0.0,0.0,0.0,0.0,0.0,0.0,0.0,0.0,0.0,0.0,0.0,0.0,0.0,0.0,0.0,0.0,0.0,0.0,0.0,0.0,0.0,0.0,0.0,0.0,0.0,0.0,0.0,0.0,0.0,0.0,0.0,0.0,0.0,0.0,0.0,0.0,0.0,0.0,0.0,0.0,0.0,0.0,0.0,0.0,0.0,0.0,0.0,0.0,0.0,0.0,0.0,0.0,0.0,0.0,0.0,-1.0517,0.0,-1.0618,-1.0167,-0.9909,-0.9915,0.0,0.0,0.0,0.0,0.0,0.0,0.0,0.0,0.0,0.0,0.0,0.0,0.0,0.0,0.0,0.0,0.0,0.0,0.0,0.0,0.0,0.0,0.0,0.0,0.0,0.0,0.0,0.0,0.0,0.0,0.0,0.0,0.0,0.0,0.0,0.0,0.0,0.0,0.0,0.0,0.0,0.0,0.0,0.0,0.0,0.0,0.0,0.0,0.0,0.0,0.0,0.0,0.0,0.0,0.0,0.0,0.0,0.0,0.0,0.0,0.0,0.0,0.0,0.0,0.0,0.0,0.0,0.0,0.0,0.0,0.0,0.0,0.0,0.0,0.0,0.0,0.0,0.0,0.0,0.0,0.0,0.0,0.0,0.0,0.0,0.0,0.0,0.0,0.0,0.0,0.0,0.0,0.0,0.0,0.0,0.0,0.0,0.0,0.0,0.0,0.0,0.0,0.0,0.0,0.0,0.0,0.0,0.0,-1.0466,-0.9865,-1.0415,-1.0115,-0.8903,-0.9458,-0.9458,0.0,0.0,0.0,0.0,0.0,0.0,0.0,0.0,0.0,0.0,0.0,0.0,0.0,0.0,0.0,0.0,0.0,0.0,0.0,0.0,0.0,0.0,0.0,0.0,0.0,0.0,0.0,0.0,0.0,0.0,0.0,0.0,0.0,0.0,0.0,0.0,0.0,0.0,0.0,0.0,0.0,0.0,0.0,0.0,0.0,0.0,0.0,0.0,0.0,0.0,0.0,0.0,0.0,0.0,0.0,0.0,0.0,0.0,0.0,0.0,0.0,0.0,0.0,0.0,0.0,0.0,0.0,0.0,0.0,0.0,0.0,0.0,0.0,0.0,0.0,0.0,0.0,0.0,0.0,0.0,0.0,0.0,0.0,0.0,0.0,0.0,0.0,0.0,0.0,0.0,0.0,0.0,0.0,0.0,0.0,0.0,0.0,0.0,0.0,0.0,0.0,0.0,0.0,0.0,0.0,0.0,0.0,0.0,0.0,-0.9762,-0.9562,-0.9211,-0.8811,-0.9008,-0.9008,0.0,0.0,0.0,0.0,0.0,0.0,0.0,0.0,0.0,0.0,0.0,0.0,0.0,0.0,0.0,0.0,0.0,0.0,0.0,0.0,0.0,0.0,0.0,0.0,0.0,0.0,0.0,0.0,0.0,0.0,0.0,0.0,0.0,0.0,0.0,0.0,0.0,0.0,0.0,0.0,0.0,0.0,0.0,0.0,0.0,0.0,0.0,0.0,0.0,0.0,0.0,0.0,0.0,0.0,0.0,0.0,0.0,0.0,0.0,0.0,0.0,0.0,0.0,0.0,0.0,0.0,0.0,0.0,0.0,0.0,0.0,0.0,0.0,0.0,0.0,0.0,0.0,0.0,0.0,0.0,0.0,0.0,0.0,0.0,0.0,0.0,0.0,0.0,0.0,0.0,0.0,0.0,0.0,0.0,0.0,0.0,0.0,0.0,0.0,0.0,0.0,0.0,0.0,0.0,0.0,0.0,0.0,0.0,0.0,-0.9413,-0.9008,-0.8804,-0.8804,-0.8804,-0.8804,-0.8804,0.0,0.0,0.0,0.0,0.0,0.0,0.0,0.0,0.0,0.0,0.0,0.0,0.0,0.0,0.0,0.0,0.0,0.0,0.0,0.0,0.0,0.0,0.0,0.0,0.0,0.0,0.0,0.0,0.0,0.0,0.0,0.0,0.0,0.0,0.0,0.0,0.0,0.0,0.0,0.0,0.0,0.0,0.0,0.0,0.0,0.0,0.0,0.0,0.0,0.0,0.0,0.0,0.0,0.0,0.0,0.0,0.0,0.0,0.0,0.0,0.0,0.0,0.0,0.0,0.0,0.0,0.0,0.0,0.0,0.0,0.0,0.0,0.0,0.0,0.0,0.0,0.0,0.0,0.0,0.0,0.0,0.0,0.0,0.0,0.0,0.0,0.0,0.0,0.0,0.0,0.0,0.0,0.0,0.0,0.0,0.0,0.0,0.0,0.0,0.0,0.0,0.0,0.0,0.0,0.0,0.0,0.0,0.0,-0.8804,-0.8804,-0.8804,-0.8804,-0.8804,-0.8804,0.0,0.0,0.0,0.0,0.0,0.0,0.0,0.0,0.0,0.0,0.0,0.0,0.0,0.0,0.0,0.0,0.0,0.0,0.0,0.0,0.0,0.0,0.0,0.0,0.0,0.0,0.0,0.0,0.0,0.0,0.0,0.0,0.0,0.0,0.0,0.0,0.0,0.0,0.0,0.0,0.0,0.0,0.0,0.0,0.0,0.0,0.0,0.0,0.0,0.0,0.0,0.0,0.0,0.0,0.0,0.0,0.0,0.0,0.0,0.0,0.0,0.0,0.0,0.0,0.0,0.0,0.0,0.0,0.0,0.0,0.0,0.0,0.0,0.0,0.0,0.0,0.0,0.0,0.0,0.0,0.0,0.0,0.0,0.0,0.0,0.0,0.0,0.0,0.0,0.0,0.0,0.0,0.0,0.0,0.0,0.0,0.0,0.0,0.0,0.0,0.0,0.0,0.0,0.0,0.0,0.0,0.0,0.0,0.0,-0.8811,-0.8804,-0.8804,-0.8804,-0.8804,-0.8778,0.0,0.0,0.0,0.0,0.0,0.0,0.0,0.0,0.0,0.0,0.0,0.0,0.0,0.0,0.0,0.0,0.0,0.0,0.0,0.0,0.0,0.0,0.0,0.0,0.0,0.0,0.0,0.0,0.0,0.0,0.0,0.0,0.0,0.0,0.0,0.0,0.0,0.0,0.0,0.0,0.0,0.0,0.0,0.0,0.0,0.0,0.0,0.0,0.0,0.0,0.0,0.0,0.0,0.0,0.0,0.0,0.0,0.0,0.0,0.0,0.0,0.0,0.0,0.0,0.0,0.0,0.0,0.0,0.0,0.0,0.0,0.0,0.0,0.0,0.0,0.0,0.0,0.0,0.0,0.0,0.0,0.0,0.0,0.0,0.0,0.0,0.0,0.0,0.0,0.0,0.0,0.0,0.0,0.0,0.0,0.0,0.0,0.0,0.0,0.0,0.0,0.0,0.0,0.0,0.0,0.0,0.0,0.0,-0.919,-0.9178,-0.9178,-0.9178,-0.9178,-0.8938,-0.8785,0.0,0.0,0.0,0.0,0.0,0.0,0.0,0.0,0.0,0.0,0.0,0.0,0.0,0.0,0.0,0.0,0.0,0.0,0.0,0.0,0.0,0.0,0.0,0.0,0.0,0.0,0.0,0.0,0.0,0.0,0.0,0.0,0.0,0.0,0.0,0.0,0.0,0.0,0.0,0.0,0.0,0.0,0.0,0.0,0.0,0.0,0.0,0.0,0.0,0.0,0.0,0.0,0.0,0.0,0.0,0.0,0.0,0.0,0.0,0.0,0.0,0.0,0.0,0.0,0.0,0.0,0.0,0.0,0.0,0.0,0.0,0.0,0.0,0.0,0.0,0.0,0.0,0.0,0.0,0.0,0.0,0.0,0.0,0.0,0.0,0.0,0.0,0.0,0.0,0.0,0.0,0.0,0.0,0.0,0.0,0.0,0.0,0.0,0.0,0.0,0.0,0.0,0.0,0.0,0.0,0.0,0.0,0.0,-0.9701,-0.9563,-0.9686,-0.9679,-0.9543,-0.909,-0.8825,0.0,0.0,0.0,0.0,0.0,0.0,0.0,0.0,0.0,0.0,0.0,0.0,0.0,0.0,0.0,0.0,0.0,0.0,0.0,0.0,0.0,0.0,0.0,0.0,0.0,0.0,0.0,0.0,0.0,0.0,0.0,0.0,0.0,0.0,0.0,0.0,0.0,0.0,0.0,0.0,0.0,0.0,0.0,0.0,0.0,0.0,0.0,0.0,0.0,0.0,0.0,0.0,0.0,0.0,0.0,0.0,0.0,0.0,0.0,0.0,0.0,0.0,0.0,0.0,0.0,0.0,0.0,0.0,0.0,0.0,0.0,0.0,0.0,0.0,0.0,0.0,0.0,0.0,0.0,0.0,0.0,0.0,0.0,0.0,0.0,0.0,0.0,0.0,0.0,0.0,0.0,0.0,0.0,0.0,0.0,0.0,0.0,0.0,0.0,0.0,0.0,0.0,0.0,0.0,0.0,0.0,0.0,0.0,-0.9852,-0.8727,-0.9324,-0.9382,-0.8709,-0.8983,-0.902,0.0,0.0,0.0,0.0,0.0,0.0,0.0,0.0,0.0,0.0,0.0,0.0,0.0,0.0,0.0,0.0,0.0,0.0,0.0,0.0,0.0,0.0,0.0,0.0,0.0,0.0,0.0,0.0,0.0,0.0,0.0,0.0,0.0,0.0,0.0,0.0,0.0,0.0,0.0,0.0,0.0,0.0,0.0,0.0,0.0,0.0,0.0,0.0,0.3578,0.0,0.0,0.0,0.0,0.0,0.0,0.0,0.0,0.0,0.0,0.0,0.0,0.0,0.0,0.0,0.0,0.0,0.0,0.0,0.0,0.0,0.0,0.0,0.0,0.0,0.0,0.0,0.0,0.0,0.0,0.0,0.0,0.0,0.0,0.0,0.0,0.0,0.0,0.0,0.0,0.0,0.0,0.0,0.0,0.0,0.0,0.0,0.0,0.0,0.0,0.0,0.0,0.0,0.0,0.0,0.0,0.0,0.0,0.0,-0.8965,-0.8287,-0.8661,-0.8661,-0.8214,-0.8354,-0.8504,0.0,0.0,0.0,0.0,0.0,0.0,0.0,0.0,0.0,0.0,0.0,0.0,0.0,0.0,0.0,0.0,0.0,0.0,0.0,0.0,0.0,0.0,0.0,0.0,0.0,0.0,0.0,0.0,0.0,0.0,0.0,0.0,0.0,0.0,0.0,0.0,0.0,0.0,0.0,0.0,0.0,0.0,0.0,0.0,0.0,0.0,0.0,0.0,0.0,0.0,0.0,0.0,0.0,0.0,0.0,0.0,0.0,0.0,0.0,0.0,0.0,0.0,0.0,0.0,0.0,0.0,0.0,0.0,0.0,0.0,0.0,0.0,0.0,0.0,0.0,0.0,0.0,0.0,0.0,0.0,0.0,0.0,0.0,0.0,0.0,0.0,0.0,0.0,0.0,0.0,0.0,0.0,0.0,0.0,0.0,0.0,0.0,0.0,0.0,0.0,0.0,0.0,0.0,0.0,0.0,0.0,0.0,-0.7274,-0.7687,-0.7827,-0.7962,-0.7962,-0.7827,-0.7648,-0.7933,-0.8589,0.0,0.0,0.0,0.0,0.0,0.0,0.0,0.0,0.0,0.0,0.0,0.0,0.0,0.0,0.0,0.0,0.0,0.0,0.0,0.0,0.0,0.0,0.0,0.0,0.0,0.0,0.0,0.0,0.0,0.0,0.0,0.0,0.0,0.0,0.0,0.0,0.0,0.0,0.0045,-0.0,0.0,0.0,0.0,0.0,0.0,0.0,0.0,0.0,0.3727,0.0,0.0,0.0,0.0,0.0,0.0,0.0,0.0,0.0,0.0,0.0,0.0,0.0,0.0,0.0,0.0,0.0,0.0,0.0,0.0,0.0,0.0,0.0,0.0,0.0,0.0,0.0,0.0,0.0,0.0,0.0,0.0,0.0,0.0,0.0,0.0,0.0,0.0,0.0,0.0,0.0,0.0,0.0,0.0,0.0,0.0,0.0,0.0,0.0,0.0,0.0,0.0,0.0,0.0,0.0,0.0,-0.7713,-0.6505,-0.6193,-0.6911,-0.7632,-0.7637,-0.6976,-0.7598,-0.7981,-0.8109,0.0,0.0,0.0,0.0,0.0,0.0,0.0,0.0,0.0,0.0,0.0,0.0,0.0,0.0,0.0,0.0,0.0,0.0,0.0,0.0,0.0,0.0,0.0,0.0,0.0,0.0,0.0,0.0,0.0,0.0,0.0,0.0,0.0,0.0,0.0,0.0,0.0,0.0,0.0,-0.0,0.042,0.0,0.0,0.0,0.0,0.0,0.0,0.0,0.0,0.3955,0.0,0.0,0.0,0.0,0.0,0.0,0.0,0.0,0.0,0.0,0.0,0.0,0.0,0.0,0.0,0.0,0.0,0.0,0.0,0.0,0.0,0.0,0.0,0.0,0.0,0.0,0.0,0.0,0.0,0.0,0.0,0.0,0.0,0.0,0.0,0.0,0.0,0.0,0.0,0.0,0.0,0.0,0.0,0.0,0.0,0.0,0.0,0.0,0.0,0.0,0.0,0.0,0.0,0.0,0.0,-0.6523,-0.5817,-0.5625,-0.6005,-0.6404,-0.647,-0.6075,-0.6404,-0.6675,0.0,0.0,0.0,0.0,0.0,0.0,0.0,0.0,0.0,0.0,0.0,0.0,0.0,0.0,0.0,0.0,0.0,0.0,0.0,0.0,0.0,0.0,0.0,0.0,0.0,0.0,0.0,0.0,0.0,0.0,0.0,0.0,0.0,0.0,0.0,0.0,0.0,0.0,0.0,0.0,-0.0,0.0238,0.0761,0.0,0.0,0.0,0.0,0.0,0.0,0.4026,0.4073,0.0,0.0,0.0,0.0,0.0,0.0,0.0,0.0,0.0,0.0,0.0,0.0,0.0,0.0,0.0,0.0,0.0,0.0,0.0,0.0,0.0,0.0,0.0,0.0,0.0,0.0,0.0,0.0,0.0,0.0,0.0,0.0,0.0,0.0,0.0,0.0,0.0,0.0,0.0,0.0,0.0,0.0,0.0,0.0,0.0,0.0,0.0,0.0,0.0,0.0,0.0,0.0,0.0,0.0,0.0,-0.5683,-0.5982,-0.6044,-0.5947,-0.5947,-0.5951,-0.5885,-0.5951,-0.5749,0.0,0.0,0.0,0.0,0.0,0.0,0.0,0.0,0.0,0.0,0.0,0.0,0.0,0.0,0.0,0.0,0.0,0.0,0.0,0.0,0.0,0.0,0.0,0.0,0.0,0.0,0.0,0.0,0.0,0.0,0.0,0.0,0.0,0.0,0.0,0.0,0.0,0.0,0.0,0.0,0.0,0.0196,0.0753,0.2708,0.0,0.0,0.0,0.0,0.422,0.4189,0.0,0.0,0.0,0.0,0.0,0.0,0.0,0.0,0.0,0.0,0.0,0.0,0.0,0.0,0.0,0.0,0.0,0.0,0.0,0.0,0.0,0.0,0.0,0.0,0.0,0.0,0.0,0.0,0.0,0.0,0.0,0.0,0.0,0.0,0.0,0.0,0.0,0.0,0.0,0.0,0.0,0.0,0.0,0.0,0.0,0.0,0.0,0.0,0.0,0.0,0.0,0.0,0.0,0.0,0.0,0.0,-0.6593,-0.7782,-0.8182,-0.7707,-0.7697,-0.7702,-0.7702,-0.7702,-0.6967,0.0,0.0,0.0,0.0,0.0,0.0,0.0,0.0,0.0,0.0,0.0,0.0,0.0,0.0,0.0,0.0,0.0,0.0,0.0,0.0,0.0,0.0,0.0,0.0,0.0,0.0,0.0,0.0,0.0,0.0,0.0,0.0,0.0,0.0,0.0,0.0,0.0,0.0,0.0,0.0,0.0,0.0881,0.3198,0.4062,0.4399,0.0,0.0,0.447,0.4491,0.4477,0.0,0.0,0.0,0.0,0.0,0.0,0.0,0.0,0.0,0.0,0.0,0.0,0.0,0.0,0.0,0.0,0.0,0.0,0.0,0.0,0.0,0.0,0.0,0.0,0.0,0.0,0.0,0.0,0.0,0.0,0.0,0.0,0.0,0.0,0.0,0.0,0.0,0.0,0.0,0.0,0.0,0.0,0.0,0.0,0.0,0.0,0.0,0.0,0.0,0.0,0.0,0.0,0.0,0.0,0.0,-0.6994,-0.6719,-0.8057,-0.8517,-0.8027,-0.8027,-0.8027,-0.8027,-0.8027,-0.7432,0.0,0.0,0.0,0.0,0.0,0.0,0.0,0.0,0.0,0.0,0.0,0.0,0.0,0.0,0.0,0.0,0.0,0.0,0.0,0.0,0.0,0.0,0.0,0.0,0.0,0.0,0.0,0.0,0.0,0.0,0.0,0.0,0.0,0.0,0.0,0.0,0.0,0.0,0.0,0.0,0.0,0.0,0.1817,0.2579,0.0,0.0,0.0,0.4463,0.4463,0.0,0.0,0.0,0.0,0.0,0.0,0.0,0.0,0.0,0.0,0.0,0.0,0.0,0.0,0.0,0.0,0.0,0.0,0.0,0.0,0.0,0.0,0.0,0.0,0.0,0.0,0.0,0.0,0.0,0.0,0.0,0.0,0.0,0.0,0.0,0.0,0.0,0.0,0.0,0.0,0.0,0.0,0.0,0.0,0.0,0.0,0.0,0.0,0.0,0.0,0.0,0.0,0.0,0.0,0.0,0.0,0.0,-0.7046,-0.8501,-0.9092,-0.8672,-0.8672,-0.8672,-0.8672,-0.8672,0.0,0.0,0.0,0.0,0.0,0.0,0.0,0.0,0.0,0.0,0.0,0.0,0.0,0.0,0.0,0.0,0.0,0.0,0.0,0.0,0.0,0.0,0.0,0.0,0.0,0.0,0.0,-0.0,0.0,0.0,0.0,0.0,0.0,0.0,0.0,0.0,0.0,0.0,0.0,0.0,0.0,0.0,0.3382,0.1393,0.1452,0.2345,0.0,0.0,0.4467,0.4463,0.4549,0.4573,0.0,0.0,0.0,0.0,0.0,0.0,0.0,0.0,0.0,0.0,0.0,0.0,0.0,0.0,0.0,0.0,0.0,0.0,0.0,0.0,0.0,0.0,0.0,0.0,0.0,0.0,0.0,0.0,0.0,0.0,0.0,0.0,0.0,0.0,0.0,0.0,0.0,0.0,0.0,0.0,0.0,0.0,0.0,0.0,0.0,0.0,0.0,0.0,0.0,0.0,0.0,0.0,0.0,0.0,-0.7892,-0.7962,-0.9588,-1.0434,-1.0428,-1.0428,-1.0428,-1.0428,-1.0428,-0.9646,0.0,0.0,0.0,0.0,0.0,0.0,0.0,0.0,0.0,0.0,0.0,0.0,0.0,0.0,0.0,0.0,0.0,0.0,0.0,0.0,0.0,0.0,0.0,0.0,0.0,0.0,0.0,0.0,0.0,0.0,0.0,0.0,0.0,0.0,0.0,0.0,0.0,0.0,0.0,0.0,0.0,0.4432,0.4225,0.1903,0.1173,0.0,0.4487,0.4477,0.4463,0.4639,0.4677,0.4674,0.0,0.0,0.0,0.0,0.0,0.0,0.0,0.0,0.0,0.0,0.0,0.0,0.0,0.0,0.0,0.0,0.0,0.0,0.0,0.0,0.0,0.0,0.0,0.0,0.0,0.0,0.0,0.0,0.0,0.0,0.0,0.0,0.0,0.0,0.0,0.0,0.0,0.0,0.0,0.0,0.0,0.0,0.0,0.0,0.0,0.0,0.0,0.0,0.0,0.0,0.0,0.0,0.0,-0.8027,-0.8021,-0.9716,-1.0618,-1.0618,-1.0618,-1.0618,-1.0618,-1.0618,-1.004,0.0,0.0,0.0,0.0,0.0,0.0,0.0,0.0,0.0,0.0,0.0,0.0,0.0,0.0,0.0,0.0,0.0,0.0,0.0,0.0,0.0,0.0,0.0,0.0,0.0,0.0,0.0,0.0,-0.0,-0.0,-0.0,0.0,0.0,0.0,0.0,0.0,0.0,0.0,0.0,0.0,0.0,0.4507,0.4458,0.1935,0.0,0.0,0.3287,0.4467,0.4464,0.4624,0.4843,0.4903,0.4884,0.0,0.0,0.0,0.0,0.0,0.0,0.0,0.0,0.0,0.0,0.0,0.0,0.0,0.0,0.0,0.0,0.0,0.0,0.0,0.0,0.0,0.0,0.0,0.0,0.0,0.0,0.0,0.0,0.0,0.0,0.0,0.0,0.0,0.0,0.0,0.0,0.0,0.0,0.0,0.0,0.0,0.0,0.0,0.0,0.0,0.0,0.0,0.0,0.0,0.0,0.0,0.0,-0.8156,-0.8415,-0.9843,-1.0618,-1.0618,-1.0618,-1.0618,-1.0618,-1.0618,-1.0174,0.0,0.0,0.0,0.0,0.0,0.0,0.0,0.0,0.0,0.0,0.0,0.0,0.0,0.0,0.0,0.0,0.0,0.0,0.0,0.0,0.0,0.0,0.0,0.0,0.0,0.0,0.0,0.0,-0.0539,-0.0,-0.0,0.0,0.0,0.0,0.0,0.0,0.0,0.0,0.0,0.0,0.0,0.4191,0.3295,0.2237,0.143,0.0892,0.2976,0.4632,0.4629,0.4787,0.4937,0.5064,0.0,0.0,0.0,0.0,0.0,0.0,0.0,0.0,0.0,0.0,0.0,0.0,0.0,0.0,0.0,0.0,0.0,0.0,0.0,0.0,0.0,0.0,0.0,0.0,0.0,0.0,0.0,-1.4048,0.0,0.0,-1.3077,0.0,0.0,0.0,0.0,0.0,0.0,0.0,0.0,0.0,0.0,0.0,0.0,0.0,0.0,0.0,0.0,0.0,0.0,0.0,0.0,0.0,0.0,-0.842,-0.9274,-1.011,-1.0618,-1.0618,-1.0618,-1.0618,-1.0618,-1.0618,-1.0174,-0.9338,0.0,0.0,0.0,0.0,0.0,0.0,0.0,0.0,0.0,0.0,0.0,0.0,0.0,0.0,0.0,0.0,0.0,0.0,0.0,0.0,0.0,0.0,0.0,0.0,0.0,0.0,-0.4271,-0.1736,-0.0,0.0,0.0,0.0,0.0,0.0,0.0,0.0,0.0,0.0,0.4478,0.4494,0.3401,0.0613,0.3026,0.4396,0.2891,0.4005,0.5006,0.4935,0.4988,0.5081,0.0,0.0,0.0,0.0,0.0,0.0,0.0,0.0,0.0,0.0,0.0,0.0,0.0,0.0,0.0,0.0,0.0,0.0,0.0,0.0,0.0,0.0,0.0,0.0,0.0,0.0,0.0,-1.4404,-1.4087,0.0,0.0,0.0,0.0,0.0,0.0,0.0,0.0,0.0,0.0,0.0,-1.1344,-1.0863,0.0,0.0,0.0,0.0,0.0,0.0,0.0,0.0,0.0,0.0,0.0,0.0,-0.9011,-0.9338,-1.0174,-1.0618,-1.0618,-1.0618,-1.0618,-1.0618,-1.0618,-1.0491,-1.0168,0.0,0.0,0.0,0.0,0.0,0.0,0.0,0.0,0.0,0.0,0.0,0.0,0.0,0.0,0.0,0.0,0.0,0.0,0.0,0.0,0.0,0.0,0.0,0.0,0.0,-0.4082,0.0,0.0,0.0,0.0,0.0,0.0,0.0,0.0,0.0,0.0,0.3247,0.4464,0.4515,0.28,0.1158,0.0123,0.1005,0.2421,0.0,0.0,0.0,0.0,0.0,0.0,0.0,0.0,0.0,0.0,0.0,0.0,0.0,0.0,0.5997,0.5989,0.5985,0.5985,0.5989,0.0,0.0,0.0,0.0,0.0,0.0,0.0,0.0,0.0,0.0,0.0,0.0,0.0,0.0,-1.4844,-1.459,-1.458,0.0,0.0,0.0,0.0,0.0,0.0,0.0,0.0,-1.2205,-1.1841,-1.1772,-1.1288,-1.0863,-1.0624,-1.0618,-1.0618,0.0,0.0,0.0,0.0,0.0,0.0,0.0,0.0,-0.9466,-0.9786,-1.0301,-1.0618,-1.0618,-1.0618,-1.0618,-1.0618,-1.0618,-1.0618,-1.0618,-1.004,-1.004,0.0,0.0,0.0,0.0,0.0,0.0,0.0,0.0,0.0,0.0,0.0,0.0,0.0,0.0,0.0,0.0,0.0,0.0,0.0,0.0,0.0,0.0,0.0,-0.3929,0.0,0.0,0.0,0.0,0.0,0.0,0.0,0.0,0.0,-0.006,0.1706,0.2919,0.2949,0.1254,-0.0,-0.0,0.0,0.0,0.0,0.0,0.0,0.0,0.0,0.5403,0.5413,0.4375,0.3153,0.1941,0.2748,0.3694,0.437,0.0,0.0,0.4567,0.4495,0.4634,0.5246,0.5679,0.6012,0.6187,0.65,0.6834,0.0,0.0,0.0,0.0,-1.542,0.0,0.0,0.0,-1.541,-1.54,0.0,-1.5381,0.0,0.0,0.0,0.0,-1.4273,-1.4213,0.0,0.0,-1.3726,-1.3295,-1.1896,-1.1764,-1.1344,-1.0618,-1.0618,-1.0618,-1.0618,-1.0618,0.0,0.0,0.0,0.0,0.0,0.0,-0.9722,-1.0561,-1.0561,-1.0618,-1.0618,-1.0618,-1.0618,-1.0618,-1.0618,-1.0618,-1.0618,-1.0561,-1.0561,-1.0555,-0.9716,0.0,0.0,0.0,0.0,0.0,0.0,0.0,0.0,0.0,0.0,0.0,0.0,0.0,0.0,0.0,0.0,0.0,0.0,0.0,0.0,-0.4867,0.0,0.0,0.0,0.0,0.0,0.0,0.0,0.0,0.0,-0.2162,-0.0559,-0.0062,-0.0,-0.0,0.0,0.0,0.0,0.0,-0.0,-0.0,0.1472,0.2611,0.2611,0.4038,0.5205,0.5413,0.0,0.0,-0.0,-0.0,0.0669,0.2342,0.4108,0.4861,0.322,0.2811,0.3149,0.4709,0.5106,0.5306,0.5442,0.5495,0.5484,-1.5926,0.0,0.0,0.0,0.0,-1.542,-1.542,-1.542,-1.542,-1.542,-1.542,-1.542,0.0,0.0,0.0,0.0,0.0,0.0,-1.4392,-1.4628,-1.3166,-1.2504,-1.2573,-1.1476,-1.08,-1.0618,-1.0618,-1.0618,-1.0618,-1.0618,-1.0491,-1.0238,0.0,0.0,0.0,0.0,-1.0371,-1.0561,-1.0618,-1.0618,-1.0618,-1.0618,-1.0618,-1.0618,-1.0618,-1.0618,-1.0618,-1.0618,-1.0618,-1.0561,-0.9792,0.0,0.0,0.0,0.0,0.0,0.0,0.0,0.0,0.0,0.0,0.0,0.0,0.0,0.0,0.0,0.0,0.0,0.0,0.0,-0.4918,-0.4992,-0.4809,0.0,0.0,0.0,0.0,0.0,0.0,0.0,0.0,0.0,-0.3888,-0.1573,-0.0,0.0,0.0,-0.0,-0.0,-0.0,-0.0,-0.0,0.0471,0.0,0.074,0.1208,0.2418,0.495,0.243,-0.0,-0.0,-0.0,0.0135,0.074,0.3307,0.5228,0.4605,0.2485,-0.0,0.154,0.2544,0.3887,0.5106,0.5376,0.5372,-1.6416,-1.5918,-1.5732,-1.5674,-1.5654,-1.5488,-1.542,-1.542,-1.542,-1.542,-1.542,-1.542,-1.542,-1.542,-1.542,0.0,0.0,0.0,-1.4932,-1.5342,-1.3888,-1.3356,-1.3364,-1.2151,-1.1413,-1.1052,-1.0751,-1.0685,-1.0728,-1.0728,-1.0788,-1.0889,0.0,-1.0618,-1.0568,-1.0675,-1.0728,-1.0593,-1.0777,-1.0842,-1.0586,-1.0615,-1.0618,-1.0618,-1.0618,-1.0618,-1.0618,-1.0618,-1.0618,-1.0618,-1.011,-0.9786,0.0,0.0,0.0,0.0,0.0,0.0,0.0,0.0,0.0,0.0,0.0,-0.6041,-0.5649,0.0,0.0,0.0,-0.528,-0.5098,-0.5094,-0.5164,0.0,0.0,0.0,0.0,0.0,0.0,0.0,-0.526,-0.5394,-0.5386,-0.5336,-0.2883,-0.0804,-0.0,-0.0,-0.0,-0.0,0.0,-0.0,-0.0,-0.0,-0.0,-0.0,-0.0,0.074,0.2905,0.1553,-0.0,-0.0,-0.0,-0.0,-0.0,0.1755,0.325,0.325,0.1413,-0.0,-0.0,0.0871,0.2008,0.308,0.4361,0.5382,-1.6879,-1.6894,-1.6455,-1.6221,-1.6084,-1.5684,-1.5518,-1.5518,-1.5518,-1.5508,-1.5518,-1.5518,-1.5518,-1.5518,-1.5518,0.0,-1.5518,-1.5518,-1.5527,-1.5508,-1.539,-1.4909,-1.4183,-1.3275,-1.2476,-1.1729,-1.0995,-1.0768,-1.1015,-1.1029,-1.1162,-1.1403,-1.0895,-1.0628,-1.0712,-1.0895,-1.0883,-1.0659,-1.1134,-1.1147,-1.0659,-1.069,-1.0685,-1.0658,-1.0658,-1.0645,-1.0618,-1.0618,-1.0618,-1.0618,-1.0618,-1.0618,-1.0555,0.0,0.0,0.0,0.0,0.0,0.0,0.0,0.0,0.0,0.0,0.0,0.0,0.0,0.0,0.0,-0.5877,0.0,-0.5428,-0.5428,0.0,0.0,0.0,-0.5376,-0.5376,-0.5376,-0.5376,-0.5376,0.0,0.0,-0.5393,-0.3892,-0.2144,-0.0471,-0.0067,-0.0,-0.0,-0.0,-0.0,-0.0,-0.0,-0.0,-0.0,-0.0,-0.0,-0.0,-0.0,-0.0,-0.0,-0.0,-0.0,-0.0,-0.0,-0.0,-0.0,-0.0,-0.0,-0.0,-0.0,-0.0,-0.0,0.2576,0.4698,-1.8682,-1.8643,-1.8203,-1.7471,-1.6572,-1.6403,-1.6364,-1.6354,-1.6426,-1.6354,-1.6416,-1.6426,-1.6416,-1.6416,-1.6416,-1.6416,-1.6416,-1.6426,-1.6354,-1.6292,-1.5052,-1.4269,-1.4084,-1.2519,-1.1671,-1.1471,-1.1276,-1.1256,-1.1323,-1.1323,-1.1356,-1.1416,-1.1289,-1.1223,-1.1223,-1.1289,-1.1255,-1.1174,-1.1315,-1.1321,-1.1248,-1.1182,-1.1116,-1.0895,-1.0889,-1.0782,-1.0638,-1.0618,-1.0618,-1.0618,-1.0618,-1.0618,-1.0555,-1.0428,0.0,0.0,0.0,0.0,0.0,0.0,0.0,0.0,0.0,-0.7134,-0.6719,0.0,-0.6013,0.0,-0.5877,-0.5428,-0.5428,-0.5428,0.0,0.0,-0.5428,-0.5432,-0.5432,-0.5432,-0.5432,-0.5432,-0.5428,-0.5432,-0.5379,-0.4223,-0.3078,-0.2144,-0.0874,-0.0,-0.0,-0.0,-0.0,-0.0,-0.0,-0.0,-0.0,-0.0,-0.0,-0.0,-0.0,-0.0,-0.0,-0.0,-0.0,-0.0,-0.0,-0.0,-0.0,-0.0,-0.0,-0.0,-0.0,-0.0,-0.0,-0.0,0.1709,-1.9277,-1.9268,-1.9023,-1.8516,-1.7832,-1.7266,-1.7021,-1.7012,-1.6816,-1.6665,-1.6665,-1.6665,-1.6665,-1.6665,-1.6665,-1.6665,-1.6665,-1.6665,-1.6665,-1.6665,-1.5744,-1.5274,-1.5201,-1.342,-1.2624,-1.2557,-1.1758,-1.1496,-1.1617,-1.1623,-1.169,-1.181,-1.1817,-1.1817,-1.181,-1.169,-1.1547,-1.1388,-1.17,-1.1769,-1.1623,-1.1496,-1.1349,-1.1189,-1.1056,-1.085,-1.0606,-1.0621,-1.0618,-1.0618,-1.0618,-1.0618,-1.0618,-1.0618,-1.0618,0.0,0.0,0.0,0.0,0.0,0.0,0.0,0.0,0.0,0.0,0.0,-0.6009,-0.6141,-0.5686,-0.5428,-0.5428,-0.5428,-0.5428,-0.5428,-0.5428,-0.5428,-0.5428,-0.5428,-0.5428,-0.5428,-0.5428,-0.5432,-0.5376,-0.4827,-0.4314,-0.4097,-0.3217,-0.1909,-0.0,-0.0,-0.0,-0.0,-0.0,-0.0,-0.0,-0.0,-0.0,-0.0,-0.0,-0.0,-0.0,-0.0,-0.0,-0.0,-0.0,-0.0,-0.0,-0.0,-0.0,-0.0,-0.0,-0.0,-0.0,-0.0,0.0363,-1.9443,-1.9443,-1.9453,-1.9453,-1.9365,-1.8203,-1.7676,-1.7607,-1.7168,-1.6879,-1.6894,-1.6894,-1.6894,-1.6904,-1.6894,-1.6831,-1.6894,-1.684,-1.6894,-1.6831,-1.6757,-1.6703,-1.6629,-1.5016,-1.4222,-1.4155,-1.2606,-1.1943,-1.2131,-1.2131,-1.2195,-1.2298,-1.2305,-1.2305,-1.2298,-1.2051,-1.1839,-1.152,-1.2074,-1.2165,-1.1924,-1.167,-1.1516,-1.1476,-1.1236,-1.0936,-1.0593,-1.0619,-1.0608,-1.0608,-1.0575,-1.0618,-1.0618,-1.0618,-1.0618,0.0,-0.9913,0.0,0.0,0.0,0.0,0.0,0.0,0.0,0.0,-0.7372,-0.6465,-0.5491,-0.5428,-0.5428,-0.5428,-0.5428,-0.5428,-0.5428,-0.5428,-0.5428,-0.5428,-0.5428,-0.5428,-0.5428,-0.5446,-0.5463,-0.5406,-0.542,-0.5562,-0.5616,-0.5574,-0.4399,-0.1569,-0.0,-0.0,-0.0423,-0.0144,-0.0,-0.0,-0.0,-0.0,-0.0,-0.0,-0.0,-0.0,-0.0,-0.0,-0.0,-0.0,-0.0,-0.0,-0.0,-0.0,-0.0,-0.0,-0.0,-0.0,-0.0,-0.0,-2.0322,-2.0322,-2.0332,-2.0332,-2.0264,-1.9678,-1.9238,-1.8896,-1.8467,-1.8086,-1.7773,-1.7773,-1.7764,-1.7773,-1.7764,-1.7773,-1.7773,-1.7773,-1.7773,-1.7696,-1.6983,-1.6624,-1.6556,-1.5514,-1.5035,-1.4965,-1.4606,-1.408,-1.3367,-1.336,-1.2968,-1.2305,-1.2305,-1.2305,-1.2305,0.0,0.0,0.0,-1.2225,-1.2298,-1.2218,-1.2171,-1.2024,-1.179,-1.173,0.0,-1.0666,-1.0837,-1.0836,-1.0607,-1.0611,0.0,0.0,0.0,0.0,0.0,0.0,0.0,0.0,0.0,0.0,0.0,-1.0174,-0.9924,-0.9075,-0.8285,-0.712,-0.5557,-0.5428,-0.5428,-0.5428,-0.5428,-0.5428,-0.5428,-0.5428,-0.5428,-0.5428,-0.5428,-0.5428,-0.5428,-0.5609,-0.5686,-0.5555,-0.5647,-0.5728,-0.5759,-0.5769,-0.5616,-0.4944,-0.3446,-0.2594,-0.2453,-0.1309,-0.0,-0.0,-0.0,-0.0,-0.0,-0.0,-0.0,-0.0,-0.0,-0.0,-0.0,-0.0,-0.0,-0.0,-0.0,-0.0,-0.0,-0.0,-0.0,-0.0,-0.0,-0.0,-2.0576,-2.0576,-2.0576,-2.0576,0.0,-2.0332,-2.0117,-1.9873,-1.9228,-1.8848,-1.8623,-1.8418,-1.832,-1.8311,-1.8096,-1.8008,-1.8008,-1.8008,-1.8008,-1.8008,-1.7501,-1.7285,-1.7285,-1.6367,-1.586,-1.586,-1.5438,-1.4665,-1.3745,-1.3673,-1.3237,-1.2305,-1.2305,-1.2305,-1.2305,-1.2305,-1.2305,-1.2305,-1.2305,-1.2305,-1.2305,-1.2305,-1.2231,-1.2084,-1.1944,0.0,0.0,0.0,0.0,0.0,0.0,0.0,0.0,-1.0618,0.0,-1.0618,-1.0618,-1.0618,-1.0618,-1.0618,-1.0618,-1.0561,-1.0601,-1.0027,-0.8748,-0.8221,-0.7442,-0.6207,-0.6009,-0.5881,-0.5425,-0.5428,-0.5428,-0.5428,-0.5428,-0.5428,-0.5435,-0.543,-0.5474,-0.5559,-0.5672,-0.5768,-0.5694,-0.5752,-0.5833,-0.5901,-0.5915,-0.5945,-0.6013,-0.5223,-0.4609,-0.4672,-0.3927,-0.0,-0.0,-0.0,-0.0,-0.0,-0.0,-0.0,-0.0,-0.0,-0.0,-0.0,-0.0,-0.0,-0.0,-0.0,-0.0,-0.0,-0.0,-0.0,-0.0,-0.0,-0.0,-2.0576,-2.0576,-2.0576,-2.0576,-2.0576,-2.0576,-2.0576,-2.0508,-1.9746,0.0,0.0,-1.8906,-1.8679,-1.8721,-1.8389,-1.8232,-1.8232,-1.8242,-1.8242,-1.8242,-1.8232,-1.8242,-1.8163,-1.7432,-1.7027,-1.6954,-1.6184,-1.5292,-1.4243,-1.4027,-1.3455,-1.2592,-1.2372,-1.2305,-1.2305,-1.2305,-1.2305,-1.2305,-1.2305,-1.2305,-1.2305,-1.2305,-1.2305,-1.2305,-1.2071,-1.2101,-1.2264,-1.1747,-1.1315,-1.0935,-1.0976,-1.0954,-1.0655,-1.0651,-1.0618,-1.0618,-1.0618,-1.0618,-1.0618,-1.0618,-1.0618,-1.0618,-1.0618,-0.9907,-0.835,-0.8221,-0.7892,-0.6976,-0.6915,-0.6662,-0.5947,-0.5686,-0.555,-0.5418,-0.5449,-0.5403,-0.541,-0.5395,-0.5554,-0.5787,-0.5898,-0.5844,-0.5844,-0.5874,-0.5925,-0.604,-0.6071,-0.6112,-0.6213,-0.6073,-0.597,-0.6073,-0.5774,-0.4927,-0.0,-0.0,-0.0626,-0.0,-0.0,-0.0549,-0.0471,-0.0235,-0.0,-0.0,-0.0,-0.0,-0.0,-0.0,-0.0,-0.0,-0.0,-0.0,-0.0,-0.0,-0.0,-2.0576,-2.0576,-2.0576,-2.0576,-2.0576,-2.0576,-2.0576,-2.0527,-2.0039,-1.9629,-1.9277,-1.9228,-1.9199,-1.9189,-1.9131,-1.9111,-1.9102,-1.9102,-1.9102,-1.9102,-1.9111,-1.9111,-1.9102,-1.8957,-1.8682,-1.8344,-1.8174,-1.7483,-1.6245,-1.5376,-1.445,-1.352,-1.2732,-1.2305,-1.2305,-1.2305,-1.2305,-1.2305,-1.2305,-1.2305,-1.2305,-1.2305,-1.2305,-1.2298,-1.2265,-1.2238,-1.2311,-1.1964,-1.1874,-1.2045,-1.1418,-1.1048,-1.0929,-1.0701,-1.0618,-1.0618,-1.0618,-1.0618,-1.0618,-1.0618,-1.0618,-1.0618,-1.0618,-1.0174,-0.9204,-0.9139,-0.8748,-0.7962,-0.7832,-0.7762,-0.7572,-0.692,-0.6256,-0.5592,-0.5525,-0.5552,-0.5415,-0.5396,-0.5626,-0.6144,-0.6207,-0.6152,-0.601,-0.6101,-0.6173,-0.6213,-0.6203,-0.623,-0.6321,-0.6244,-0.624,-0.6261,-0.6274,-0.6038,-0.501,-0.3752,-0.2812,-0.2656,-0.2657,-0.2659,-0.2657,-0.1486,-0.0,-0.0,-0.0,-0.0,-0.0,-0.0,-0.0,-0.0,-0.0,-0.0,-0.0,-0.0,-0.0,-2.0576,-2.0576,-2.0576,-2.0576,-2.0576,-2.0576,-2.0576,-2.0557,-2.0361,-2.0166,-1.9971,-1.9736,-1.9629,-1.9609,-1.9385,-1.9277,-1.9277,-1.9277,-1.9277,-1.9277,-1.9277,-1.9277,-1.9277,-1.9277,-1.918,-1.8994,-1.8994,-1.8252,-1.6928,-1.5956,-1.4929,-1.3688,-1.2739,-1.2305,-1.2305,-1.2305,-1.2305,-1.2305,-1.2305,-1.2305,-1.2305,-1.2305,-1.2305,-1.2305,-1.2305,-1.2305,-1.2298,-1.2178,-1.2195,-1.2281,-1.1846,-1.1397,-1.1009,-1.0868,-1.0722,-1.0638,-1.0618,-1.0618,-1.0618,-1.0618,-1.0618,-1.0618,-1.0618,-1.0428,-1.0047,-0.9983,-0.9652,-0.8812,-0.8678,-0.8484,-0.8091,-0.7632,-0.7274,-0.703,-0.6611,-0.6153,-0.5814,-0.5673,-0.5772,-0.6166,-0.6293,-0.6232,-0.6152,-0.6217,-0.6261,-0.6261,-0.6261,-0.6261,-0.6261,-0.6261,-0.6261,-0.6261,-0.6264,-0.6271,-0.6274,-0.5562,-0.4854,-0.4859,-0.4859,-0.4859,-0.4859,-0.3837,-0.2974,-0.1954,-0.172,-0.1721,-0.1643,-0.0,-0.0,-0.0,-0.0,-0.0,-0.0,-0.0,-0.0,-2.0576,-2.0576,-2.0576,-2.0576,-2.0576,-2.0576,-2.0576,-2.0576,-2.0566,-2.0576,-2.0518,-2.0205,-2.0059,-2.0029,-1.9717,-1.958,-1.957,-1.958,-1.958,-1.958,-1.958,-1.957,-1.958,-1.957,-1.9521,-1.9443,-1.9424,-1.8826,-1.7642,-1.6628,-1.5445,-1.4129,-1.331,-1.2872,-1.2592,-1.2418,-1.2271,-1.2298,-1.2305,-1.2305,-1.2305,-1.2305,-1.2305,-1.2305,-1.2305,-1.2305,-1.2305,-1.2305,-1.2278,-1.2305,-1.2074,-1.174,-1.1229,-1.1069,-1.0895,-1.0681,-1.0595,-1.0618,-1.0618,-1.0618,-1.0618,-1.0618,-1.0618,-1.0618,-1.0618,-1.0618,-1.0364,-0.9722,-0.9594,-0.9332,-0.8753,-0.8473,-0.8433,-0.8606,-0.7912,-0.7185,-0.6576,-0.6166,-0.6211,-0.6622,-0.6489,-0.6318,-0.6257,-0.6261,-0.6261,-0.6261,-0.6261,-0.6261,-0.6261,-0.6261,-0.6261,-0.6261,-0.6261,-0.6264,-0.6271,-0.6271,-0.6197,-0.6285,-0.6207,-0.6126,-0.6126,-0.6207,-0.573,-0.4144,-0.3832,-0.3832,-0.3675,-0.2737,-0.0,-0.0,-0.0,-0.0,-0.0,-0.0,-0.0,-2.0576,-2.0576,-2.0576,-2.0576,-2.0576,-2.0576,-2.0576,-2.0576,-2.0576,-2.0576,-2.0557,-2.0595,-2.0488,-2.0585,-2.0439,-2.041,-2.041,-2.0439,-2.042,-2.041,-2.0449,-2.0526,-2.041,-2.043,-2.0234,-1.9893,-1.9853,-1.9564,-1.8991,-1.7642,-1.6321,-1.5196,-1.495,-1.4386,-1.3513,-1.2687,-1.233,-1.2298,-1.2305,-1.2305,-1.2305,-1.2305,-1.2305,-1.2305,-1.2305,-1.2305,-1.2305,-1.2305,-1.2291,-1.2325,-1.2254,-1.209,-1.1814,-1.1364,-1.1061,-1.0949,-1.0715,-1.0618,-1.0618,-1.0618,-1.0618,-1.0618,-1.0618,-1.0618,-1.0618,-1.0618,-1.0618,-1.0428,-1.0434,-1.0364,-1.0314,-0.986,-0.9548,-0.9653,-0.9141,-0.8597,-0.787,-0.6861,-0.6753,-0.7999,-0.6984,-0.629,-0.6254,-0.6261,-0.6261,-0.6261,-0.6261,-0.6261,-0.6261,-0.6261,-0.6261,-0.6261,-0.6261,-0.6261,-0.6261,-0.6261,-0.6264,-0.6264,-0.6264,-0.6264,-0.6268,-0.6274,-0.6119,-0.564,-0.5727,-0.5652,-0.5733,-0.5659,-0.4784,-0.3205,-0.2813,-0.2813,-0.2578,-0.1642,-0.0,-2.0576,-2.0576,-2.0576,-2.0576,-2.0576,-2.0576,-2.0576,-2.0576,-2.0576,-2.0576,-2.0576,-2.0576,-2.0576,-2.0576,-2.0576,-2.0576,-2.0576,-2.0576,-2.0576,-2.0576,-2.0576,-2.0576,-2.0576,-2.0576,-2.0459,-2.0312,-2.0303,-2.0078,-1.9367,-1.7478,-1.5771,-1.4749,-1.3908,-1.331,-1.2872,-1.2462,-1.2601,-1.3084,-1.2583,-1.2583,-1.3018,-1.2592,-1.2305,-1.2305,-1.2305,-1.2305,-1.2305,-1.2305,-1.2305,-1.2298,-1.2278,-1.2202,-1.1877,-1.1706,-1.1505,-1.1256,-1.0975,-1.0742,-1.0631,-1.0618,-1.0618,-1.0618,-1.0618,-1.0618,-1.0618,-1.0618,-1.0618,-1.0618,-1.0624,-1.0685,-1.0788,-1.0587,-1.0581,-1.0823,-1.0296,-0.9739,-0.9383,-0.8623,-0.825,-0.8231,-0.7107,-0.6314,-0.6254,-0.6261,-0.6261,-0.6261,-0.6261,-0.6261,-0.6261,-0.6261,-0.6261,-0.6261,-0.6261,-0.6261,-0.6261,-0.6261,-0.6261,-0.6261,-0.6261,-0.6261,-0.6261,-0.6264,-0.6268,-0.6268,-0.6271,-0.6274,-0.6193,-0.6281,-0.5886,-0.4932,-0.4937,-0.5018,-0.5018,-0.4309,-0.3368,-2.0576,-2.0576,-2.0576,-2.0576,-2.0576,-2.0576,-2.0576,-2.0576,-2.0576,-2.0576,-2.0576,-2.0576,-2.0576,-2.0576,-2.0576,-2.0576,-2.0576,-2.0576,-2.0576,-2.0576,-2.0576,-2.0576,-2.0576,-2.0576,-2.0576,-2.0576,-2.0566,-2.0332,-1.9723,-1.7898,-1.6314,-1.5446,-1.4398,-1.3723,-1.3498,-1.323,-1.3452,-1.4083,-1.3845,-1.3932,-1.4027,-1.3455,-1.2879,-1.2378,-1.2305,-1.2305,-1.2305,-1.2305,-1.2305,-1.2305,-1.2305,-1.2211,-1.2004,-1.1911,-1.1737,-1.1443,-1.1156,-1.0902,-1.0617,-1.0601,-1.0618,-1.0618,-1.0618,-1.0618,-1.0575,-1.0635,-1.0675,-1.0688,-1.0748,-1.0895,-1.0955,-1.1136,-1.143,-1.1817,-1.1266,-1.0918,-1.0812,-1.036,-0.9687,-0.8702,-0.7257,-0.6325,-0.6254,-0.6261,-0.6261,-0.6261,-0.6261,-0.6261,-0.6261,-0.6261,-0.6261,-0.6261,-0.6261,-0.6261,-0.6261,-0.6261,-0.6261,-0.6261,-0.6261,-0.6261,-0.6261,-0.6261,-0.6261,-0.6264,-0.6261,-0.6261,-0.6264,-0.6271,-0.6291,-0.6281,-0.621,-0.6224,-0.6038,-0.6129,-0.5572,-2.0576,-2.0576,-2.0576,-2.0576,-2.0576,-2.0576,-2.0576,-2.0576,-2.0576,-2.0576,-2.0576,-2.0576,-2.0576,-2.0576,-2.0576,-2.0576,-2.0576,-2.0576,-2.0576,-2.0576,-2.0576,-2.0576,-2.0576,-2.0576,-2.0576,-2.0576,-2.0566,-2.0361,-1.9932,-1.9325,-1.8899,-1.828,-1.753,-1.7088,-1.6114,-1.5261,-1.506,-1.5226,-1.6581,-1.6839,-1.5346,-1.5021,-1.4091,-1.2666,-1.2378,-1.2445,-1.2291,-1.2298,-1.2298,-1.2305,-1.2298,-1.2278,-1.2251,-1.2017,-1.1757,-1.1456,-1.1176,-1.0923,-1.064,-1.058,-1.0638,-1.0624,-1.0645,-1.0631,-1.0678,-1.0835,-1.0969,-1.0975,-1.1209,-1.1283,-1.1142,-1.147,-1.1848,-1.1891,-1.2118,-1.2111,-1.215,-1.1938,-1.1172,-0.9463,-0.76,-0.6531,-0.6331,-0.6261,-0.6261,-0.6261,-0.6261,-0.6261,-0.6261,-0.6261,-0.6261,-0.6261,-0.6261,-0.6261,-0.6261,-0.6261,-0.6261,-0.6268,-0.6274,-0.6278,-0.6264,-0.6261,-0.6271,-0.6285,-0.6322,-0.6325,-0.6281,-0.6278,-0.6312,-0.6322,-0.6332,-0.6332,-0.6329,-0.6291,-0.5964,-2.0576,-2.0576,-2.0576,-2.0576,-2.0576,-2.0576,-2.0576,-2.0576,-2.0576,-2.0576,-2.0576,-2.0576,-2.0576,-2.0576,-2.0576,-2.0576,-2.0576,-2.0576,-2.0576,-2.0576,-2.0576,-2.0576,-2.0576,-2.0576,-2.0576,-2.0576,-2.0566,-2.0488,-2.0226,-1.9355,-1.8564,-1.8008,-1.7081,-1.6262,-1.5737,-1.5401,-1.547,-1.6149,-1.7399,-1.7399,-1.6167,-1.5517,-1.4807,-1.4235,-1.4163,-1.3569,-1.2332,-1.2326,-1.2294,-1.2317,-1.2324,-1.2291,-1.2285,-1.2204,-1.2011,-1.1744,-1.161,-1.1315,-1.0744,-1.0751,-1.0748,-1.0658,-1.0735,-1.0842,-1.0882,-1.1096,-1.1269,-1.1323,-1.1536,-1.163,-1.1623,-1.1757,-1.1944,-1.2124,-1.2231,-1.2325,-1.2297,-1.2263,-1.149,-0.9609,-0.8062,-0.708,-0.6483,-0.6261,-0.6261,-0.6261,-0.6261,-0.6261,-0.6261,-0.6261,-0.6261,-0.6261,-0.6264,-0.6373,-0.6393,-0.6308,-0.6264,-0.6291,-0.6315,-0.638,-0.6396,-0.6478,-0.6512,-0.6502,-0.6498,-0.6491,-0.6481,-0.6485,-0.6488,-0.6498,-0.6502,-0.6437,-0.6413,-0.6407,-0.6356,-2.0576,-2.0576,-2.0576,-2.0576,-2.0576,-2.0576,-2.0576,-2.0576,-2.0576,-2.0576,-2.0576,-2.0576,-2.0576,-2.0576,-2.0576,-2.0576,-2.0576,-2.0576,-2.0576,-2.0576,-2.0576,-2.0576,-2.0576,-2.0576,-2.0576,-2.0576,-2.0576,-2.0576,-2.0518,-1.9496,-1.8835,-1.849,-1.7286,-1.6597,-1.6334,-1.6166,-1.645,-1.7079,-1.7693,-1.7693,-1.701,-1.6437,-1.6079,-1.6088,-1.6088,-1.5196,-1.3368,-1.327,-1.3272,-1.3223,-1.3245,-1.3121,-1.2806,-1.2445,-1.2218,-1.2031,-1.1989,-1.1703,-1.1261,-1.1182,-1.1056,-1.0947,-1.1081,-1.1129,-1.1156,-1.1403,-1.155,-1.1623,-1.183,-1.2011,-1.2011,-1.2011,-1.2091,-1.2271,-1.2305,-1.2318,-1.2311,-1.2263,-1.1665,-1.0511,-0.917,-0.7936,-0.7022,-0.6872,-0.6644,-0.6416,-0.6261,-0.6261,-0.6261,-0.6261,-0.6288,-0.6318,-0.6417,-0.641,-0.6502,-0.6491,-0.6461,-0.6478,-0.6474,-0.6525,-0.6566,-0.6661,-0.6715,-0.6709,-0.6709,-0.6702,-0.6702,-0.6705,-0.6709,-0.6712,-0.6661,-0.659,-0.6566,-0.6549,-0.6502,-2.0576,-2.0576,-2.0576,-2.0576,-2.0576,-2.0576,-2.0576,-2.0576,-2.0576,-2.0576,-2.0576,-2.0576,-2.0576,-2.0576,-2.0576,-2.0576,-2.0576,-2.0576,-2.0576,-2.0576,-2.0576,-2.0576,-2.0576,-2.0576,-2.0576,-2.0576,-2.0576,-2.0576,-2.0547,-2.0099,-1.9781,-1.9671,-1.8846,-1.8299,-1.8472,-1.7908,-1.7852,-1.794,-1.7959,-1.7949,-1.8008,-1.7794,-1.7725,-1.7794,-1.7794,-1.6991,-1.528,-1.5215,-1.5121,-1.4993,-1.5001,-1.4688,-1.3615,-1.2879,-1.2372,-1.2238,-1.2037,-1.2046,-1.2127,-1.1722,-1.1498,-1.1567,-1.1491,-1.143,-1.1463,-1.1697,-1.187,-1.1911,-1.2091,-1.2278,-1.2271,-1.2265,-1.2265,-1.2298,-1.2305,-1.2305,-1.2325,-1.2304,-1.2241,-1.1828,-1.0441,-0.9003,-0.8165,-0.7783,-0.7557,-0.6949,-0.6718,-0.6718,-0.6725,-0.674,-0.6489,-0.6576,-0.6551,-0.6536,-0.6624,-0.6702,-0.6705,-0.6705,-0.6692,-0.6705,-0.6715,-0.678,-0.6827,-0.6834,-0.6841,-0.6837,-0.6841,-0.6841,-0.6817,-0.681,-0.6763,-0.6749,-0.6719,-0.6698,-0.6678,-2.0576,-2.0576,-2.0576,-2.0576,-2.0576,-2.0576,-2.0576,-2.0576,-2.0576,-2.0576,-2.0576,-2.0576,-2.0576,-2.0576,-2.0576,-2.0576,-2.0576,-2.0576,-2.0576,-2.0576,-2.0576,-2.0576,-2.0576,-2.0576,-2.0576,-2.0576,-2.0576,-2.0576,-2.0547,-2.042,-2.0234,-1.9853,-1.9365,-1.8936,-1.8643,-1.8232,-1.8008,-1.8008,-1.8008,-1.8008,-1.8008,-1.8008,-1.8008,-1.8008,-1.8008,-1.7657,-1.7157,-1.7144,-1.6464,-1.53,-1.5205,-1.4735,-1.3867,-1.3462,-1.2959,-1.2372,-1.2225,-1.2215,-1.2281,-1.1952,-1.172,-1.175,-1.1693,-1.171,-1.1673,-1.1984,-1.2151,-1.2158,-1.2258,-1.2305,-1.2305,-1.2305,-1.2305,-1.2305,-1.2305,-1.2305,-1.2311,-1.2331,-1.2304,-1.214,-1.116,-0.9976,-0.9145,-0.8841,-0.8689,-0.8318,-0.8241,-0.825,-0.8259,-0.7749,-0.7497,-0.7569,-0.7189,-0.7005,-0.7286,-0.7363,-0.7215,-0.713,-0.7041,-0.6858,-0.6868,-0.6895,-0.6936,-0.6956,-0.6963,-0.6966,-0.6973,-0.6966,-0.6946,-0.697,-0.6983,-0.6943,-0.6881,-0.6848,-0.6831,-2.0576,-2.0576,-2.0576,-2.0576,-2.0576,-2.0576,-2.0576,-2.0576,-2.0576,-2.0576,-2.0576,-2.0576,-2.0576,-2.0576,-2.0576,-2.0576,-2.0576,-2.0576,-2.0576,-2.0576,-2.0576,-2.0576,-2.0576,-2.0576,-2.0576,-2.0576,-2.0576,-2.0576,-2.0576,-2.0566,-2.042,-2.0127,-1.9736,-1.9307,-1.8796,-1.8288,-1.8007,-1.8037,-1.8008,-1.8008,-1.8008,-1.8008,-1.8008,-1.8008,-1.8008,-1.8008,-1.8008,-1.8008,-1.7482,-1.6347,-1.5661,-1.5056,-1.472,-1.445,-1.381,-1.3025,-1.2799,-1.2729,-1.2367,-1.2123,-1.2036,-1.1979,-1.2002,-1.2024,-1.1972,-1.2225,-1.2298,-1.2305,-1.2305,-1.2305,-1.2305,-1.2305,-1.2305,-1.2305,-1.2305,-1.2305,-1.2305,-1.2305,-1.2325,-1.2136,-1.1726,-1.0944,-1.019,-0.9895,-0.9669,-0.9453,-0.9367,-0.9418,-0.9386,-0.9061,-0.8918,-0.8783,-0.8677,-0.851,-0.8329,-0.8131,-0.782,-0.7559,-0.7386,-0.7104,-0.701,-0.7037,-0.7075,-0.7068,-0.7071,-0.7061,-0.7065,-0.7082,-0.7082,-0.7136,-0.7139,-0.7082,-0.7004,-0.7007,-0.699,-2.0576,-2.0576,-2.0576,-2.0576,-2.0576,-2.0576,-2.0576,-2.0576,-2.0576,-2.0576,-2.0576,-2.0576,-2.0576,-2.0576,-2.0576,-2.0576,-2.0576,-2.0576,-2.0625,-2.0644,-2.0654,-2.0654,-2.0576,-2.0576,-2.0576,-2.0576,-2.0576,-2.0576,-2.0576,-2.0576,-2.0634,-2.0478,-2.0059,-1.9717,-1.9204,-1.8433,-1.8021,-1.8076,-1.8008,-1.7988,-1.8018,-1.8008,-1.8008,-1.8008,-1.8008,-1.8008,-1.8008,-1.8008,-1.8008,-1.771,-1.6342,-1.5852,-1.621,-1.572,-1.4799,-1.3882,-1.381,-1.331,-1.2652,-1.2471,-1.2391,-1.2291,-1.2231,-1.2305,-1.2271,-1.2278,-1.2305,-1.2305,-1.2305,-1.2305,-1.2305,-1.2305,-1.2305,-1.2305,-1.2305,-1.2305,-1.2305,-1.2305,-1.2311,-1.2311,-1.2224,-1.1948,-1.1085,-1.1022,-1.0598,-1.0177,-1.0092,-1.025,-1.0242,-1.0386,-1.0361,-1.0228,-1.0045,-0.9667,-0.9388,-0.9229,-0.8909,-0.8827,-0.8404,-0.788,-0.7267,-0.721,-0.7139,-0.7139,-0.7228,-0.7139,-0.7139,-0.7139,-0.7139,-0.7139,-0.7139,-0.7139,-0.7126,-0.7102,-0.7088,-2.0576,-2.0576,-2.0576,-2.0576,-2.0576,-2.0576,-2.0576,-2.0576,-2.0576,-2.0576,-2.0576,-2.0576,-2.0576,-2.0576,-2.0576,-2.0576,-2.0576,-2.0576,-2.0781,-2.1035,-2.1064,-2.085,-2.0625,-2.0576,-2.0576,-2.0576,-2.0576,-2.0576,-2.0576,-2.0576,-2.0576,-2.0547,-2.0166,-1.9883,-1.9594,-1.8632,-1.8233,-1.8356,-1.812,-1.8045,-1.8008,-1.8027,-1.8008,-1.8008,-1.8008,-1.8008,-1.8008,-1.8008,-1.8018,-1.7998,-1.7617,-1.7001,-1.6636,-1.6349,-1.579,-1.5021,-1.4736,-1.4378,-1.36,-1.331,-1.3018,-1.2378,-1.2519,-1.2305,-1.2305,-1.2305,-1.2305,-1.2305,-1.2305,-1.2305,-1.2305,-1.2305,-1.2305,-1.2305,-1.2325,-1.2331,-1.2325,-1.2305,-1.2305,-1.2325,-1.2505,-1.2447,-1.2348,-1.2318,-1.2272,-1.207,-1.1975,-1.2043,-1.1854,-1.1607,-1.1586,-1.1222,-1.0958,-1.066,-1.0413,-1.025,-1.0168,-1.0163,-0.9648,-0.8948,-0.8165,-0.7394,-0.7228,-0.7139,-0.7404,-0.7489,-0.7228,-0.7139,-0.7139,-0.7139,-0.7139,-0.7139,-0.7139,-0.7126,-0.7122,-2.0732,-2.0576,-2.0576,-2.0576,-2.0576,-2.0576,-2.0576,-2.0576,-2.0576,-2.0576,-2.0576,-2.0576,-2.0576,-2.0576,-2.0576,-2.0576,-2.0576,-2.0576,-2.081,-2.1211,-2.1416,-2.126,-2.0947,-2.085,-2.0752,-2.0576,-2.0576,-2.0576,-2.0576,-2.0576,-2.0576,-2.0537,-2.0312,-2.0107,-1.9883,-1.9293,-1.8762,-1.8883,-1.8634,-1.8569,-1.8555,-1.835,-1.8281,-1.8223,-1.8125,-1.8008,-1.8008,-1.8008,-1.8008,-1.8008,-1.794,-1.7725,-1.7285,-1.7217,-1.6793,-1.5869,-1.5799,-1.5376,-1.4593,-1.4314,-1.4099,-1.3665,-1.352,-1.3055,-1.2604,-1.2625,-1.2813,-1.2372,-1.2305,-1.2305,-1.2305,-1.2305,-1.2305,-1.2318,-1.2412,-1.2472,-1.2322,-1.2417,-1.2559,-1.2672,-1.2826,-1.2946,-1.3017,-1.312,-1.3186,-1.3141,-1.3054,-1.3187,-1.3172,-1.289,-1.2702,-1.2404,-1.2349,-1.2196,-1.1895,-1.1643,-1.1386,-1.13,-1.0869,-1.0173,-0.9447,-0.842,-0.8428,-0.8341,-0.8093,-0.7826,-0.78,-0.7541,-0.7139,-0.7139,-0.7139,-0.7132,-0.7129,-0.7139,-0.7139,-2.0977,-2.0576,-2.0576,-2.0576,-2.0576,-2.0576,-2.0576,-2.0576,-2.0576,-2.0576,-2.0576,-2.0576,-2.0576,-2.0576,-2.0576,-2.0576,-2.0576,-2.0576,-2.0908,-2.1357,-2.1758,-2.1836,-2.1455,-2.1211,-2.1006,-2.0732,-2.0615,-2.0576,-2.0576,-2.0576,-2.0576,-2.0557,-2.0537,-2.0361,-2.0127,-1.9905,-1.9756,-1.9414,-1.9263,-1.9175,-1.9111,-1.8857,-1.8711,-1.8672,-1.8447,-1.8144,-1.8066,-1.8027,-1.8086,-1.8008,-1.8008,-1.794,-1.794,-1.794,-1.7579,-1.6922,-1.6706,-1.6358,-1.5517,-1.5376,-1.5234,-1.5013,-1.5021,-1.4625,-1.3504,-1.3628,-1.3528,-1.282,-1.2526,-1.2445,-1.2305,-1.2305,-1.2264,-1.2317,-1.2599,-1.2636,-1.2639,-1.2722,-1.299,-1.3259,-1.3299,-1.3253,-1.326,-1.3287,-1.3327,-1.354,-1.3614,-1.3661,-1.3714,-1.3592,-1.3529,-1.3665,-1.3691,-1.3893,-1.347,-1.3118,-1.2772,-1.251,-1.1997,-1.1455,-1.1107,-1.0419,-1.0368,-1.0019,-0.915,-0.8785,-0.8721,-0.8328,-0.7581,-0.7239,-0.7274,-0.7145,-0.7109,-0.7129,-0.7139,-2.0977,-2.0576,-2.0576,-2.0576,-2.0576,-2.0576,-2.0576,-2.0576,-2.0576,-2.0576,-2.0576,-2.0576,-2.0576,-2.0576,-2.0576,-2.0576,-2.0576,-2.0625,-2.0967,-2.1797,-2.2549,-2.2588,-2.2119,-2.1582,-2.1201,-2.1006,-2.0713,-2.0586,-2.0576,-2.0576,-2.0576,-2.0576,-2.0566,-2.0518,-2.043,-2.0361,-2.0215,-1.9853,-1.9681,-1.9535,-1.9385,-1.9248,-1.9131,-1.9102,-1.9004,-1.8627,-1.8206,-1.8327,-1.834,-1.8105,-1.8008,-1.8008,-1.8008,-1.8008,-1.7862,-1.7716,-1.7569,-1.7217,-1.6507,-1.6289,-1.6,-1.5446,-1.5446,-1.5259,-1.538,-1.4887,-1.4553,-1.392,-1.355,-1.3091,-1.2519,-1.2305,-1.233,-1.2408,-1.2643,-1.305,-1.3466,-1.3333,-1.3358,-1.3632,-1.3622,-1.3554,-1.3486,-1.3748,-1.3814,-1.3881,-1.3915,-1.3975,-1.4008,-1.4041,-1.4062,-1.4088,-1.4088,-1.4088,-1.3997,-1.3646,-1.347,-1.3294,-1.2863,-1.2681,-1.2318,-1.1752,-1.1343,-1.0653,-0.9839,-0.9687,-0.974,-0.8849,-0.8098,-0.7785,-0.7573,-0.7532,-0.7497,-0.74,-0.7544,-2.1152,-2.0586,-2.0576,-2.0576,-2.0576,-2.0576,-2.0576,-2.0576,-2.0576,-2.0576,-2.0576,-2.0576,-2.0576,-2.0576,-2.0576,-2.0576,-2.0635,-2.0801,-2.1113,-2.1699,-2.2383,-2.2578,-2.2256,-2.1787,-2.1455,-2.1211,-2.0781,-2.0586,-2.0576,-2.0576,-2.0576,-2.0576,-2.0576,-2.0566,-2.0576,-2.0576,-2.0449,-2.0273,-2.0129,-2.0078,-1.9902,-1.9678,-1.9443,-1.9326,-1.9277,-1.9049,-1.8691,-1.855,-1.8356,-1.8133,-1.8037,-1.8018,-1.8008,-1.8008,-1.8008,-1.8008,-1.8008,-1.7862,-1.7354,-1.7217,-1.7079,-1.6507,-1.6515,-1.6394,-1.636,-1.6035,-1.5534,-1.4832,-1.4394,-1.4027,-1.3105,-1.2614,-1.2585,-1.2656,-1.2921,-1.3473,-1.3899,-1.3689,-1.3575,-1.396,-1.3953,-1.3834,-1.3928,-1.4021,-1.4035,-1.3981,-1.3988,-1.4041,-1.4041,-1.4068,-1.4075,-1.4088,-1.4088,-1.4088,-1.4088,-1.3997,-1.3997,-1.3822,-1.3737,-1.3548,-1.34,-1.2702,-1.194,-1.1385,-1.093,-1.0659,-1.0524,-0.9548,-0.8869,-0.879,-0.8687,-0.8301,-0.8271,-0.8607,-0.8845,-2.1309,-2.0576,-2.0576,-2.0576,-2.0576,-2.0576,-2.0576,-2.0576,-2.0576,-2.0576,-2.0576,-2.0576,-2.0576,-2.0576,-2.0576,-2.0576,-2.0684,-2.0996,-2.1269,-2.1406,-2.206,-2.2197,-2.1953,-2.1748,-2.1514,-2.1201,-2.0781,-2.0586,-2.0576,-2.0576,-2.0576,-2.0576,-2.0576,-2.0576,-2.0576,-2.0576,-2.0547,-2.0498,-2.0488,-2.0488,-2.0439,-2.0156,-1.9853,-1.9668,-1.96,-1.9615,-1.9375,-1.9111,-1.8657,-1.8251,-1.8211,-1.8163,-1.8174,-1.8037,-1.8008,-1.8008,-1.8008,-1.793,-1.7862,-1.7872,-1.7862,-1.8008,-1.794,-1.7579,-1.7001,-1.6793,-1.6358,-1.5762,-1.5221,-1.4936,-1.4133,-1.3895,-1.3549,-1.3488,-1.3746,-1.394,-1.3954,-1.3872,-1.3917,-1.3968,-1.4072,-1.3988,-1.4015,-1.4075,-1.4082,-1.4088,-1.4088,-1.4088,-1.4088,-1.4088,-1.4088,-1.4088,-1.4088,-1.4088,-1.4088,-1.4088,-1.4088,-1.4088,-1.4088,-1.4035,-1.3995,-1.3374,-1.2726,-1.266,-1.2288,-1.1823,-1.1242,-1.0426,-0.9968,-0.9927,-0.957,-0.9013,-0.9332,-0.993,-0.9937,-2.1045,-2.0576,-2.0576,-2.0576,-2.0576,-2.0576,-2.0576,-2.0576,-2.0576,-2.0576,-2.0576,-2.0576,-2.0576,-2.0576,-2.0576,-2.0576,-2.0674,-2.0967,-2.1182,-2.126,-2.1738,-2.1875,-2.1728,-2.1533,-2.1318,-2.1152,-2.0801,-2.0576,-2.0576,-2.0576,-2.0576,-2.0576,-2.0576,-2.0576,-2.0576,-2.0576,-2.0576,-2.0576,-2.0576,-2.0576,-2.0537,-2.0459,-2.0361,-2.0215,-2.0205,-2.0269,-2.0177,-1.9925,-1.9457,-1.9127,-1.9111,-1.9062,-1.8877,-1.8408,-1.8144,-1.8125,-1.8144,-1.8174,-1.8154,-1.8076,-1.8027,-1.8008,-1.8086,-1.8076,-1.7783,-1.7705,-1.7366,-1.6677,-1.6045,-1.5682,-1.5471,-1.5407,-1.5518,-1.5335,-1.5061,-1.472,-1.4275,-1.4144,-1.4052,-1.4126,-1.4153,-1.4088,-1.4088,-1.4088,-1.4088,-1.4088,-1.4088,-1.4088,-1.4088,-1.4088,-1.4088,-1.4088,-1.4088,-1.4088,-1.4088,-1.4088,-1.4088,-1.4088,-1.4062,-1.3975,-1.3895,-1.3741,-1.3446,-1.32,-1.2896,-1.2428,-1.1839,-1.1212,-1.0948,-1.071,-1.0229,-0.967,-1.0148,-1.0567,-1.0479,-2.0977,-2.0576,-2.0576,-2.0576,-2.0576,-2.0576,-2.0576,-2.0576,-2.0576,-2.0576,-2.0576,-2.0576,-2.0576,-2.0576,-2.0576,-2.0576,-2.0722,-2.0752,-2.0889,-2.0986,-2.1318,-2.1396,-2.1318,-2.1191,-2.1084,-2.0908,-2.0664,-2.0576,-2.0576,-2.0576,-2.0576,-2.0576,-2.0576,-2.0576,-2.0576,-2.0576,-2.0576,-2.0576,-2.0576,-2.0576,-2.0576,-2.0576,-2.0576,-2.0576,-2.0566,-2.0633,-2.0495,-2.018,-1.9938,-1.989,-1.9507,-1.9316,-1.917,-1.8984,-1.8672,-1.8682,-1.8652,-1.8652,-1.8652,-1.8572,-1.8521,-1.8672,-1.8553,-1.8572,-1.8662,-1.863,-1.8402,-1.7952,-1.7288,-1.6881,-1.6889,-1.6834,-1.6525,-1.6361,-1.6333,-1.5632,-1.4775,-1.4878,-1.4671,-1.4427,-1.4287,-1.423,-1.4088,-1.4088,-1.4088,-1.4088,-1.4088,-1.4088,-1.4088,-1.4088,-1.4088,-1.4088,-1.4088,-1.4088,-1.4088,-1.4088,-1.4088,-1.4088,-1.4075,-1.3981,-1.3941,-1.3848,-1.3701,-1.3446,-1.316,-1.2799,-1.2454,-1.1961,-1.174,-1.1545,-1.122,-1.1024,-1.1059,-1.1182,-1.1152,-2.134,-2.0867,-2.1078,-2.1155,-2.1155,-2.1165,-2.1231,-2.1155,-2.1231,-2.1308,-2.1155,-2.1231,-2.1155,-2.0857,-2.0722,-2.0722,-2.0779,-2.0809,-2.0605,-2.0674,-2.0918,-2.0898,-2.0791,-2.083,-2.0918,-2.0684,-2.0596,-2.0576,-2.0576,-2.0576,-2.0576,-2.0576,-2.0576,-2.0576,-2.0576,-2.0576,-2.0576,-2.0576,-2.0576,-2.0576,-2.0576,-2.0576,-2.0576,-2.0576,-2.0576,-2.0566,-2.0575,-2.0273,-2.0232,-2.0276,-1.9993,-1.958,-1.9551,-1.9541,-1.9541,-1.9521,-1.9404,-1.9297,-1.9238,-1.9117,-1.9039,-1.9131,-1.9238,-1.9268,-1.9146,-1.9141,-1.9209,-1.9141,-1.8777,-1.8267,-1.8238,-1.7929,-1.7796,-1.7726,-1.7686,-1.7268,-1.6427,-1.5978,-1.5621,-1.5231,-1.4678,-1.4378,-1.4405,-1.4088,-1.4088,-1.4088,-1.4088,-1.4088,-1.4088,-1.4088,-1.4088,-1.4088,-1.4088,-1.4088,-1.4088,-1.4088,-1.4088,-1.4088,-1.4088,-1.4041,-1.4048,-1.4041,-1.3874,-1.3707,-1.3407,-1.3066,-1.2826,-1.2579,-1.2241,-1.2081,-1.2257,-1.2123,-1.1827,-1.2012,-1.222,-2.2681,-2.1886,-2.2776,-2.3147,-2.3073,-2.2999,-2.3073,-2.3073,-2.301,-2.3147,-2.2925,-2.2999,-2.2553,-2.1886,-2.1011,-2.1155,-2.1451,-2.1088,-2.0867,-2.0964,-2.082,-2.0762,-2.0644,-2.0596,-2.084,-2.0867,-2.0789,-2.0576,-2.0799,-2.0799,-2.0576,-2.0576,-2.0576,-2.0576,-2.0576,-2.0576,-2.0576,-2.0576,-2.0576,-2.0576,-2.0576,-2.0576,-2.0576,-2.0576,-2.0576,-2.0576,-2.0576,-2.0449,-2.0526,-2.0526,-2.0517,-2.04,-2.042,-2.042,-2.042,-2.0195,-1.9795,-1.9287,-1.9365,-1.9414,-1.935,-1.9566,-1.9889,-1.9892,-1.9693,-1.9434,-1.9434,-1.9297,-1.9451,-1.9514,-1.9601,-1.9813,-2.0004,-1.9643,-1.9113,-1.9277,-1.8949,-1.7518,-1.7147,-1.7025,-1.6754,-1.5477,-1.4727,-1.4412,-1.4088,-1.4088,-1.4088,-1.4088,-1.4088,-1.4088,-1.4088,-1.4088,-1.4088,-1.4088,-1.4088,-1.4088,-1.4088,-1.4088,-1.4088,-1.4088,-1.4088,-1.4088,-1.4082,-1.3888,-1.3601,-1.332,-1.3039,-1.2799,-1.2592,-1.2458,-1.2385,-1.2338,-1.2244,-1.2559,-1.2923,-2.4241,-2.2914,-2.3294,-2.3514,-2.3514,-2.3514,-2.3514,-2.3514,-2.3514,-2.3514,-2.3514,-2.3514,-2.322,-2.2776,-2.2339,-2.2489,-2.2553,-2.1811,-2.1745,-2.1745,-2.1308,-2.0934,-2.1298,-2.1375,-2.1375,-2.1527,-2.1973,-2.2339,-2.1973,-2.1165,-2.0576,-2.0722,-2.0644,-2.0576,-2.0644,-2.0644,-2.0576,-2.0576,-2.0576,-2.0576,-2.0576,-2.0576,-2.0576,-2.0576,-2.0576,-2.0576,-2.0576,-2.0576,-2.0576,-2.0576,-2.0576,-2.0566,-2.0566,-2.0557,-2.0557,-2.0527,-2.0254,-2.0039,-2.0039,-1.999,-1.9961,-2.0075,-2.0381,-2.0345,-2.0095,-1.998,-1.998,-2.0029,-2.0166,-2.0254,-2.0273,-2.0449,-2.0527,-2.0411,-2.0079,-2.0205,-2.0232,-1.9795,-1.8941,-1.8896,-1.8654,-1.7261,-1.5966,-1.5545,-1.4985,-1.4334,-1.425,-1.4166,-1.4166,-1.4088,-1.4088,-1.4088,-1.4088,-1.4088,-1.4088,-1.4088,-1.4088,-1.4088,-1.4088,-1.4088,-1.4088,-1.4088,-1.4088,-1.4088,-1.3915,-1.3607,-1.3273,-1.2993,-1.2766,-1.2585,-1.2418,-1.2432,-1.2465,-1.2599,-1.2919,-2.5652,-2.4253,-2.4253,-2.4253,-2.4264,-2.4241,-2.4253,-2.4253,-2.4325,-2.4325,-2.4181,-2.4097,-2.4036,-2.4036,-2.3745,-2.3452,-2.3745,-2.2861,-2.2925,-2.2702,-2.2264,-2.1886,-2.2178,-2.2403,-2.2403,-2.2403,-2.2936,-2.322,-2.2925,-2.2264,-2.1538,-2.1308,-2.1231,-2.1088,-2.0934,-2.0712,-2.0576,-2.0576,-2.0576,-2.0576,-2.0576,-2.0576,-2.0576,-2.0576,-2.0576,-2.0576,-2.0576,-2.0576,-2.0576,-2.0576,-2.0576,-2.0576,-2.0576,-2.0576,-2.0576,-2.0566,-2.0449,-2.0459,-2.0449,-2.0459,-2.0566,-2.0576,-2.0576,-2.0546,-2.0575,-2.0576,-2.0557,-2.0459,-2.0498,-2.0527,-2.0566,-2.0566,-2.0566,-2.0576,-2.0489,-2.0566,-2.0498,-2.0087,-1.9888,-1.9878,-1.9561,-1.911,-1.7976,-1.7107,-1.6116,-1.4901,-1.4496,-1.4328,-1.4166,-1.4088,-1.4088,-1.4088,-1.4088,-1.4088,-1.4166,-1.4173,-1.4088,-1.4166,-1.4166,-1.4088,-1.4088,-1.4088,-1.4088,-1.4088,-1.4166,-1.3948,-1.3647,-1.328,-1.2939,-1.2859,-1.2766,-1.2659,-1.2665,-1.2799,-1.3073,-2.6452,-2.6302,-2.6233,-2.6151,-2.6164,-2.6302,-2.6233,-2.6013,-2.6164,-2.6082,-2.5861,-2.5441,-2.5358,-2.5569,-2.4624,-2.4253,-2.4862,-2.3818,-2.3745,-2.3588,-2.3368,-2.322,-2.3368,-2.3368,-2.3368,-2.3441,-2.3891,-2.3891,-2.3588,-2.3734,-2.3294,-2.322,-2.2414,-2.2038,-2.1628,-2.1064,-2.0884,-2.0904,-2.1011,-2.0867,-2.0789,-2.0712,-2.0722,-2.0644,-2.0576,-2.0576,-2.0576,-2.0576,-2.0576,-2.0576,-2.0576,-2.0576,-2.0576,-2.0576,-2.0576,-2.0576,-2.0576,-2.0576,-2.0576,-2.0576,-2.0576,-2.0576,-2.0576,-2.0576,-2.0576,-2.0576,-2.0576,-2.0576,-2.0576,-2.0576,-2.0576,-2.0576,-2.0576,-2.0576,-2.0576,-2.0576,-2.0576,-2.0576,-2.0449,-2.0508,-2.0284,-1.9762,-1.9534,-1.8559,-1.7253,-1.5959,-1.5061,-1.4894,-1.425,-1.4088,-1.4088,-1.4088,-1.4088,-1.4173,-1.4166,-1.425,-1.425,-1.4412,-1.4573,-1.4334,-1.4088,-1.4173,-1.4817,-1.4412,-1.4573,-1.43,-1.4015,-1.3756,-1.3474,-1.3247,-1.3113,-1.2973,-1.3026,-1.32,-1.3494,-2.6521,-2.6521,-2.6521,-2.6521,-2.6521,-2.6521,-2.6521,-2.6521,-2.6521,-2.6521,-2.6465,-2.6164,-2.6164,-2.6164,-2.5943,-2.5511,-2.5734,-2.485,-2.4838,-2.4696,-2.4325,-2.3963,-2.412,-2.442,-2.442,-2.4552,-2.4909,-2.5346,-2.5429,-2.5134,-2.5358,-2.4921,-2.3734,-2.3147,-2.2499,-2.1657,-2.1411,-2.2157,-2.2274,-2.2124,-2.1517,-2.1441,-2.1221,-2.0644,-2.0576,-2.0576,-2.0576,-2.0576,-2.0576,-2.0576,-2.0576,-2.0576,-2.0576,-2.0576,-2.0576,-2.0576,-2.0576,-2.0576,-2.0576,-2.0576,-2.0576,-2.0576,-2.0576,-2.0576,-2.0576,-2.0576,-2.0576,-2.0576,-2.0576,-2.0576,-2.0576,-2.0576,-2.0576,-2.0576,-2.0576,-2.0576,-2.0576,-2.0576,-2.0576,-2.0576,-2.0566,-2.0342,-2.0177,-1.9923,-1.8541,-1.709,-1.6273,-1.5462,-1.4901,-1.4496,-1.458,-1.4657,-1.4657,-1.4901,-1.4977,-1.4734,-1.4412,-1.4734,-1.5054,-1.4901,-1.4908,-1.5876,-1.6198,-1.5628,-1.5054,-1.513,-1.4935,-1.4302,-1.3973,-1.3649,-1.3394,-1.3253,-1.3387,-1.3581,-1.3794,-2.6521,-2.6521,-2.6521,-2.6521,-2.6521,-2.6521,-2.6521,-2.6521,-2.6521,-2.6521,-2.6521,-2.6521,-2.6521,-2.6521,-2.6452,-2.6383,-2.6245,-2.5804,-2.5955,-2.5721,-2.5276,-2.4921,-2.5217,-2.5441,-2.5441,-2.5664,-2.6025,-2.6383,-2.6302,-2.6452,-2.6314,-2.5873,-2.5205,-2.448,-2.357,-2.2513,-2.2218,-2.3194,-2.4107,-2.3553,-2.2692,-2.2403,-2.2253,-2.1527,-2.1385,-2.0854,-2.071,-2.0566,-2.0576,-2.0576,-2.0576,-2.0576,-2.0576,-2.0576,-2.0576,-2.0566,-2.0566,-2.0566,-2.0576,-2.0576,-2.0576,-2.0576,-2.0576,-2.0576,-2.0576,-2.0576,-2.0576,-2.0576,-2.0576,-2.0576,-2.0576,-2.0576,-2.0576,-2.0576,-2.0576,-2.0576,-2.0576,-2.0576,-2.0576,-2.0576,-2.0566,-2.0566,-2.0479,-2.0323,-1.9432,-1.806,-1.709,-1.6445,-1.6034,-1.5636,-1.556,-1.556,-1.556,-1.5794,-1.6034,-1.5876,-1.5711,-1.5876,-1.6116,-1.5959,-1.6116,-1.7009,-1.7334,-1.6527,-1.6198,-1.6198,-1.6011,-1.5726,-1.4828,-1.3904,-1.3851,-1.3818,-1.3667,-1.3841,-1.3881,-2.6521,-2.6521,-2.6521,-2.6521,-2.6521,-2.6521,-2.6521,-2.6521,-2.6521,-2.6521,-2.6521,-2.6521,-2.6521,-2.6521,-2.6521,-2.6521,-2.6452,-2.6383,-2.6383,-2.6233,-2.6082,-2.6245,-2.6314,-2.6233,-2.6164,-2.6383,-2.6521,-2.6521,-2.6521,-2.6521,-2.6521,-2.6521,-2.6013,-2.5652,-2.4921,-2.3952,-2.3503,-2.3824,-2.5453,-2.4877,-2.3858,-2.3441,-2.3305,-2.285,-2.2328,-2.1728,-2.0757,-2.112,-2.1221,-2.1165,-2.1165,-2.1165,-2.1088,-2.0857,-2.0789,-2.0779,-2.0634,-2.0566,-2.0576,-2.0576,-2.0576,-2.0576,-2.0576,-2.0576,-2.0576,-2.0576,-2.0576,-2.0576,-2.0576,-2.0576,-2.0576,-2.0576,-2.0576,-2.0576,-2.0576,-2.0576,-2.0576,-2.0576,-2.0576,-2.0576,-2.0576,-2.0566,-2.0566,-2.0489,-2.0001,-1.9036,-1.7989,-1.7342,-1.6927,-1.6609,-1.6453,-1.637,-1.6288,-1.6772,-1.7009,-1.709,-1.7098,-1.7172,-1.7172,-1.6927,-1.709,-1.7658,-1.7658,-1.7334,-1.7253,-1.7334,-1.7253,-1.7163,-1.6106,-1.5083,-1.4657,-1.4539,-1.428,-1.4203,-1.4364,-2.6521,-2.6521,-2.6521,-2.6521,-2.6521,-2.6521,-2.6521,-2.6521,-2.6521,-2.6521,-2.6521,-2.6521,-2.6521,-2.6521,-2.6521,-2.6521,-2.6521,-2.6521,-2.6521,-2.6521,-2.6521,-2.6452,-2.6521,-2.6521,-2.6521,-2.6521,-2.6521,-2.6521,-2.6521,-2.6521,-2.6521,-2.6521,-2.6452,-2.6314,-2.6025,-2.5569,-2.5499,-2.5594,-2.6095,-2.5871,-2.4659,-2.4492,-2.4192,-2.3661,-2.3209,-2.2348,-2.1207,-2.187,-2.2264,-2.2467,-2.2478,-2.2339,-2.2188,-2.1962,-2.1517,-2.1364,-2.1145,-2.0566,-2.0576,-2.0576,-2.0576,-2.0644,-2.0566,-2.0566,-2.0576,-2.0576,-2.0576,-2.0576,-2.0576,-2.0576,-2.0576,-2.0576,-2.0576,-2.0576,-2.0576,-2.0576,-2.0576,-2.0576,-2.0576,-2.0576,-2.0576,-2.0576,-2.0576,-2.0576,-2.0245,-1.9923,-1.8948,-1.8069,-1.7577,-1.7253,-1.7017,-1.7017,-1.7098,-1.7666,-1.8069,-1.806,-1.823,-1.839,-1.823,-1.798,-1.8221,-1.8541,-1.8621,-1.8541,-1.847,-1.839,-1.839,-1.8141,-1.7253,-1.6437,-1.6281,-1.5711,-1.5289,-1.5199,-1.5282,-2.6521,-2.6521,-2.6521,-2.6521,-2.6521,-2.6521,-2.6521,-2.6521,-2.6521,-2.6521,-2.6521,-2.6521,-2.6521,-2.6521,-2.6521,-2.6521,-2.6521,-2.6521,-2.6521,-2.6521,-2.6521,-2.6521,-2.6521,-2.6521,-2.6521,-2.6521,-2.6521,-2.6521,-2.6521,-2.6521,-2.6521,-2.6521,-2.6521,-2.6452,-2.6383,-2.6383,-2.6302,-2.6314,-2.6389,-2.6226,-2.5652,-2.5441,-2.5217,-2.4696,-2.423,-2.3609,-2.31,-2.3274,-2.3847,-2.4061,-2.3954,-2.361,-2.3294,-2.2999,-2.2553,-2.2253,-2.2038,-2.1359,-2.0827,-2.1562,-2.1456,-2.0708,-2.0653,-2.0566,-2.0576,-2.0576,-2.0576,-2.0576,-2.0576,-2.0576,-2.0576,-2.0576,-2.0576,-2.0576,-2.0576,-2.0576,-2.0576,-2.0576,-2.0576,-2.0576,-2.0576,-2.0576,-2.0576,-2.0576,-2.0489,-2.0245,-1.9913,-1.9107,-1.839,-1.831,-1.8149,-1.8149,-1.831,-1.8868,-1.9195,-1.9116,-1.9274,-1.9529,-1.9283,-1.8948,-1.9274,-1.959,-1.9668,-1.9756,-1.9599,-1.9441,-1.9362,-1.9036,-1.855,-1.839,-1.847,-1.7658,-1.6519,-1.6273,-1.6273,-2.6521,-2.6521,-2.6521,-2.6521,-2.6521,-2.6402,-2.6458,-2.6521,-2.6521,-2.6521,-2.6521,-2.6521,-2.6521,-2.6521,-2.6521,-2.6521,-2.6521,-2.6521,-2.6521,-2.6521,-2.6521,-2.6521,-2.6521,-2.6521,-2.6521,-2.6521,-2.6521,-2.6521,-2.6521,-2.6521,-2.6521,-2.6521,-2.6521,-2.6521,-2.6521,-2.6521,-2.6521,-2.6521,-2.6452,-2.6383,-2.6164,-2.6233,-2.6164,-2.5791,-2.5346,-2.5372,-2.4969,-2.4825,-2.5121,-2.5095,-2.4807,-2.4066,-2.3672,-2.3588,-2.3514,-2.3441,-2.3294,-2.2284,-2.1586,-2.2561,-2.2776,-2.1931,-2.1161,-2.0847,-2.0576,-2.0576,-2.0576,-2.0576,-2.0576,-2.0576,-2.0576,-2.0576,-2.0576,-2.0576,-2.0576,-2.0576,-2.0576,-2.0576,-2.0576,-2.0576,-2.0576,-2.0576,-2.0576,-2.0576,-2.0576,-2.0489,-2.0323,-2.0245,-1.9678,-1.9766,-1.9678,-1.9756,-1.9923,-2.0245,-2.0245,-1.9923,-1.9923,-2.001,-2.0167,-2.0079,-2.0323,-2.0323,-2.0245,-2.0245,-2.0489,-2.0411,-2.0089,-2.0089,-2.0245,-2.0167,-1.9766,-1.9036,-1.7658,-1.7415,-1.7415,-2.6521,-2.6521,-2.6521,-2.6521,-2.6389,-2.6013,-2.6063,-2.6496,-2.6521,-2.6521,-2.6521,-2.6521,-2.6521,-2.6521,-2.6521,-2.6521,-2.6521,-2.6521,-2.6521,-2.6521,-2.6521,-2.6521,-2.6521,-2.6521,-2.6521,-2.6521,-2.6521,-2.6521,-2.6521,-2.6521,-2.6521,-2.6521,-2.6521,-2.6521,-2.6521,-2.6521,-2.6521,-2.6521,-2.6521,-2.6521,-2.6521,-2.6521,-2.6521,-2.6314,-2.6164,-2.6206,-2.6042,-2.5889,-2.6012,-2.5963,-2.5926,-2.5569,-2.5652,-2.4992,-2.4409,-2.3588,-2.343,-2.3205,-2.2875,-2.3194,-2.3666,-2.379,-2.3238,-2.1735,-2.1155,-2.0799,-2.0789,-2.0944,-2.1011,-2.1088,-2.1165,-2.1088,-2.1088,-2.1088,-2.1058,-2.0854,-2.0767,-2.0564,-2.0574,-2.0653,-2.0663,-2.0722,-2.0722,-2.0576,-2.0576,-2.0576,-2.0576,-2.0576,-2.0576,-2.0576,-2.0576,-2.0576,-2.0576,-2.0576,-2.0576,-2.0323,-2.0411,-2.0566,-2.0576,-2.0576,-2.0566,-2.0489,-2.0566,-2.0576,-2.0576,-2.0576,-2.0566,-2.0576,-2.0576,-2.0576,-2.0245,-1.9599,-1.9036,-1.8709,-1.847,-2.5812,-2.5812,-2.5812,-2.5812,-2.5749,-2.5435,-2.5511,-2.5812,-2.6025,-2.6126,-2.6219,-2.6364,-2.6521,-2.6521,-2.6521,-2.6521,-2.6521,-2.6521,-2.6521,-2.6521,-2.6521,-2.6521,-2.6521,-2.6521,-2.6521,-2.6521,-2.6521,-2.6521,-2.6521,-2.6521,-2.6521,-2.6521,-2.6521,-2.6521,-2.6521,-2.6521,-2.6521,-2.6521,-2.6521,-2.6521,-2.6521,-2.6521,-2.6521,-2.6521,-2.6521,-2.6521,-2.6521,-2.6521,-2.6521,-2.6521,-2.6521,-2.6452,-2.6452,-2.5804,-2.5511,-2.4838,-2.4838,-2.4826,-2.4708,-2.472,-2.5218,-2.5277,-2.4786,-2.3519,-2.2478,-2.2048,-2.1973,-2.2048,-2.1897,-2.1821,-2.1821,-2.1756,-2.1821,-2.1821,-2.1501,-2.1181,-2.0893,-2.0671,-2.0655,-2.0688,-2.0757,-2.0837,-2.0867,-2.0722,-2.0576,-2.0576,-2.0576,-2.0576,-2.0576,-2.0576,-2.0576,-2.0576,-2.0576,-2.0576,-2.0576,-2.0576,-2.0576,-2.0576,-2.0576,-2.0576,-2.0576,-2.0576,-2.0576,-2.0576,-2.0576,-2.0576,-2.0576,-2.0576,-2.0576,-2.0576,-2.0576,-2.0167,-1.9844,-1.9756,-1.9599,-2.4845,-2.487,-2.4833,-2.487,-2.4757,-2.4757,-2.4745,-2.477,-2.5209,-2.5485,-2.5611,-2.6063,-2.6239,-2.6294,-2.6332,-2.6364,-2.6414,-2.6521,-2.6521,-2.6508,-2.6521,-2.6521,-2.6521,-2.6521,-2.6521,-2.6521,-2.6521,-2.6521,-2.6521,-2.6521,-2.6521,-2.6521,-2.6521,-2.6521,-2.6521,-2.6521,-2.6521,-2.6521,-2.6521,-2.6521,-2.6521,-2.6521,-2.6521,-2.6521,-2.6521,-2.6521,-2.6521,-2.6521,-2.6521,-2.6521,-2.6521,-2.6521,-2.6452,-2.6383,-2.6314,-2.6302,-2.6013,-2.6013,-2.6013,-2.5943,-2.5533,-2.537,-2.4945,-2.4541,-2.4036,-2.3073,-2.285,-2.2787,-2.2702,-2.2702,-2.2713,-2.2713,-2.2713,-2.2616,-2.2403,-2.2083,-2.1765,-2.1988,-2.2692,-2.2574,-2.2113,-2.2025,-2.1231,-2.1088,-2.0867,-2.0722,-2.0576,-2.0576,-2.0644,-2.0644,-2.0644,-2.0644,-2.0566,-2.0566,-2.0576,-2.0576,-2.0576,-2.0576,-2.0576,-2.0576,-2.0576,-2.0576,-2.0576,-2.0576,-2.0576,-2.0576,-2.0576,-2.0576,-2.0576,-2.0576,-2.0576,-2.0576,-2.0489,-2.0401,-2.0323,-2.4833,-2.4833,-2.4833,-2.4594,-2.4217,-2.4192,-2.3941,-2.3602,-2.413,-2.4619,-2.4983,-2.5184,-2.5473,-2.5787,-2.5812,-2.595,-2.6302,-2.6226,-2.6483,-2.642,-2.6395,-2.6214,-2.6445,-2.6319,-2.6433,-2.6521,-2.6521,-2.6521,-2.6521,-2.6521,-2.6521,-2.6521,-2.6521,-2.6521,-2.6521,-2.6521,-2.6521,-2.6521,-2.6521,-2.6521,-2.6521,-2.6521,-2.6521,-2.6521,-2.6521,-2.6521,-2.6521,-2.6521,-2.6521,-2.6521,-2.6521,-2.6521,-2.6452,-2.6521,-2.6521,-2.6521,-2.6521,-2.6521,-2.6521,-2.6521,-2.6208,-2.6126,-2.6,-2.5943,-2.5429,-2.4241,-2.3588,-2.3588,-2.3588,-2.3661,-2.3661,-2.3661,-2.3661,-2.3554,-2.3458,-2.3128,-2.2809,-2.3706,-2.473,-2.4294,-2.3694,-2.2852,-2.1983,-2.1527,-2.1231,-2.1011,-2.0722,-2.0644,-2.0789,-2.0867,-2.0867,-2.0867,-2.0634,-2.0566,-2.0566,-2.0576,-2.0576,-2.0576,-2.0576,-2.0576,-2.0576,-2.0576,-2.0576,-2.0576,-2.0576,-2.0576,-2.0576,-2.0576,-2.0576,-2.0576,-2.0576,-2.0576,-2.0576,-2.0489,-2.0566,-2.4017,-2.4079,-2.4067,-2.3904,-2.3653,-2.3615,-2.3427,-2.3178,-2.3477,-2.3778,-2.4167,-2.4569,-2.4996,-2.5247,-2.5247,-2.5372,-2.5749,-2.5711,-2.5624,-2.5686,-2.5812,-2.5674,-2.5737,-2.5824,-2.5887,-2.5988,-2.642,-2.6521,-2.6521,-2.6521,-2.6521,-2.6521,-2.6521,-2.6521,-2.6521,-2.6521,-2.6521,-2.6521,-2.6521,-2.6521,-2.6521,-2.6521,-2.6521,-2.6521,-2.6521,-2.6521,-2.6521,-2.6521,-2.6521,-2.6521,-2.6521,-2.6521,-2.6521,-2.6521,-2.6521,-2.6521,-2.6521,-2.6521,-2.6521,-2.6521,-2.6521,-2.6521,-2.6452,-2.6233,-2.6233,-2.5205,-2.5205,-2.5205,-2.5205,-2.5205,-2.5205,-2.5205,-2.5205,-2.511,-2.511,-2.498,-2.4885,-2.5324,-2.5779,-2.5625,-2.4821,-2.3779,-2.3073,-2.2702,-2.2414,-2.2414,-2.1973,-2.1756,-2.168,-2.1308,-2.1308,-2.1155,-2.1078,-2.0789,-2.0566,-2.0576,-2.0576,-2.0576,-2.0576,-2.0576,-2.0576,-2.0576,-2.0576,-2.0576,-2.0576,-2.0576,-2.0576,-2.0576,-2.0576,-2.0576,-2.0576,-2.0576,-2.0576,-2.0576,-2.0576,-2.3115,-2.3125,-2.315,-2.3138,-2.3138,-2.3138,-2.3138,-2.3138,-2.315,-2.315,-2.3265,-2.4117,-2.4582,-2.472,-2.472,-2.477,-2.4883,-2.5109,-2.4983,-2.4958,-2.4958,-2.5096,-2.5071,-2.4971,-2.531,-2.5686,-2.605,-2.6314,-2.6521,-2.6521,-2.6521,-2.6521,-2.6521,-2.6521,-2.6521,-2.6521,-2.6521,-2.6521,-2.6521,-2.6521,-2.6521,-2.6521,-2.6521,-2.6521,-2.6521,-2.6521,-2.6521,-2.6521,-2.6521,-2.6521,-2.6521,-2.6521,-2.6521,-2.6521,-2.6521,-2.6521,-2.6521,-2.6521,-2.6521,-2.6521,-2.6521,-2.6521,-2.6521,-2.6452,-2.6452,-2.6452,-2.6383,-2.6383,-2.6383,-2.6383,-2.6314,-2.6314,-2.6314,-2.6302,-2.6314,-2.6314,-2.6408,-2.6421,-2.6494,-2.6519,-2.5719,-2.4647,-2.4181,-2.3734,-2.3588,-2.3588,-2.3514,-2.3514,-2.3294,-2.2627,-2.2264,-2.2113,-2.1973,-2.1527,-2.0789,-2.0722,-2.0799,-2.0576,-2.0576,-2.0576,-2.0576,-2.0576,-2.0576,-2.0576,-2.0576,-2.0576,-2.0576,-2.0576,-2.0576,-2.0576,-2.0576,-2.0576,-2.0576,-2.0576,-2.0576,-2.3125,-2.3125,-2.3125,-2.3125,-2.3125,-2.3125,-2.3125,-2.3125,-2.3125,-2.3125,-2.314,-2.3301,-2.3678,-2.4155,-2.4155,-2.4268,-2.4544,-2.4632,-2.477,-2.4845,-2.4607,-2.4707,-2.4745,-2.4619,-2.5109,-2.5448,-2.5724,-2.6013,-2.6264,-2.6389,-2.6521,-2.6521,-2.6521,-2.6521,-2.6521,-2.6521,-2.6521,-2.6521,-2.6521,-2.6521,-2.6521,-2.6521,-2.6521,-2.6521,-2.6521,-2.6521,-2.6521,-2.6521,-2.6521,-2.6521,-2.6521,-2.6521,-2.6521,-2.6521,-2.6521,-2.6521,-2.6521,-2.6521,-2.6521,-2.6521,-2.6521,-2.6521,-2.6521,-2.6521,-2.6452,-2.6452,-2.6452,-2.6452,-2.6452,-2.6452,-2.6452,-2.6452,-2.6452,-2.6452,-2.6452,-2.6452,-2.6465,-2.6465,-2.6483,-2.6489,-2.6275,-2.5499,-2.4921,-2.4624,-2.4409,-2.4264,-2.3963,-2.3963,-2.4024,-2.3588,-2.322,-2.3073,-2.2861,-2.1897,-2.1021,-2.1088,-2.1088,-2.0789,-2.0644,-2.0722,-2.0722,-2.0644,-2.0576,-2.0576,-2.0576,-2.0576,-2.0576,-2.0576,-2.0576,-2.0576,-2.0576,-2.0576,-2.0576,-2.0576,-2.0576]},{"header":{"parameterUnit":"m.s-1","parameterCategory":1,"la1":31.0,"la2":29.5877,"lo1":-88.7671,"lo2":-86.6584,"dy":0.0162,"dx":0.0185,"nx":115,"ny":88,"refTime":"2023-09-04T06:00:00:Z","depth":0,"parameterNumber":3,"parameterNumberName":"V-component_of_WINDS"},"data":[0.0,0.0,0.0,0.0,0.0,0.0,0.0,0.0,0.0,0.0,0.0,0.0,0.0,0.0,0.0,0.0,0.0,0.0,0.0,0.0,0.0,0.0,0.0,0.0,0.0,0.0,0.0,0.0,0.0,0.0,0.0,0.0,0.0,0.0,0.0,0.0,0.0,0.0,0.0,0.0,0.0,0.0,0.0,0.0,0.0,0.0,0.0,0.0,0.0,0.0,0.0,0.0,0.0,0.0,0.0,0.0,0.0,0.0,0.0,0.0,0.0,0.0,0.0,0.0,0.0,0.0,0.0,0.0,0.0,0.0,0.0,0.0,0.0,0.0,0.0,0.0,0.0,0.0,0.0,0.0,0.0,0.0,0.0,0.0,0.0,0.0,0.0,0.0,0.0,0.0,0.0,0.0,0.0,0.0,0.0,0.0,0.0,0.0,0.0,0.0,0.0,0.0,0.0,0.0,0.0,0.0,0.0,0.0,0.0,0.0,0.0,0.0,0.0,0.0,0.0,0.0,0.0,0.0,0.0,0.0,0.0,0.0,0.0,0.0,0.0,0.0,0.0,0.0,0.0,0.0,0.0,0.0,0.0,0.0,0.0,0.0,0.0,0.0,0.0,0.0,0.0,0.0,0.0,0.0,0.0,0.0,0.0,0.0,0.0,0.0,0.0,0.0,0.0,0.0,0.0,0.0,0.0,0.0,0.0,0.0,0.0,0.0,0.0,0.0,0.0,0.0,0.0,0.0,0.0,0.0,0.0,0.0,0.0,0.0,0.0,0.0,0.0,0.0,0.0,0.0,0.0,0.0,0.0,0.0,0.0,0.0,0.0,0.0,0.0,0.0,0.0,0.0,0.0,0.0,0.0,0.0,0.0,0.0,0.0,0.0,0.0,0.0,0.0,0.0,0.0,0.0,0.0,0.0,0.0,0.0,0.0,0.0,0.0,0.0,0.0,0.0,0.0,0.0,0.0,0.0,0.0,0.0,0.0,0.0,0.0,0.0,0.0,0.0,0.0,0.0,0.0,0.0,0.0,0.0,0.0,0.0,0.0,0.0,0.0,0.0,0.0,0.0,0.0,0.0,0.0,0.0,0.0,0.0,0.0,0.0,0.0,0.0,0.0,0.0,0.0,0.0,0.0,0.0,0.0,0.0,0.0,0.0,0.0,0.0,0.0,0.0,0.0,0.0,0.0,0.0,0.0,0.0,0.0,0.0,0.0,0.0,0.0,0.0,0.0,0.0,0.0,0.0,0.0,0.0,0.0,0.0,0.0,0.0,0.0,0.0,0.0,0.0,0.0,0.0,0.0,0.0,0.0,0.0,0.0,0.0,0.0,0.0,0.0,0.0,0.0,0.0,0.0,0.0,0.0,0.0,0.0,0.0,0.0,0.0,0.0,0.0,0.0,0.0,0.0,0.0,0.0,0.0,0.0,0.0,0.0,0.0,0.0,0.0,0.0,0.0,0.0,0.0,0.0,0.0,0.0,0.0,0.0,0.0,0.0,0.0,0.0,0.0,0.0,0.0,0.0,0.0,0.0,0.0,0.0,0.0,0.0,0.0,0.0,0.0,0.0,0.0,0.0,0.0,0.0,0.0,0.0,0.0,0.0,0.0,0.0,0.0,0.0,0.0,0.0,0.0,0.0,0.0,0.0,0.0,0.0,0.0,0.0,0.0,0.0,0.0,0.0,0.0,0.0,0.0,0.0,0.0,0.0,0.0,0.0,0.0,0.0,0.0,0.0,0.0,0.0,0.0,0.0,0.0,0.0,0.0,0.0,0.0,0.0,0.0,0.0,0.0,0.0,0.0,0.0,0.0,0.0,0.0,0.0,0.0,0.0,0.0,0.0,0.0,0.0,0.0,0.0,0.0,0.0,0.0,0.0,0.0,0.0,0.0,0.0,0.0,0.0,0.0,0.0,0.0,0.0,0.0,0.0,0.0,0.0,0.0,0.0,0.0,0.0,0.0,0.0,0.0,0.0,0.0,0.0,0.0,0.0,0.0,0.0,0.0,0.0,0.0,0.0,0.0,0.0,0.0,0.0,0.0,0.0,0.0,0.0,0.0,0.0,0.0,0.0,0.0,0.0,0.0,0.0,0.0,0.0,0.0,0.0,0.0,0.0,0.0,0.0,0.0,0.0,0.0,0.0,0.0,0.0,0.0,0.0,0.0,0.0,0.0,0.0,0.0,0.0,0.0,0.0,0.0,0.0,0.0,0.0,0.0,0.0,0.0,0.0,0.0,0.0,0.0,0.0,0.0,0.0,0.0,0.0,0.0,0.0,0.0,0.0,0.0,0.0,0.0,0.0,0.0,0.0,0.0,0.0,0.0,0.0,0.0,0.0,0.0,0.0,0.0,0.0,0.0,0.0,0.0,0.0,0.0,0.0,0.0,0.0,0.0,0.0,0.0,0.0,0.0,0.0,0.0,0.0,0.0,0.0,0.0,0.0,0.0,0.0,0.0,0.0,0.0,0.0,0.0,0.0,0.0,0.0,0.0,0.0,0.0,0.0,0.0,0.0,0.0,0.0,0.0,0.0,0.0,0.0,0.0,0.0,0.0,0.0,0.0,0.0,0.0,0.0,0.0,0.0,0.0,0.0,0.0,0.0,0.0,0.0,0.0,0.0,0.0,0.0,0.0,0.0,0.0,0.0,0.0,0.0,0.0,0.0,0.0,0.0,0.0,0.0,0.0,0.0,0.0,0.0,0.0,0.0,0.0,0.0,0.0,0.0,0.0,0.0,0.0,0.0,0.0,0.0,0.0,0.0,0.0,0.0,0.0,0.0,0.0,0.0,0.0,0.0,0.0,0.0,0.0,0.0,0.0,0.0,0.0,0.0,0.0,0.0,0.0,0.0,0.0,0.0,0.0,0.0,0.0,0.0,0.0,0.0,0.0,0.0,0.0,0.0,0.0,0.0,0.0,0.0,0.0,0.0,0.0,0.0,0.0,0.0,0.0,0.0,0.0,0.0,0.0,0.0,0.0,0.0,0.0,0.0,0.0,0.0,0.0,0.0,0.0,0.0,0.0,0.0,0.0,0.0,0.0,0.0,0.0,0.0,0.0,0.0,0.0,0.0,0.0,0.0,0.0,0.0,0.0,0.0,0.0,0.0,0.0,0.0,0.0,0.0,0.0,0.0,0.0,0.0,0.0,0.0,0.0,0.0,0.0,0.0,0.0,0.0,0.0,0.0,0.0,0.0,0.0,0.0,0.0,0.0,0.0,0.0,0.0,0.0,0.0,0.0,0.0,0.0,0.0,0.0,0.0,0.0,0.0,0.0,0.0,0.0,0.0,0.0,0.0,0.0,0.0,0.0,0.0,0.0,0.0,0.0,0.0,0.0,0.0,0.0,0.0,0.0,0.0,0.0,0.0,0.0,0.0,0.0,0.0,0.0,0.0,0.0,0.0,0.0,0.0,0.0,0.0,0.0,0.0,0.0,0.0,0.0,0.0,0.0,0.0,0.0,0.0,0.0,0.0,0.0,0.0,0.0,0.0,0.0,0.0,0.0,0.0,0.0,0.0,0.0,0.0,0.0,0.0,0.0,0.0,0.0,0.0,0.0,0.0,0.0,0.0,0.0,0.0,0.0,0.0,0.0,0.0,0.0,0.0,0.0,0.0,0.0,0.0,0.0,0.0,0.0,0.0,0.0,0.0,0.0,0.0,0.0,0.0,0.0,0.0,0.0,0.0,0.0,0.0,0.0,0.0,0.0,0.0,0.0,0.0,0.0,0.0,0.0,0.0,0.0,0.0,0.0,0.0,0.0,0.0,0.0,0.0,0.0,0.0,0.0,0.0,0.0,0.0,0.0,0.0,0.0,0.0,0.0,0.0,0.0,0.0,0.0,0.0,0.0,0.0,0.0,0.0,0.0,0.0,0.0,0.0,0.0,0.0,0.0,0.0,0.0,0.0,0.0,0.0,0.0,0.0,0.0,0.0,0.0,0.0,0.0,0.0,0.0,0.0,0.0,0.0,0.0,0.0,0.0,0.0,0.0,0.0,0.0,0.0,0.0,0.0,0.0,0.0,0.0,0.0,0.0,0.0,0.0,0.0,0.0,0.0,0.0,0.0,0.0,0.0,0.0,0.0,0.0,0.0,0.0,0.0,0.0,0.0,0.0,0.0,0.0,0.0,0.0,0.0,0.0,0.0,0.0,0.0,0.0,0.0,0.0,0.0,0.0,0.0,0.0,0.0,0.0,0.0,0.0,0.0,0.0,0.0,0.0,0.0,0.0,0.0,0.0,0.0,0.0,0.0,0.0,0.0,0.0,0.0,-1.7658,0.0,0.0,0.0,0.0,0.0,0.0,0.0,0.0,0.0,0.0,0.0,0.0,0.0,0.0,0.0,0.0,0.0,0.0,0.0,0.0,0.0,0.0,0.0,0.0,0.0,0.0,0.0,0.0,0.0,0.0,0.0,0.0,0.0,0.0,0.0,0.0,0.0,0.0,0.0,0.0,0.0,0.0,0.0,0.0,0.0,0.0,0.0,0.0,0.0,0.0,0.0,0.0,0.0,0.0,0.0,0.0,0.0,0.0,0.0,0.0,0.0,0.0,0.0,0.0,0.0,0.0,0.0,0.0,0.0,0.0,0.0,0.0,0.0,0.0,0.0,0.0,0.0,0.0,0.0,0.0,0.0,0.0,0.0,0.0,0.0,0.0,0.0,0.0,0.0,0.0,0.0,0.0,0.0,0.0,0.0,0.0,0.0,0.0,0.0,0.0,0.0,0.0,0.0,0.0,0.0,0.0,0.0,0.0,0.0,0.0,-1.957,-1.8437,-1.8403,-1.8217,-1.7845,0.0,0.0,0.0,0.0,0.0,0.0,0.0,0.0,0.0,0.0,0.0,0.0,0.0,0.0,0.0,0.0,0.0,0.0,0.0,0.0,0.0,0.0,0.0,0.0,0.0,0.0,0.0,0.0,0.0,0.0,0.0,0.0,0.0,0.0,0.0,0.0,0.0,0.0,0.0,0.0,0.0,0.0,0.0,0.0,0.0,0.0,0.0,0.0,0.0,0.0,0.0,0.0,0.0,0.0,0.0,0.0,0.0,0.0,0.0,0.0,0.0,0.0,0.0,0.0,0.0,0.0,0.0,0.0,0.0,0.0,0.0,0.0,0.0,0.0,0.0,0.0,0.0,0.0,0.0,0.0,0.0,0.0,0.0,0.0,0.0,0.0,0.0,0.0,0.0,0.0,0.0,0.0,0.0,0.0,0.0,0.0,0.0,0.0,0.0,0.0,0.0,0.0,0.0,0.0,0.0,0.0,0.0,0.0,0.0,0.0,0.0,0.0,-1.9147,-1.8833,-1.8184,0.0,0.0,0.0,0.0,0.0,0.0,0.0,0.0,0.0,0.0,0.0,0.0,0.0,0.0,0.0,0.0,0.0,0.0,0.0,0.0,0.0,0.0,0.0,0.0,0.0,0.0,0.0,0.0,0.0,0.0,0.0,0.0,0.0,0.0,0.0,0.0,0.0,0.0,0.0,0.0,0.0,0.0,0.0,0.0,0.0,0.0,0.0,0.0,0.0,0.0,0.0,0.0,0.0,0.0,0.0,0.0,0.0,0.0,0.0,0.0,0.0,0.0,0.0,0.0,0.0,0.0,0.0,0.0,0.0,0.0,0.0,0.0,0.0,0.0,0.0,0.0,0.0,0.0,0.0,0.0,0.0,0.0,0.0,0.0,0.0,0.0,0.0,0.0,0.0,0.0,0.0,0.0,0.0,0.0,0.0,0.0,0.0,0.0,0.0,0.0,0.0,0.0,0.0,0.0,0.0,0.0,0.0,0.0,0.0,0.0,-2.0771,-1.9934,-1.9883,0.0,-1.9178,0.0,0.0,0.0,0.0,0.0,0.0,0.0,0.0,0.0,0.0,0.0,0.0,0.0,0.0,0.0,0.0,0.0,0.0,0.0,0.0,0.0,0.0,0.0,0.0,0.0,0.0,0.0,0.0,0.0,0.0,0.0,0.0,0.0,0.0,0.0,0.0,0.0,0.0,0.0,0.0,0.0,0.0,0.0,0.0,0.0,0.0,0.0,0.0,0.0,0.0,0.0,0.0,0.0,0.0,0.0,0.0,0.0,0.0,0.0,0.0,0.0,0.0,0.0,0.0,0.0,0.0,0.0,0.0,0.0,0.0,0.0,0.0,0.0,0.0,0.0,0.0,0.0,0.0,0.0,0.0,0.0,0.0,0.0,0.0,0.0,0.0,0.0,0.0,0.0,0.0,0.0,0.0,0.0,0.0,0.0,0.0,0.0,0.0,0.0,0.0,0.0,0.0,0.0,0.0,0.0,0.0,0.0,0.0,0.0,0.0,-2.1481,-2.072,-2.0448,-1.9986,0.0,0.0,0.0,0.0,0.0,0.0,0.0,0.0,0.0,0.0,0.0,0.0,0.0,0.0,0.0,0.0,0.0,0.0,0.0,0.0,0.0,0.0,0.0,0.0,0.0,0.0,0.0,0.0,0.0,0.0,0.0,0.0,0.0,0.0,0.0,0.0,0.0,0.0,0.0,0.0,0.0,0.0,0.0,0.0,0.0,0.0,0.0,0.0,0.0,0.0,0.0,0.0,0.0,0.0,0.0,0.0,0.0,0.0,0.0,0.0,0.0,0.0,0.0,0.0,0.0,0.0,0.0,0.0,0.0,0.0,0.0,0.0,0.0,0.0,0.0,0.0,0.0,0.0,0.0,0.0,0.0,0.0,0.0,0.0,0.0,0.0,0.0,0.0,0.0,0.0,0.0,0.0,0.0,0.0,0.0,0.0,0.0,0.0,0.0,0.0,0.0,0.0,0.0,0.0,0.0,0.0,0.0,0.0,0.0,0.0,-2.2377,-2.2197,-2.1747,-2.1139,-2.0605,-2.0206,0.0,0.0,0.0,0.0,0.0,0.0,0.0,0.0,0.0,0.0,0.0,0.0,0.0,0.0,0.0,0.0,0.0,0.0,0.0,0.0,0.0,0.0,0.0,0.0,0.0,0.0,0.0,0.0,0.0,0.0,0.0,0.0,0.0,0.0,0.0,0.0,0.0,0.0,0.0,0.0,0.0,0.0,0.0,0.0,0.0,0.0,0.0,0.0,0.0,0.0,0.0,0.0,0.0,0.0,0.0,0.0,0.0,0.0,0.0,0.0,0.0,0.0,0.0,0.0,0.0,0.0,0.0,0.0,0.0,0.0,0.0,0.0,0.0,0.0,0.0,0.0,0.0,0.0,0.0,0.0,0.0,0.0,0.0,0.0,0.0,0.0,0.0,0.0,0.0,0.0,0.0,0.0,0.0,0.0,0.0,0.0,0.0,0.0,0.0,0.0,0.0,0.0,0.0,0.0,0.0,0.0,0.0,0.0,-2.231,-2.2563,-2.2805,-2.3047,-2.2087,-2.1812,0.0,0.0,0.0,0.0,0.0,0.0,0.0,0.0,0.0,0.0,0.0,0.0,0.0,0.0,0.0,0.0,0.0,0.0,0.0,0.0,0.0,0.0,0.0,0.0,0.0,0.0,0.0,0.0,0.0,0.0,0.0,0.0,0.0,0.0,0.0,0.0,0.0,0.0,0.0,0.0,0.0,0.0,0.0,0.0,0.0,0.0,0.0,0.0,0.0,0.0,0.0,0.0,0.0,0.0,0.0,0.0,0.0,0.0,0.0,0.0,0.0,0.0,0.0,0.0,0.0,0.0,0.0,0.0,0.0,0.0,0.0,0.0,0.0,0.0,0.0,0.0,0.0,0.0,0.0,0.0,0.0,0.0,0.0,0.0,0.0,0.0,0.0,0.0,0.0,0.0,0.0,0.0,0.0,0.0,0.0,0.0,0.0,0.0,0.0,0.0,0.0,0.0,0.0,0.0,0.0,0.0,0.0,0.0,0.0,-2.2857,-2.2965,-2.3093,-2.3189,-2.3016,-2.2797,0.0,0.0,0.0,0.0,0.0,0.0,0.0,0.0,0.0,0.0,0.0,0.0,0.0,0.0,0.0,0.0,0.0,0.0,0.0,0.0,0.0,0.0,0.0,0.0,0.0,0.0,0.0,0.0,0.0,0.0,0.0,0.0,0.0,0.0,0.0,0.0,0.0,0.0,0.0,0.0,0.0,0.0,0.0,0.0,0.0,0.0,0.0,0.0,0.0,0.0,0.0,0.0,0.0,0.0,0.0,0.0,0.0,0.0,0.0,0.0,0.0,0.0,0.0,0.0,0.0,0.0,0.0,0.0,0.0,0.0,0.0,0.0,0.0,0.0,0.0,0.0,0.0,0.0,0.0,0.0,0.0,0.0,0.0,0.0,0.0,0.0,0.0,0.0,0.0,0.0,0.0,0.0,0.0,0.0,0.0,0.0,0.0,0.0,0.0,0.0,0.0,0.0,0.0,0.0,0.0,0.0,0.0,0.0,0.0,-2.3346,0.0,-2.33,-2.3522,-2.3631,-2.3502,0.0,0.0,0.0,0.0,0.0,0.0,0.0,0.0,0.0,0.0,0.0,0.0,0.0,0.0,0.0,0.0,0.0,0.0,0.0,0.0,0.0,0.0,0.0,0.0,0.0,0.0,0.0,0.0,0.0,0.0,0.0,0.0,0.0,0.0,0.0,0.0,0.0,0.0,0.0,0.0,0.0,0.0,0.0,0.0,0.0,0.0,0.0,0.0,0.0,0.0,0.0,0.0,0.0,0.0,0.0,0.0,0.0,0.0,0.0,0.0,0.0,0.0,0.0,0.0,0.0,0.0,0.0,0.0,0.0,0.0,0.0,0.0,0.0,0.0,0.0,0.0,0.0,0.0,0.0,0.0,0.0,0.0,0.0,0.0,0.0,0.0,0.0,0.0,0.0,0.0,0.0,0.0,0.0,0.0,0.0,0.0,0.0,0.0,0.0,0.0,0.0,0.0,0.0,0.0,0.0,0.0,0.0,0.0,-2.3369,-2.3671,-2.3392,-2.3544,-2.4133,-2.3858,-2.3858,0.0,0.0,0.0,0.0,0.0,0.0,0.0,0.0,0.0,0.0,0.0,0.0,0.0,0.0,0.0,0.0,0.0,0.0,0.0,0.0,0.0,0.0,0.0,0.0,0.0,0.0,0.0,0.0,0.0,0.0,0.0,0.0,0.0,0.0,0.0,0.0,0.0,0.0,0.0,0.0,0.0,0.0,0.0,0.0,0.0,0.0,0.0,0.0,0.0,0.0,0.0,0.0,0.0,0.0,0.0,0.0,0.0,0.0,0.0,0.0,0.0,0.0,0.0,0.0,0.0,0.0,0.0,0.0,0.0,0.0,0.0,0.0,0.0,0.0,0.0,0.0,0.0,0.0,0.0,0.0,0.0,0.0,0.0,0.0,0.0,0.0,0.0,0.0,0.0,0.0,0.0,0.0,0.0,0.0,0.0,0.0,0.0,0.0,0.0,0.0,0.0,0.0,0.0,0.0,0.0,0.0,0.0,0.0,0.0,-2.3714,-2.3816,-2.3996,-2.4208,-2.4094,-2.4094,0.0,0.0,0.0,0.0,0.0,0.0,0.0,0.0,0.0,0.0,0.0,0.0,0.0,0.0,0.0,0.0,0.0,0.0,0.0,0.0,0.0,0.0,0.0,0.0,0.0,0.0,0.0,0.0,0.0,0.0,0.0,0.0,0.0,0.0,0.0,0.0,0.0,0.0,0.0,0.0,0.0,0.0,0.0,0.0,0.0,0.0,0.0,0.0,0.0,0.0,0.0,0.0,0.0,0.0,0.0,0.0,0.0,0.0,0.0,0.0,0.0,0.0,0.0,0.0,0.0,0.0,0.0,0.0,0.0,0.0,0.0,0.0,0.0,0.0,0.0,0.0,0.0,0.0,0.0,0.0,0.0,0.0,0.0,0.0,0.0,0.0,0.0,0.0,0.0,0.0,0.0,0.0,0.0,0.0,0.0,0.0,0.0,0.0,0.0,0.0,0.0,0.0,0.0,0.0,0.0,0.0,0.0,0.0,0.0,-2.3896,-2.4094,-2.419,-2.419,-2.419,-2.419,-2.419,0.0,0.0,0.0,0.0,0.0,0.0,0.0,0.0,0.0,0.0,0.0,0.0,0.0,0.0,0.0,0.0,0.0,0.0,0.0,0.0,0.0,0.0,0.0,0.0,0.0,0.0,0.0,0.0,0.0,0.0,0.0,0.0,0.0,0.0,0.0,0.0,0.0,0.0,0.0,0.0,0.0,0.0,0.0,0.0,0.0,0.0,0.0,0.0,0.0,0.0,0.0,0.0,0.0,0.0,0.0,0.0,0.0,0.0,0.0,0.0,0.0,0.0,0.0,0.0,0.0,0.0,0.0,0.0,0.0,0.0,0.0,0.0,0.0,0.0,0.0,0.0,0.0,0.0,0.0,0.0,0.0,0.0,0.0,0.0,0.0,0.0,0.0,0.0,0.0,0.0,0.0,0.0,0.0,0.0,0.0,0.0,0.0,0.0,0.0,0.0,0.0,0.0,0.0,0.0,0.0,0.0,0.0,0.0,-2.419,-2.419,-2.419,-2.419,-2.419,-2.419,0.0,0.0,0.0,0.0,0.0,0.0,0.0,0.0,0.0,0.0,0.0,0.0,0.0,0.0,0.0,0.0,0.0,0.0,0.0,0.0,0.0,0.0,0.0,0.0,0.0,0.0,0.0,0.0,0.0,0.0,0.0,0.0,0.0,0.0,0.0,0.0,0.0,0.0,0.0,0.0,0.0,0.0,0.0,0.0,0.0,0.0,0.0,0.0,0.0,0.0,0.0,0.0,0.0,0.0,0.0,0.0,0.0,0.0,0.0,0.0,0.0,0.0,0.0,0.0,0.0,0.0,0.0,0.0,0.0,0.0,0.0,0.0,0.0,0.0,0.0,0.0,0.0,0.0,0.0,0.0,0.0,0.0,0.0,0.0,0.0,0.0,0.0,0.0,0.0,0.0,0.0,0.0,0.0,0.0,0.0,0.0,0.0,0.0,0.0,0.0,0.0,0.0,0.0,0.0,0.0,0.0,0.0,0.0,0.0,-2.4208,-2.419,-2.419,-2.419,-2.419,-2.4282,0.0,0.0,0.0,0.0,0.0,0.0,0.0,0.0,0.0,0.0,0.0,0.0,0.0,0.0,0.0,0.0,0.0,0.0,0.0,0.0,0.0,0.0,0.0,0.0,0.0,0.0,0.0,0.0,0.0,0.0,0.0,0.0,0.0,0.0,0.0,0.0,0.0,0.0,0.0,0.0,0.0,0.0,0.0,0.0,0.0,0.0,0.0,0.0,0.0,0.0,0.0,0.0,0.0,0.0,0.0,0.0,0.0,0.0,0.0,0.0,0.0,0.0,0.0,0.0,0.0,0.0,0.0,0.0,0.0,0.0,0.0,0.0,0.0,0.0,0.0,0.0,0.0,0.0,0.0,0.0,0.0,0.0,0.0,0.0,0.0,0.0,0.0,0.0,0.0,0.0,0.0,0.0,0.0,0.0,0.0,0.0,0.0,0.0,0.0,0.0,0.0,0.0,0.0,0.0,0.0,0.0,0.0,0.0,-2.5421,-2.5217,-2.5217,-2.5217,-2.5217,-2.4557,-2.4301,0.0,0.0,0.0,0.0,0.0,0.0,0.0,0.0,0.0,0.0,0.0,0.0,0.0,0.0,0.0,0.0,0.0,0.0,0.0,0.0,0.0,0.0,0.0,0.0,0.0,0.0,0.0,0.0,0.0,0.0,0.0,0.0,0.0,0.0,0.0,0.0,0.0,0.0,0.0,0.0,0.0,0.0,0.0,0.0,0.0,0.0,0.0,0.0,0.0,0.0,0.0,0.0,0.0,0.0,0.0,0.0,0.0,0.0,0.0,0.0,0.0,0.0,0.0,0.0,0.0,0.0,0.0,0.0,0.0,0.0,0.0,0.0,0.0,0.0,0.0,0.0,0.0,0.0,0.0,0.0,0.0,0.0,0.0,0.0,0.0,0.0,0.0,0.0,0.0,0.0,0.0,0.0,0.0,0.0,0.0,0.0,0.0,0.0,0.0,0.0,0.0,0.0,0.0,0.0,0.0,0.0,0.0,0.0,-2.6835,-2.6636,-2.6612,-2.6594,-2.6581,-2.5146,-2.4411,0.0,0.0,0.0,0.0,0.0,0.0,0.0,0.0,0.0,0.0,0.0,0.0,0.0,0.0,0.0,0.0,0.0,0.0,0.0,0.0,0.0,0.0,0.0,0.0,0.0,0.0,0.0,0.0,0.0,0.0,0.0,0.0,0.0,0.0,0.0,0.0,0.0,0.0,0.0,0.0,0.0,0.0,0.0,0.0,0.0,0.0,0.0,0.0,0.0,0.0,0.0,0.0,0.0,0.0,0.0,0.0,0.0,0.0,0.0,0.0,0.0,0.0,0.0,0.0,0.0,0.0,0.0,0.0,0.0,0.0,0.0,0.0,0.0,0.0,0.0,0.0,0.0,0.0,0.0,0.0,0.0,0.0,0.0,0.0,0.0,0.0,0.0,0.0,0.0,0.0,0.0,0.0,0.0,0.0,0.0,0.0,0.0,0.0,0.0,0.0,0.0,0.0,0.0,0.0,0.0,0.0,0.0,0.0,-2.6885,-2.686,-2.67,-2.668,-2.6804,-2.5723,-2.5295,0.0,0.0,0.0,0.0,0.0,0.0,0.0,0.0,0.0,0.0,0.0,0.0,0.0,0.0,0.0,0.0,0.0,0.0,0.0,0.0,0.0,0.0,0.0,0.0,0.0,0.0,0.0,0.0,0.0,0.0,0.0,0.0,0.0,0.0,0.0,0.0,0.0,0.0,0.0,0.0,0.0,0.0,0.0,0.0,0.0,0.0,0.0,0.0,-2.0292,0.0,0.0,0.0,0.0,0.0,0.0,0.0,0.0,0.0,0.0,0.0,0.0,0.0,0.0,0.0,0.0,0.0,0.0,0.0,0.0,0.0,0.0,0.0,0.0,0.0,0.0,0.0,0.0,0.0,0.0,0.0,0.0,0.0,0.0,0.0,0.0,0.0,0.0,0.0,0.0,0.0,0.0,0.0,0.0,0.0,0.0,0.0,0.0,0.0,0.0,0.0,0.0,0.0,0.0,0.0,0.0,0.0,0.0,0.0,-2.8219,-2.8202,-2.811,-2.811,-2.8183,-2.7326,-2.6767,0.0,0.0,0.0,0.0,0.0,0.0,0.0,0.0,0.0,0.0,0.0,0.0,0.0,0.0,0.0,0.0,0.0,0.0,0.0,0.0,0.0,0.0,0.0,0.0,0.0,0.0,0.0,0.0,0.0,0.0,0.0,0.0,0.0,0.0,0.0,0.0,0.0,0.0,0.0,0.0,0.0,0.0,0.0,0.0,0.0,0.0,0.0,0.0,0.0,0.0,0.0,0.0,0.0,0.0,0.0,0.0,0.0,0.0,0.0,0.0,0.0,0.0,0.0,0.0,0.0,0.0,0.0,0.0,0.0,0.0,0.0,0.0,0.0,0.0,0.0,0.0,0.0,0.0,0.0,0.0,0.0,0.0,0.0,0.0,0.0,0.0,0.0,0.0,0.0,0.0,0.0,0.0,0.0,0.0,0.0,0.0,0.0,0.0,0.0,0.0,0.0,0.0,0.0,0.0,0.0,0.0,0.0,-2.9447,-2.9725,-2.9729,-2.9713,-2.9713,-2.9729,-2.9049,-2.8365,-2.7662,0.0,0.0,0.0,0.0,0.0,0.0,0.0,0.0,0.0,0.0,0.0,0.0,0.0,0.0,0.0,0.0,0.0,0.0,0.0,0.0,0.0,0.0,0.0,0.0,0.0,0.0,0.0,0.0,0.0,0.0,0.0,0.0,0.0,0.0,0.0,0.0,0.0,0.0,-2.0566,-2.0703,0.0,0.0,0.0,0.0,0.0,0.0,0.0,0.0,-2.1139,0.0,0.0,0.0,0.0,0.0,0.0,0.0,0.0,0.0,0.0,0.0,0.0,0.0,0.0,0.0,0.0,0.0,0.0,0.0,0.0,0.0,0.0,0.0,0.0,0.0,0.0,0.0,0.0,0.0,0.0,0.0,0.0,0.0,0.0,0.0,0.0,0.0,0.0,0.0,0.0,0.0,0.0,0.0,0.0,0.0,0.0,0.0,0.0,0.0,0.0,0.0,0.0,0.0,0.0,0.0,0.0,-2.9557,-2.9646,-2.9773,-2.9935,-2.978,-2.9799,-2.992,-2.9647,-2.9526,-2.9491,0.0,0.0,0.0,0.0,0.0,0.0,0.0,0.0,0.0,0.0,0.0,0.0,0.0,0.0,0.0,0.0,0.0,0.0,0.0,0.0,0.0,0.0,0.0,0.0,0.0,0.0,0.0,0.0,0.0,0.0,0.0,0.0,0.0,0.0,0.0,0.0,0.0,0.0,0.0,-2.1191,-2.1363,0.0,0.0,0.0,0.0,0.0,0.0,0.0,0.0,-2.2427,0.0,0.0,0.0,0.0,0.0,0.0,0.0,0.0,0.0,0.0,0.0,0.0,0.0,0.0,0.0,0.0,0.0,0.0,0.0,0.0,0.0,0.0,0.0,0.0,0.0,0.0,0.0,0.0,0.0,0.0,0.0,0.0,0.0,0.0,0.0,0.0,0.0,0.0,0.0,0.0,0.0,0.0,0.0,0.0,0.0,0.0,0.0,0.0,0.0,0.0,0.0,0.0,0.0,0.0,0.0,-3.0042,-2.9928,-2.9985,-3.019,-3.0128,-3.0114,-3.0196,-3.0128,-3.0109,0.0,0.0,0.0,0.0,0.0,0.0,0.0,0.0,0.0,0.0,0.0,0.0,0.0,0.0,0.0,0.0,0.0,0.0,0.0,0.0,0.0,0.0,0.0,0.0,0.0,0.0,0.0,0.0,0.0,0.0,0.0,0.0,0.0,0.0,0.0,0.0,0.0,0.0,0.0,0.0,-2.1562,-2.1835,-2.1803,0.0,0.0,0.0,0.0,0.0,0.0,-2.3129,-2.3101,0.0,0.0,0.0,0.0,0.0,0.0,0.0,0.0,0.0,0.0,0.0,0.0,0.0,0.0,0.0,0.0,0.0,0.0,0.0,0.0,0.0,0.0,0.0,0.0,0.0,0.0,0.0,0.0,0.0,0.0,0.0,0.0,0.0,0.0,0.0,0.0,0.0,0.0,0.0,0.0,0.0,0.0,0.0,0.0,0.0,0.0,0.0,0.0,0.0,0.0,0.0,0.0,0.0,0.0,0.0,-3.0292,-3.0075,-3.0043,-3.0241,-3.0241,-3.026,-3.0273,-3.026,-3.0279,0.0,0.0,0.0,0.0,0.0,0.0,0.0,0.0,0.0,0.0,0.0,0.0,0.0,0.0,0.0,0.0,0.0,0.0,0.0,0.0,0.0,0.0,0.0,0.0,0.0,0.0,0.0,0.0,0.0,0.0,0.0,0.0,0.0,0.0,0.0,0.0,0.0,0.0,0.0,0.0,0.0,-2.2499,-2.3015,-2.332,0.0,0.0,0.0,0.0,-2.4245,-2.3755,0.0,0.0,0.0,0.0,0.0,0.0,0.0,0.0,0.0,0.0,0.0,0.0,0.0,0.0,0.0,0.0,0.0,0.0,0.0,0.0,0.0,0.0,0.0,0.0,0.0,0.0,0.0,0.0,0.0,0.0,0.0,0.0,0.0,0.0,0.0,0.0,0.0,0.0,0.0,0.0,0.0,0.0,0.0,0.0,0.0,0.0,0.0,0.0,0.0,0.0,0.0,0.0,0.0,0.0,0.0,0.0,-3.0047,-2.9822,-2.9755,-2.9801,-2.9763,-2.9782,-2.9782,-2.9782,-2.9882,0.0,0.0,0.0,0.0,0.0,0.0,0.0,0.0,0.0,0.0,0.0,0.0,0.0,0.0,0.0,0.0,0.0,0.0,0.0,0.0,0.0,0.0,0.0,0.0,0.0,0.0,0.0,0.0,0.0,0.0,0.0,0.0,0.0,0.0,0.0,0.0,0.0,0.0,0.0,0.0,0.0,-2.3753,-2.312,-2.4272,-2.4947,0.0,0.0,-2.5034,-2.5149,-2.5072,0.0,0.0,0.0,0.0,0.0,0.0,0.0,0.0,0.0,0.0,0.0,0.0,0.0,0.0,0.0,0.0,0.0,0.0,0.0,0.0,0.0,0.0,0.0,0.0,0.0,0.0,0.0,0.0,0.0,0.0,0.0,0.0,0.0,0.0,0.0,0.0,0.0,0.0,0.0,0.0,0.0,0.0,0.0,0.0,0.0,0.0,0.0,0.0,0.0,0.0,0.0,0.0,0.0,0.0,0.0,-2.9996,-2.9999,-2.9809,-2.9701,-2.9696,-2.9696,-2.9696,-2.9696,-2.9696,-2.981,0.0,0.0,0.0,0.0,0.0,0.0,0.0,0.0,0.0,0.0,0.0,0.0,0.0,0.0,0.0,0.0,0.0,0.0,0.0,0.0,0.0,0.0,0.0,0.0,0.0,0.0,0.0,0.0,0.0,0.0,0.0,0.0,0.0,0.0,0.0,0.0,0.0,0.0,0.0,0.0,0.0,0.0,-2.4444,-2.5063,0.0,0.0,0.0,-2.5313,-2.5313,0.0,0.0,0.0,0.0,0.0,0.0,0.0,0.0,0.0,0.0,0.0,0.0,0.0,0.0,0.0,0.0,0.0,0.0,0.0,0.0,0.0,0.0,0.0,0.0,0.0,0.0,0.0,0.0,0.0,0.0,0.0,0.0,0.0,0.0,0.0,0.0,0.0,0.0,0.0,0.0,0.0,0.0,0.0,0.0,0.0,0.0,0.0,0.0,0.0,0.0,0.0,0.0,0.0,0.0,0.0,0.0,0.0,-2.9924,-2.9645,-2.951,-2.9514,-2.9514,-2.9514,-2.9514,-2.9514,0.0,0.0,0.0,0.0,0.0,0.0,0.0,0.0,0.0,0.0,0.0,0.0,0.0,0.0,0.0,0.0,0.0,0.0,0.0,0.0,0.0,0.0,0.0,0.0,0.0,0.0,0.0,-2.1484,0.0,0.0,0.0,0.0,0.0,0.0,0.0,0.0,0.0,0.0,0.0,0.0,0.0,0.0,-2.4849,-2.5509,-2.5564,-2.5517,0.0,0.0,-2.5332,-2.5313,-2.5476,-2.561,0.0,0.0,0.0,0.0,0.0,0.0,0.0,0.0,0.0,0.0,0.0,0.0,0.0,0.0,0.0,0.0,0.0,0.0,0.0,0.0,0.0,0.0,0.0,0.0,0.0,0.0,0.0,0.0,0.0,0.0,0.0,0.0,0.0,0.0,0.0,0.0,0.0,0.0,0.0,0.0,0.0,0.0,0.0,0.0,0.0,0.0,0.0,0.0,0.0,0.0,0.0,0.0,0.0,0.0,-2.9712,-2.9713,-2.9291,-2.9062,-2.9044,-2.9044,-2.9044,-2.9044,-2.9044,-2.9251,0.0,0.0,0.0,0.0,0.0,0.0,0.0,0.0,0.0,0.0,0.0,0.0,0.0,0.0,0.0,0.0,0.0,0.0,0.0,0.0,0.0,0.0,0.0,0.0,0.0,0.0,0.0,0.0,0.0,0.0,0.0,0.0,0.0,0.0,0.0,0.0,0.0,0.0,0.0,0.0,0.0,-2.5457,-2.5591,-2.5613,-2.5579,0.0,-2.5447,-2.539,-2.5313,-2.5976,-2.6524,-2.6505,0.0,0.0,0.0,0.0,0.0,0.0,0.0,0.0,0.0,0.0,0.0,0.0,0.0,0.0,0.0,0.0,0.0,0.0,0.0,0.0,0.0,0.0,0.0,0.0,0.0,0.0,0.0,0.0,0.0,0.0,0.0,0.0,0.0,0.0,0.0,0.0,0.0,0.0,0.0,0.0,0.0,0.0,0.0,0.0,0.0,0.0,0.0,0.0,0.0,0.0,0.0,0.0,0.0,-2.9696,-2.9677,-2.9249,-2.8975,-2.8975,-2.8975,-2.8975,-2.8975,-2.8975,-2.916,0.0,0.0,0.0,0.0,0.0,0.0,0.0,0.0,0.0,0.0,0.0,0.0,0.0,0.0,0.0,0.0,0.0,0.0,0.0,0.0,0.0,0.0,0.0,0.0,0.0,0.0,0.0,0.0,-2.3887,-2.4102,-2.4668,0.0,0.0,0.0,0.0,0.0,0.0,0.0,0.0,0.0,0.0,-2.5563,-2.5611,-2.6041,0.0,0.0,-2.6772,-2.7056,-2.7036,-2.7267,-2.7467,-2.7456,-2.7698,0.0,0.0,0.0,0.0,0.0,0.0,0.0,0.0,0.0,0.0,0.0,0.0,0.0,0.0,0.0,0.0,0.0,0.0,0.0,0.0,0.0,0.0,0.0,0.0,0.0,0.0,0.0,0.0,0.0,0.0,0.0,0.0,0.0,0.0,0.0,0.0,0.0,0.0,0.0,0.0,0.0,0.0,0.0,0.0,0.0,0.0,0.0,0.0,0.0,0.0,0.0,0.0,-2.9661,-2.9588,-2.9206,-2.8975,-2.8975,-2.8975,-2.8975,-2.8975,-2.8975,-2.9134,0.0,0.0,0.0,0.0,0.0,0.0,0.0,0.0,0.0,0.0,0.0,0.0,0.0,0.0,0.0,0.0,0.0,0.0,0.0,0.0,0.0,0.0,0.0,0.0,0.0,0.0,0.0,0.0,-2.4721,-2.498,-2.5625,0.0,0.0,0.0,0.0,0.0,0.0,0.0,0.0,0.0,0.0,-2.6091,-2.6357,-2.6919,-2.7287,-2.7251,-2.7731,-2.8058,-2.8038,-2.823,-2.8362,-2.836,0.0,0.0,0.0,0.0,0.0,0.0,0.0,0.0,0.0,0.0,0.0,0.0,0.0,0.0,0.0,0.0,0.0,0.0,0.0,0.0,0.0,0.0,0.0,0.0,0.0,0.0,0.0,-2.4455,0.0,0.0,-2.4988,0.0,0.0,0.0,0.0,0.0,0.0,0.0,0.0,0.0,0.0,0.0,0.0,0.0,0.0,0.0,0.0,0.0,0.0,0.0,0.0,0.0,0.0,-2.9607,-2.9412,-2.9156,-2.8975,-2.8975,-2.8975,-2.8975,-2.8975,-2.8975,-2.9134,-2.9392,0.0,0.0,0.0,0.0,0.0,0.0,0.0,0.0,0.0,0.0,0.0,0.0,0.0,0.0,0.0,0.0,0.0,0.0,0.0,0.0,0.0,0.0,0.0,0.0,0.0,0.0,-2.5524,-2.5625,-2.5684,0.0,0.0,0.0,0.0,0.0,0.0,0.0,0.0,0.0,-2.6757,-2.6853,-2.721,-2.8079,-2.8197,-2.8155,-2.8094,-2.8055,-2.8033,-2.7986,-2.8651,-2.919,0.0,0.0,0.0,0.0,0.0,0.0,0.0,0.0,0.0,0.0,0.0,0.0,0.0,0.0,0.0,0.0,0.0,0.0,0.0,0.0,0.0,0.0,0.0,0.0,0.0,0.0,0.0,-2.4949,-2.4523,0.0,0.0,0.0,0.0,0.0,0.0,0.0,0.0,0.0,0.0,0.0,-2.8615,-2.8863,0.0,0.0,0.0,0.0,0.0,0.0,0.0,0.0,0.0,0.0,0.0,0.0,-2.9474,-2.9392,-2.9134,-2.8975,-2.8975,-2.8975,-2.8975,-2.8975,-2.8975,-2.9021,-2.9115,0.0,0.0,0.0,0.0,0.0,0.0,0.0,0.0,0.0,0.0,0.0,0.0,0.0,0.0,0.0,0.0,0.0,0.0,0.0,0.0,0.0,0.0,0.0,0.0,0.0,-2.5416,0.0,0.0,0.0,0.0,0.0,0.0,0.0,0.0,0.0,0.0,-2.6934,-2.7412,-2.7721,-2.7809,-2.7925,-2.8261,-2.8771,-2.9138,0.0,0.0,0.0,0.0,0.0,0.0,0.0,0.0,0.0,0.0,0.0,0.0,0.0,0.0,-2.9474,-2.9436,-2.9417,-2.9417,-2.9436,0.0,0.0,0.0,0.0,0.0,0.0,0.0,0.0,0.0,0.0,0.0,0.0,0.0,0.0,-2.571,-2.527,-2.5253,0.0,0.0,0.0,0.0,0.0,0.0,0.0,0.0,-2.8237,-2.8412,-2.842,-2.8658,-2.8863,-2.8994,-2.8975,-2.8975,0.0,0.0,0.0,0.0,0.0,0.0,0.0,0.0,-2.9351,-2.9246,-2.9089,-2.8975,-2.8975,-2.8975,-2.8975,-2.8975,-2.8975,-2.8975,-2.8975,-2.916,-2.916,0.0,0.0,0.0,0.0,0.0,0.0,0.0,0.0,0.0,0.0,0.0,0.0,0.0,0.0,0.0,0.0,0.0,0.0,0.0,0.0,0.0,0.0,0.0,-2.629,0.0,0.0,0.0,0.0,0.0,0.0,0.0,0.0,0.0,-2.75,-2.7897,-2.8366,-2.8657,-2.8723,-2.8848,-2.916,0.0,0.0,0.0,0.0,0.0,0.0,0.0,-3.0641,-3.0698,-3.0646,-3.0639,-3.0642,-3.0639,-3.0637,-3.0608,0.0,0.0,-3.0559,-3.053,-3.0549,-3.0529,-2.9915,-2.9551,-3.0073,-2.9627,-2.9311,0.0,0.0,0.0,0.0,-2.6708,0.0,0.0,0.0,-2.6691,-2.6674,0.0,-2.664,0.0,0.0,0.0,0.0,-2.7272,-2.7303,0.0,0.0,-2.753,-2.7718,-2.8368,-2.8402,-2.8615,-2.8975,-2.8975,-2.8975,-2.8975,-2.8975,0.0,0.0,0.0,0.0,0.0,0.0,-2.9267,-2.9017,-2.9017,-2.8975,-2.8975,-2.8975,-2.8975,-2.8975,-2.8975,-2.8975,-2.8975,-2.9017,-2.9017,-2.8998,-2.9249,0.0,0.0,0.0,0.0,0.0,0.0,0.0,0.0,0.0,0.0,0.0,0.0,0.0,0.0,0.0,0.0,0.0,0.0,0.0,0.0,-2.7958,0.0,0.0,0.0,0.0,0.0,0.0,0.0,0.0,0.0,-2.9099,-2.8491,-2.8418,-2.8691,-2.9531,0.0,0.0,0.0,0.0,-3.0684,-3.0684,-3.0648,-3.0611,-3.0611,-3.0673,-3.0694,-3.0698,0.0,0.0,-3.0723,-3.0703,-3.0676,-3.0614,-3.0683,-3.0692,-3.0632,-3.0594,-3.06,-3.0597,-3.0513,-3.0479,-3.0475,-3.0386,-3.0328,-2.7724,0.0,0.0,0.0,0.0,-2.6708,-2.6708,-2.6708,-2.6708,-2.6708,-2.6708,-2.6708,0.0,0.0,0.0,0.0,0.0,0.0,-2.721,-2.7083,-2.7759,-2.8084,-2.8075,-2.8583,-2.8887,-2.8975,-2.8975,-2.8975,-2.8975,-2.8975,-2.9021,-2.9112,0.0,0.0,0.0,0.0,-2.9085,-2.9017,-2.8975,-2.8975,-2.8975,-2.8975,-2.8975,-2.8975,-2.8975,-2.8975,-2.8975,-2.8975,-2.8975,-2.9017,-2.9265,0.0,0.0,0.0,0.0,0.0,0.0,0.0,0.0,0.0,0.0,0.0,0.0,0.0,0.0,0.0,0.0,0.0,0.0,0.0,-2.789,-2.7956,-2.7988,0.0,0.0,0.0,0.0,0.0,0.0,0.0,0.0,0.0,-3.0042,-3.0017,-3.0137,0.0,0.0,-3.0605,-3.0879,-3.0859,-3.084,-3.0859,-3.0817,0.0,-3.0811,-3.0757,-3.0725,-3.0816,-3.0881,-3.0879,-3.0859,-3.084,-3.0839,-3.0811,-3.0819,-3.0829,-3.081,-3.072,-3.0684,-3.0664,-3.0617,-3.0554,-3.0513,-3.0487,-3.0467,-2.8433,-2.7571,-2.7249,-2.7148,-2.7114,-2.6826,-2.6708,-2.6708,-2.6708,-2.6708,-2.6708,-2.6708,-2.6708,-2.6708,-2.6708,0.0,0.0,0.0,-2.6939,-2.6708,-2.7404,-2.7689,-2.7707,-2.8281,-2.8608,-2.8791,-2.8947,-2.9159,-2.9475,-2.9475,-2.9641,-2.9916,0.0,-2.8975,-2.9035,-2.9329,-2.9475,-2.9504,-2.9811,-2.9787,-2.9485,-2.9163,-2.8975,-2.8975,-2.8975,-2.8975,-2.8975,-2.8975,-2.8975,-2.8975,-2.9156,-2.9246,0.0,0.0,0.0,0.0,0.0,0.0,0.0,0.0,0.0,0.0,0.0,-2.8727,-2.8727,0.0,0.0,0.0,-2.8837,-2.8909,-2.889,-2.8917,0.0,0.0,0.0,0.0,0.0,0.0,0.0,-2.9833,-3.0206,-3.0544,-3.0652,-3.0646,-3.0712,-3.0879,-3.0918,-3.0918,-3.0918,0.0,-3.0918,-3.0918,-3.0918,-3.0918,-3.0918,-3.084,-3.0811,-3.0879,-3.0918,-3.0918,-3.0918,-3.0918,-3.0918,-3.0918,-3.0907,-3.0923,-3.0923,-3.0827,-3.0781,-3.0781,-3.071,-3.0637,-3.0587,-3.055,-3.0525,-2.9384,-2.9262,-2.8501,-2.8095,-2.7858,-2.7165,-2.6877,-2.6877,-2.6877,-2.686,-2.6877,-2.6877,-2.6877,-2.6877,-2.6877,0.0,-2.6877,-2.6877,-2.6894,-2.686,-2.6928,-2.7175,-2.7539,-2.7988,-2.8353,-2.867,-2.9022,-2.9586,-3.0265,-3.0301,-3.0668,-3.1329,-2.9934,-2.92,-2.9232,-2.9934,-3.0312,-3.0309,-3.1011,-3.1048,-3.0309,-2.9572,-2.9159,-2.9085,-2.9085,-2.9049,-2.8975,-2.8975,-2.8975,-2.8975,-2.8975,-2.8975,-2.8998,0.0,0.0,0.0,0.0,0.0,0.0,0.0,0.0,0.0,0.0,0.0,0.0,0.0,0.0,0.0,-3.0235,0.0,-3.0398,-3.0398,0.0,0.0,0.0,-3.0487,-3.0487,-3.0487,-3.0487,-3.0487,0.0,0.0,-3.0583,-3.0593,-3.0667,-3.0856,-3.0879,-3.0918,-3.0918,-3.0918,-3.0918,-3.0918,-3.0918,-3.0918,-3.0918,-3.0976,-3.1074,-3.1094,-3.1055,-3.1191,-3.1211,-3.1191,-3.1152,-3.1191,-3.1113,-3.1152,-3.1133,-3.1211,-3.1094,-3.1172,-3.0976,-3.0859,-3.0996,-3.1006,-3.0974,-3.2357,-3.229,-3.1529,-3.026,-2.8704,-2.8554,-2.8486,-2.8469,-2.845,-2.8469,-2.8433,-2.845,-2.8433,-2.8433,-2.8433,-2.8433,-2.8433,-2.845,-2.8469,-2.8505,-2.9069,-2.9417,-2.9528,-3.0225,-3.0604,-3.068,-3.0772,-3.0925,-3.1109,-3.1109,-3.1201,-3.1366,-3.1017,-3.0834,-3.0834,-3.1017,-3.1134,-3.1121,-3.1299,-3.1317,-3.1115,-3.0931,-3.054,-2.9934,-2.9916,-2.9622,-2.903,-2.8975,-2.8975,-2.8975,-2.8975,-2.8975,-2.8998,-2.9044,0.0,0.0,0.0,0.0,0.0,0.0,0.0,0.0,0.0,-3.0003,-2.9999,0.0,-3.0228,0.0,-3.0235,-3.0398,-3.0398,-3.0398,0.0,0.0,-3.0398,-3.0417,-3.0417,-3.0417,-3.0417,-3.0417,-3.0398,-3.0417,-3.0506,-3.053,-3.0568,-3.0667,-3.0808,-3.0918,-3.0918,-3.0918,-3.0918,-3.0937,-3.0957,-3.0918,-3.1016,-3.1484,-3.1875,-3.1894,-3.2402,-3.2812,-3.2793,-3.2793,-3.2793,-3.2812,-3.2793,-3.2793,-3.2754,-3.2793,-3.2793,-3.2754,-3.2305,-3.2012,-3.2559,-3.2656,-3.2611,-3.3389,-3.3372,-3.2949,-3.207,-3.0886,-2.9905,-2.9482,-2.9465,-2.9127,-2.9011,-2.9011,-2.9011,-2.9011,-2.9011,-2.9011,-2.9011,-2.9011,-2.9011,-2.9011,-2.9011,-2.9455,-2.9657,-2.9673,-3.0498,-3.0857,-3.0885,-3.1239,-3.1586,-3.1916,-3.1935,-3.2118,-3.2449,-3.2467,-3.2467,-3.2449,-3.2118,-3.1942,-3.1937,-3.1928,-3.1902,-3.1935,-3.1586,-3.1182,-3.0742,-3.0375,-3.0013,-2.954,-2.9182,-2.8975,-2.8975,-2.8975,-2.8975,-2.8975,-2.8975,-2.8975,0.0,0.0,0.0,0.0,0.0,0.0,0.0,0.0,0.0,0.0,0.0,-3.0209,-3.0182,-3.0311,-3.0398,-3.0398,-3.0398,-3.0398,-3.0398,-3.0398,-3.0398,-3.0398,-3.0398,-3.0398,-3.0398,-3.0398,-3.0417,-3.0487,-3.0479,-3.0694,-3.1118,-3.1261,-3.1211,-3.0918,-3.1133,-3.1406,-3.1484,-3.1777,-3.2012,-3.2012,-3.2422,-3.2734,-3.2773,-3.3105,-3.3379,-3.3379,-3.3379,-3.3379,-3.3379,-3.3379,-3.3379,-3.3379,-3.3379,-3.3476,-3.3809,-3.3633,-3.3359,-3.334,-3.3359,-3.3318,-3.3677,-3.3677,-3.3694,-3.3694,-3.3541,-3.1529,-3.0615,-3.0497,-2.9736,-2.9384,-2.9262,-2.9262,-2.9262,-2.9279,-2.9262,-2.9299,-2.9262,-2.9316,-2.9262,-2.9299,-2.9319,-2.9372,-2.9391,-3.0117,-3.0499,-3.053,-3.1202,-3.1942,-3.2664,-3.2664,-3.3057,-3.3788,-3.3807,-3.3807,-3.3788,-3.3109,-3.275,-3.276,-3.2727,-3.2755,-3.2761,-3.2063,-3.1641,-3.1531,-3.087,-3.0459,-3.0332,-2.9577,-2.9145,-2.9145,-2.9053,-2.8975,-2.8975,-2.8975,-2.8975,0.0,-2.9203,0.0,0.0,0.0,0.0,0.0,0.0,0.0,0.0,-2.9845,-3.0095,-3.0367,-3.0398,-3.0398,-3.0398,-3.0398,-3.0398,-3.0398,-3.0398,-3.0398,-3.0398,-3.0398,-3.0398,-3.0398,-3.0494,-3.059,-3.066,-3.0737,-3.1148,-3.1852,-3.2018,-3.1806,-3.125,-3.1699,-3.2187,-3.2321,-3.2929,-3.3184,-3.3242,-3.3437,-3.3555,-3.3574,-3.3769,-3.3711,-3.3828,-3.3809,-3.3789,-3.3789,-3.3848,-3.3828,-3.373,-3.3789,-3.4043,-3.4746,-3.4824,-3.459,-3.4023,-3.3887,-3.373,-3.5199,-3.5199,-3.5216,-3.5216,-3.5098,-3.4083,-3.3322,-3.273,-3.1985,-3.1326,-3.0784,-3.0784,-3.0768,-3.0784,-3.0768,-3.0784,-3.0784,-3.0784,-3.0784,-3.0806,-3.1116,-3.1265,-3.1301,-3.1809,-3.206,-3.2092,-3.2236,-3.2576,-3.3085,-3.3067,-3.3348,-3.3807,-3.3807,-3.3807,-3.3807,0.0,0.0,0.0,-3.3587,-3.356,-3.3568,-3.344,-3.3036,-3.2394,-3.2228,0.0,-3.1196,-3.0391,-2.9976,-2.9955,-2.9352,0.0,0.0,0.0,0.0,0.0,0.0,0.0,0.0,0.0,0.0,0.0,-2.9341,-2.9447,-2.9454,-2.9625,-2.9946,-3.0355,-3.0398,-3.0398,-3.0398,-3.0398,-3.0398,-3.0398,-3.0398,-3.0398,-3.0398,-3.0398,-3.0398,-3.0398,-3.102,-3.1443,-3.1506,-3.2025,-3.2487,-3.266,-3.2718,-3.2685,-3.2596,-3.2788,-3.2964,-3.3014,-3.3314,-3.3359,-3.332,-3.3984,-3.4453,-3.4531,-3.5098,-3.541,-3.543,-3.5449,-3.5469,-3.543,-3.5508,-3.5469,-3.5469,-3.5508,-3.5469,-3.5723,-3.5742,-3.5703,-3.5547,-3.5488,-3.5508,-3.5639,-3.5639,-3.5639,-3.5639,0.0,-3.5216,-3.4844,-3.4421,-3.3305,-3.2645,-3.2256,-3.1901,-3.1732,-3.1715,-3.1343,-3.119,-3.119,-3.119,-3.119,-3.119,-3.1411,-3.1507,-3.1507,-3.195,-3.2161,-3.2161,-3.2366,-3.2745,-3.3184,-3.3214,-3.339,-3.3807,-3.3807,-3.3807,-3.3807,-3.3807,-3.3807,-3.3807,-3.3807,-3.3807,-3.3807,-3.3807,-3.3605,-3.3201,-3.2816,0.0,0.0,0.0,0.0,0.0,0.0,0.0,0.0,-2.8975,0.0,-2.8975,-2.8975,-2.8975,-2.8975,-2.8975,-2.8975,-2.9017,-2.9127,-2.9329,-2.9532,-2.9643,-2.9848,-3.0169,-3.0209,-3.0254,-3.0379,-3.0398,-3.0398,-3.0398,-3.0398,-3.0398,-3.0436,-3.0794,-3.1044,-3.1129,-3.1763,-3.2301,-3.2295,-3.2622,-3.3083,-3.3468,-3.3545,-3.3718,-3.4103,-3.3936,-3.3867,-3.4332,-3.4464,-3.4512,-3.459,-3.4902,-3.5293,-3.541,-3.5703,-3.5957,-3.6016,-3.6016,-3.6016,-3.6016,-3.6016,-3.6016,-3.6016,-3.6016,-3.6016,-3.6016,-3.6016,-3.6016,-3.6016,-3.6016,-3.6016,-3.5639,-3.5639,-3.5639,-3.5639,-3.5639,-3.5639,-3.5639,-3.552,-3.4201,0.0,0.0,-3.2747,-3.2517,-3.2425,-3.185,-3.1579,-3.1579,-3.1596,-3.1596,-3.1596,-3.1579,-3.1596,-3.1619,-3.1939,-3.2024,-3.1886,-3.2284,-3.2608,-3.2952,-3.3045,-3.3302,-3.368,-3.3762,-3.3807,-3.3807,-3.3807,-3.3807,-3.3807,-3.3807,-3.3807,-3.3807,-3.3807,-3.3807,-3.3807,-3.3164,-3.28,-3.2802,-3.2056,-3.1299,-3.0667,-3.0362,-2.9892,-2.9274,-2.9067,-2.8975,-2.8975,-2.8975,-2.8975,-2.8975,-2.8975,-2.8975,-2.8975,-2.8975,-2.9185,-2.9607,-2.9643,-2.9712,-2.992,-2.9954,-3.0052,-3.0241,-3.0311,-3.0316,-3.034,-3.0513,-3.0641,-3.0679,-3.1395,-3.1903,-3.2,-3.2615,-3.3141,-3.3141,-3.3314,-3.3603,-3.4257,-3.443,-3.4661,-3.5238,-3.4885,-3.4745,-3.5341,-3.5451,-3.5618,-3.5781,-3.5781,-3.5873,-3.584,-3.5898,-3.5953,-3.5954,-3.5976,-3.5976,-3.5976,-3.5996,-3.6016,-3.6016,-3.6016,-3.6016,-3.6016,-3.6016,-3.6016,-3.6016,-3.6016,-3.6016,-3.5639,-3.5639,-3.5639,-3.5639,-3.5639,-3.5639,-3.5639,-3.5554,-3.4709,-3.3998,-3.3389,-3.3305,-3.3254,-3.3237,-3.3136,-3.3102,-3.3085,-3.3085,-3.3085,-3.3085,-3.3102,-3.3102,-3.3085,-3.3168,-3.2853,-3.2258,-3.2287,-3.22,-3.2056,-3.2417,-3.284,-3.3255,-3.3606,-3.3807,-3.3807,-3.3807,-3.3807,-3.3807,-3.3807,-3.3807,-3.3807,-3.3807,-3.3807,-3.3788,-3.3697,-3.3623,-3.3597,-3.2871,-3.2405,-3.2216,-3.0949,-3.0149,-3.0026,-2.9402,-2.8975,-2.8975,-2.8975,-2.8975,-2.8975,-2.8975,-2.8975,-2.8975,-2.8975,-2.9134,-2.9414,-2.9434,-2.9532,-2.9713,-2.9748,-2.9746,-2.9815,-2.9973,-3.0079,-3.017,-3.0936,-3.1487,-3.1511,-3.2247,-3.2743,-3.2749,-3.3492,-3.4019,-3.4083,-3.4603,-3.5007,-3.5238,-3.518,-3.5334,-3.5397,-3.5411,-3.5391,-3.5507,-3.5584,-3.5605,-3.5646,-3.5702,-3.5729,-3.5741,-3.5761,-3.578,-3.5761,-3.5828,-3.5898,-3.5918,-3.5957,-3.5996,-3.5996,-3.6016,-3.5996,-3.5996,-3.5996,-3.6016,-3.6016,-3.6016,-3.6016,-3.5639,-3.5639,-3.5639,-3.5639,-3.5639,-3.5639,-3.5639,-3.5605,-3.5267,-3.4928,-3.459,-3.4184,-3.3998,-3.3964,-3.3575,-3.3389,-3.3389,-3.3389,-3.3389,-3.3389,-3.3389,-3.3389,-3.3389,-3.3389,-3.322,-3.2899,-3.2899,-3.2758,-3.2518,-3.2897,-3.314,-3.325,-3.3625,-3.3807,-3.3807,-3.3807,-3.3807,-3.3807,-3.3807,-3.3807,-3.3807,-3.3807,-3.3807,-3.3807,-3.3807,-3.3807,-3.3788,-3.3458,-3.3057,-3.2629,-3.1895,-3.1102,-3.0246,-2.9861,-2.9457,-2.903,-2.8975,-2.8975,-2.8975,-2.8975,-2.8975,-2.8975,-2.8975,-2.9044,-2.9178,-2.92,-2.927,-2.9513,-2.9533,-2.9589,-2.9678,-2.978,-3.001,-3.0449,-3.1102,-3.1654,-3.2154,-3.3012,-3.359,-3.3678,-3.437,-3.4897,-3.4891,-3.5257,-3.5507,-3.5507,-3.5507,-3.5507,-3.5507,-3.5507,-3.5507,-3.5507,-3.5526,-3.5565,-3.5584,-3.5623,-3.5667,-3.5706,-3.5706,-3.5706,-3.5706,-3.5752,-3.5795,-3.5786,-3.5818,-3.5838,-3.5841,-3.5898,-3.5937,-3.5957,-3.5976,-3.5996,-3.6016,-3.6016,-3.6016,-3.5639,-3.5639,-3.5639,-3.5639,-3.5639,-3.5639,-3.5639,-3.5639,-3.5622,-3.5639,-3.5537,-3.4996,-3.4742,-3.4692,-3.415,-3.3914,-3.3897,-3.3914,-3.3914,-3.3914,-3.3914,-3.3897,-3.3914,-3.3897,-3.3812,-3.3677,-3.3643,-3.3444,-3.3179,-3.335,-3.3312,-3.3086,-3.3361,-3.3532,-3.368,-3.3661,-3.3715,-3.3788,-3.3807,-3.3807,-3.3807,-3.3807,-3.3807,-3.3807,-3.3807,-3.3807,-3.3807,-3.3807,-3.3505,-3.2912,-3.2727,-3.2038,-3.0852,-3.0411,-2.9934,-2.9347,-2.9108,-2.8975,-2.8975,-2.8975,-2.8975,-2.8975,-2.8975,-2.8975,-2.8975,-2.8975,-2.9067,-2.9267,-2.931,-2.9373,-2.9551,-2.9795,-3.0152,-3.0772,-3.1442,-3.2076,-3.2685,-3.3678,-3.4345,-3.4467,-3.5009,-3.5378,-3.5488,-3.5507,-3.5507,-3.5507,-3.5507,-3.5507,-3.5507,-3.5507,-3.5507,-3.5507,-3.5507,-3.5526,-3.5565,-3.5565,-3.5597,-3.5641,-3.5655,-3.5649,-3.5649,-3.5655,-3.5675,-3.5678,-3.5713,-3.5713,-3.571,-3.5774,-3.584,-3.584,-3.5879,-3.5918,-3.5898,-3.5957,-3.5976,-3.5639,-3.5639,-3.5639,-3.5639,-3.5639,-3.5639,-3.5639,-3.5639,-3.5639,-3.5639,-3.5605,-3.5493,-3.5487,-3.5476,-3.5402,-3.5351,-3.5351,-3.5402,-3.5368,-3.5351,-3.5419,-3.5374,-3.5351,-3.5385,-3.5047,-3.4455,-3.4387,-3.4058,-3.3396,-3.3179,-3.2914,-3.2588,-3.2616,-3.289,-3.3237,-3.3268,-3.3423,-3.3788,-3.3807,-3.3807,-3.3807,-3.3807,-3.3807,-3.3807,-3.3807,-3.3807,-3.3807,-3.3807,-3.377,-3.3633,-3.2993,-3.2554,-3.2239,-3.1011,-3.0186,-3.0081,-2.9439,-2.8975,-2.8975,-2.8975,-2.8975,-2.8975,-2.8975,-2.8975,-2.8975,-2.8975,-2.8975,-2.9044,-2.9062,-2.9067,-2.9126,-2.9901,-3.0514,-3.0849,-3.2143,-3.3242,-3.3422,-3.4102,-3.474,-3.4996,-3.5113,-3.5224,-3.5468,-3.5507,-3.5507,-3.5507,-3.5507,-3.5507,-3.5507,-3.5507,-3.5507,-3.5507,-3.5507,-3.5507,-3.5507,-3.5507,-3.5526,-3.5526,-3.5526,-3.5526,-3.5545,-3.5584,-3.5611,-3.5611,-3.5656,-3.5688,-3.5695,-3.5726,-3.5736,-3.5735,-3.5749,-3.5749,-3.5747,-3.5822,-3.5898,-3.5639,-3.5639,-3.5639,-3.5639,-3.5639,-3.5639,-3.5639,-3.5639,-3.5639,-3.5639,-3.5639,-3.5639,-3.5639,-3.5639,-3.5639,-3.5639,-3.5639,-3.5639,-3.5639,-3.5639,-3.5639,-3.5639,-3.5639,-3.5639,-3.5436,-3.5182,-3.5165,-3.4776,-3.4058,-3.3575,-3.344,-3.352,-3.337,-3.3361,-3.3532,-3.3332,-3.3259,-3.3429,-3.3433,-3.3433,-3.3476,-3.368,-3.3807,-3.3807,-3.3807,-3.3807,-3.3807,-3.3807,-3.3807,-3.3788,-3.3505,-3.3075,-3.2632,-3.1946,-3.1396,-3.0925,-3.0155,-2.9512,-2.9012,-2.8975,-2.8975,-2.8975,-2.8975,-2.8975,-2.8975,-2.8975,-2.8975,-2.8975,-2.8994,-2.9159,-2.9641,-3.0107,-3.0729,-3.1658,-3.2654,-3.3414,-3.4124,-3.4586,-3.5038,-3.5303,-3.5327,-3.5359,-3.5468,-3.5507,-3.5507,-3.5507,-3.5507,-3.5507,-3.5507,-3.5507,-3.5507,-3.5507,-3.5507,-3.5507,-3.5507,-3.5507,-3.5507,-3.5507,-3.5507,-3.5507,-3.5507,-3.5526,-3.5545,-3.5545,-3.5565,-3.5584,-3.5578,-3.5622,-3.565,-3.5657,-3.5695,-3.5704,-3.5704,-3.5737,-3.5799,-3.5639,-3.5639,-3.5639,-3.5639,-3.5639,-3.5639,-3.5639,-3.5639,-3.5639,-3.5639,-3.5639,-3.5639,-3.5639,-3.5639,-3.5639,-3.5639,-3.5639,-3.5639,-3.5639,-3.5639,-3.5639,-3.5639,-3.5639,-3.5639,-3.5639,-3.5639,-3.5622,-3.5216,-3.4507,-3.3839,-3.3635,-3.3699,-3.3311,-3.313,-3.3201,-3.2951,-3.2882,-3.2978,-3.3015,-3.3021,-3.3045,-3.3302,-3.355,-3.378,-3.3807,-3.3807,-3.3807,-3.3807,-3.3807,-3.3807,-3.3807,-3.355,-3.2981,-3.2724,-3.2247,-3.1439,-3.065,-2.9953,-2.937,-2.9127,-2.8975,-2.8975,-2.8975,-2.8975,-2.9053,-2.9219,-2.9329,-2.9365,-2.9531,-2.9934,-3.0099,-3.0595,-3.1403,-3.2467,-3.2952,-3.3603,-3.4293,-3.4697,-3.4932,-3.523,-3.5277,-3.5416,-3.5468,-3.5507,-3.5507,-3.5507,-3.5507,-3.5507,-3.5507,-3.5507,-3.5507,-3.5507,-3.5507,-3.5507,-3.5507,-3.5507,-3.5507,-3.5507,-3.5507,-3.5507,-3.5507,-3.5507,-3.5507,-3.5526,-3.5507,-3.5507,-3.5526,-3.5565,-3.568,-3.5622,-3.5674,-3.5751,-3.5605,-3.5669,-3.5681,-3.5639,-3.5639,-3.5639,-3.5639,-3.5639,-3.5639,-3.5639,-3.5639,-3.5639,-3.5639,-3.5639,-3.5639,-3.5639,-3.5639,-3.5639,-3.5639,-3.5639,-3.5639,-3.5639,-3.5639,-3.5639,-3.5639,-3.5639,-3.5639,-3.5639,-3.5639,-3.5622,-3.5267,-3.4523,-3.3812,-3.3066,-3.2474,-3.1953,-3.1637,-3.1969,-3.1996,-3.2113,-3.2466,-3.2543,-3.252,-3.2539,-3.2583,-3.2996,-3.3652,-3.378,-3.3734,-3.377,-3.3788,-3.3788,-3.3807,-3.3788,-3.3733,-3.366,-3.3018,-3.2302,-3.1476,-3.0705,-3.0215,-3.0047,-2.9467,-2.903,-2.8994,-2.9049,-2.9012,-2.914,-2.9769,-3.0136,-3.0155,-3.0797,-3.0999,-3.0613,-3.1513,-3.2331,-3.2669,-3.3293,-3.3732,-3.3842,-3.4186,-3.4383,-3.471,-3.5005,-3.524,-3.5455,-3.5507,-3.5507,-3.5507,-3.5507,-3.5507,-3.5507,-3.5507,-3.5507,-3.5507,-3.5507,-3.5507,-3.5507,-3.5507,-3.5507,-3.5545,-3.5584,-3.5603,-3.5526,-3.5507,-3.5565,-3.5641,-3.5853,-3.5872,-3.5622,-3.5603,-3.5795,-3.5853,-3.5911,-3.5911,-3.5892,-3.568,-3.5637,-3.5639,-3.5639,-3.5639,-3.5639,-3.5639,-3.5639,-3.5639,-3.5639,-3.5639,-3.5639,-3.5639,-3.5639,-3.5639,-3.5639,-3.5639,-3.5639,-3.5639,-3.5639,-3.5639,-3.5639,-3.5639,-3.5639,-3.5639,-3.5639,-3.5639,-3.5639,-3.5622,-3.5487,-3.5209,-3.4738,-3.4191,-3.3515,-3.2988,-3.2616,-3.2265,-3.1929,-3.1895,-3.2039,-3.2046,-3.2046,-3.2074,-3.235,-3.2681,-3.2934,-3.2965,-3.2961,-3.2985,-3.2966,-3.3103,-3.3386,-3.3405,-3.3542,-3.3752,-3.3532,-3.2999,-3.2265,-3.1898,-3.1299,-3.0341,-2.9945,-2.9531,-2.9085,-2.9494,-2.9787,-2.9898,-3.0485,-3.0962,-3.1109,-3.1696,-3.1953,-3.1935,-3.2302,-3.2816,-3.3311,-3.3605,-3.3862,-3.4017,-3.4154,-3.434,-3.4649,-3.4921,-3.5193,-3.5407,-3.5507,-3.5507,-3.5507,-3.5507,-3.5507,-3.5507,-3.5507,-3.5507,-3.5507,-3.5526,-3.5685,-3.6257,-3.5776,-3.5526,-3.568,-3.5815,-3.618,-3.6276,-3.6738,-3.693,-3.6873,-3.6853,-3.6815,-3.6757,-3.6776,-3.6796,-3.6853,-3.6873,-3.6507,-3.6372,-3.6334,-3.6045,-3.5639,-3.5639,-3.5639,-3.5639,-3.5639,-3.5639,-3.5639,-3.5639,-3.5639,-3.5639,-3.5639,-3.5639,-3.5639,-3.5639,-3.5639,-3.5639,-3.5639,-3.5639,-3.5639,-3.5639,-3.5639,-3.5639,-3.5639,-3.5639,-3.5639,-3.5639,-3.5639,-3.5639,-3.5537,-3.5173,-3.4689,-3.4232,-3.3564,-3.2929,-3.2405,-3.1899,-3.16,-3.162,-3.1594,-3.1594,-3.1657,-3.1914,-3.2074,-3.2092,-3.2092,-3.2221,-3.2473,-3.264,-3.285,-3.3143,-3.3198,-3.331,-3.3578,-3.3734,-3.3568,-3.3054,-3.2716,-3.2155,-3.1152,-3.0723,-3.0375,-2.9874,-3.0241,-3.0577,-3.065,-3.1329,-3.1733,-3.1935,-3.2504,-3.2999,-3.2999,-3.2999,-3.322,-3.3715,-3.3807,-3.3844,-3.4054,-3.4154,-3.4363,-3.4652,-3.4829,-3.507,-3.5304,-3.5354,-3.5417,-3.5479,-3.5507,-3.5507,-3.5507,-3.5507,-3.5661,-3.5834,-3.5935,-3.6353,-3.6873,-3.6815,-3.6642,-3.6738,-3.6719,-3.7007,-3.7238,-3.7777,-3.8084,-3.8046,-3.8046,-3.8007,-3.8007,-3.8027,-3.8046,-3.8065,-3.7777,-3.7373,-3.7238,-3.7142,-3.6873,-3.5639,-3.5639,-3.5639,-3.5639,-3.5639,-3.5639,-3.5639,-3.5639,-3.5639,-3.5639,-3.5639,-3.5639,-3.5639,-3.5639,-3.5639,-3.5639,-3.5639,-3.5639,-3.5639,-3.5639,-3.5639,-3.5639,-3.5639,-3.5639,-3.5639,-3.5639,-3.5639,-3.5639,-3.5588,-3.4989,-3.4609,-3.4244,-3.3141,-3.2508,-3.232,-3.1652,-3.1235,-3.123,-3.1263,-3.1247,-3.119,-3.1291,-3.1329,-3.1291,-3.1291,-3.1623,-3.2398,-3.2816,-3.2989,-3.309,-3.3108,-3.3184,-3.328,-3.355,-3.3762,-3.3623,-3.3073,-3.2653,-3.2436,-3.1774,-3.1378,-3.1144,-3.1359,-3.1403,-3.1494,-3.2137,-3.2614,-3.2724,-3.322,-3.3733,-3.3715,-3.3697,-3.3697,-3.3788,-3.3807,-3.3807,-3.3862,-3.4036,-3.4328,-3.4596,-3.4693,-3.4812,-3.5018,-3.5105,-3.5174,-3.5339,-3.5383,-3.5383,-3.5422,-3.5499,-3.5883,-3.6363,-3.6685,-3.7065,-3.7565,-3.8007,-3.8027,-3.8027,-3.795,-3.8027,-3.8084,-3.845,-3.8719,-3.8757,-3.8796,-3.8777,-3.8796,-3.8796,-3.8661,-3.8623,-3.8354,-3.8277,-3.8104,-3.7988,-3.7873,-3.5639,-3.5639,-3.5639,-3.5639,-3.5639,-3.5639,-3.5639,-3.5639,-3.5639,-3.5639,-3.5639,-3.5639,-3.5639,-3.5639,-3.5639,-3.5639,-3.5639,-3.5639,-3.5639,-3.5639,-3.5639,-3.5639,-3.5639,-3.5639,-3.5639,-3.5639,-3.5639,-3.5639,-3.5588,-3.5368,-3.5047,-3.4387,-3.3541,-3.2797,-3.229,-3.1579,-3.119,-3.119,-3.119,-3.119,-3.119,-3.119,-3.119,-3.119,-3.119,-3.1368,-3.16,-3.174,-3.1966,-3.2258,-3.2239,-3.2521,-3.3069,-3.3321,-3.3541,-3.3762,-3.3587,-3.3111,-3.2629,-3.2397,-3.1983,-3.1638,-3.1909,-3.2173,-3.2291,-3.2926,-3.3385,-3.3403,-3.3678,-3.3807,-3.3807,-3.3807,-3.3807,-3.3807,-3.3807,-3.3807,-3.3825,-3.388,-3.4036,-3.4281,-3.4346,-3.4505,-3.4734,-3.4813,-3.4851,-3.4982,-3.5,-3.5038,-3.5076,-3.5692,-3.6045,-3.6389,-3.6983,-3.7794,-3.8377,-3.878,-3.8927,-3.8942,-3.8939,-3.8892,-3.895,-3.9104,-3.9335,-3.945,-3.9488,-3.9508,-3.9546,-3.9508,-3.9392,-3.9527,-3.9604,-3.9373,-3.9027,-3.8834,-3.8738,-3.5639,-3.5639,-3.5639,-3.5639,-3.5639,-3.5639,-3.5639,-3.5639,-3.5639,-3.5639,-3.5639,-3.5639,-3.5639,-3.5639,-3.5639,-3.5639,-3.5639,-3.5639,-3.5639,-3.5639,-3.5639,-3.5639,-3.5639,-3.5639,-3.5639,-3.5639,-3.5639,-3.5639,-3.5639,-3.5622,-3.5368,-3.4861,-3.4184,-3.344,-3.272,-3.1998,-3.1506,-3.1241,-3.119,-3.119,-3.119,-3.119,-3.119,-3.119,-3.119,-3.119,-3.119,-3.119,-3.1376,-3.1741,-3.1933,-3.2287,-3.2677,-3.284,-3.3136,-3.3494,-3.356,-3.3378,-3.3076,-3.3083,-3.2845,-3.247,-3.2753,-3.3036,-3.3117,-3.3587,-3.3788,-3.3807,-3.3807,-3.3807,-3.3807,-3.3807,-3.3807,-3.3807,-3.3807,-3.3807,-3.3807,-3.3807,-3.3862,-3.4034,-3.4053,-3.4189,-3.4401,-3.4508,-3.4572,-3.4672,-3.4958,-3.5147,-3.5337,-3.6006,-3.6444,-3.6939,-3.7585,-3.8384,-3.9183,-3.9524,-3.9766,-3.9816,-3.9849,-3.9781,-3.9758,-3.9912,-4.0123,-4.0085,-4.0104,-4.0046,-4.0065,-4.0162,-4.0162,-4.0469,-4.0489,-4.0162,-3.9719,-3.9738,-3.9642,-3.5639,-3.5639,-3.5639,-3.5639,-3.5639,-3.5639,-3.5639,-3.5639,-3.5639,-3.5639,-3.5639,-3.5639,-3.5639,-3.5639,-3.5639,-3.5639,-3.5639,-3.5639,-3.5723,-3.5757,-3.5774,-3.5774,-3.5639,-3.5639,-3.5639,-3.5639,-3.5639,-3.5639,-3.5639,-3.5639,-3.556,-3.547,-3.4742,-3.415,-3.3431,-3.2747,-3.2015,-3.1467,-3.1348,-3.1314,-3.1207,-3.119,-3.119,-3.119,-3.119,-3.119,-3.119,-3.119,-3.1348,-3.1786,-3.2073,-3.2144,-3.1986,-3.223,-3.2663,-3.3105,-3.3136,-3.3361,-3.3616,-3.3579,-3.3588,-3.3542,-3.3605,-3.3807,-3.3715,-3.3733,-3.3807,-3.3807,-3.3807,-3.3807,-3.3807,-3.3807,-3.3807,-3.3807,-3.3807,-3.3807,-3.3807,-3.3807,-3.3825,-3.3825,-3.3815,-3.3976,-3.437,-3.4431,-3.4666,-3.4914,-3.5487,-3.5747,-3.6013,-3.6521,-3.7359,-3.7841,-3.8153,-3.8774,-3.9485,-3.9583,-3.9776,-3.9814,-3.9966,-4.0072,-4.0188,-4.0377,-4.0489,-4.0489,-4.0473,-4.0489,-4.0489,-4.0489,-4.0489,-4.0489,-4.0489,-4.0489,-4.0412,-4.0277,-4.02,-3.5639,-3.5639,-3.5639,-3.5639,-3.5639,-3.5639,-3.5639,-3.5639,-3.5639,-3.5639,-3.5639,-3.5639,-3.5639,-3.5639,-3.5639,-3.5639,-3.5639,-3.5639,-3.5994,-3.6434,-3.6485,-3.6113,-3.5723,-3.5639,-3.5639,-3.5639,-3.5639,-3.5639,-3.5639,-3.5639,-3.5639,-3.5588,-3.4928,-3.4438,-3.4109,-3.3441,-3.2724,-3.2116,-3.2026,-3.1732,-3.1348,-3.1224,-3.119,-3.119,-3.119,-3.119,-3.119,-3.119,-3.1207,-3.1331,-3.1457,-3.164,-3.1789,-3.1915,-3.2196,-3.2583,-3.2713,-3.2872,-3.3243,-3.3361,-3.3476,-3.378,-3.3707,-3.3807,-3.3807,-3.3807,-3.3807,-3.3807,-3.3807,-3.3807,-3.3807,-3.3807,-3.3807,-3.3807,-3.3862,-3.388,-3.3862,-3.3807,-3.3807,-3.3862,-3.4357,-3.4669,-3.487,-3.5274,-3.5642,-3.5814,-3.6051,-3.6255,-3.6482,-3.7094,-3.7897,-3.819,-3.8531,-3.91,-3.9551,-3.9633,-3.9675,-3.9656,-3.9804,-3.9948,-4.0135,-4.0383,-4.0473,-4.0489,-4.0441,-4.0406,-4.0473,-4.0489,-4.0489,-4.0489,-4.0489,-4.0489,-4.0489,-4.0412,-4.0392,-3.591,-3.5639,-3.5639,-3.5639,-3.5639,-3.5639,-3.5639,-3.5639,-3.5639,-3.5639,-3.5639,-3.5639,-3.5639,-3.5639,-3.5639,-3.5639,-3.5639,-3.5639,-3.6045,-3.6738,-3.7094,-3.6823,-3.6282,-3.6113,-3.5943,-3.5639,-3.5639,-3.5639,-3.5639,-3.5639,-3.5639,-3.5571,-3.5182,-3.4827,-3.4438,-3.41,-3.3502,-3.2872,-3.2768,-3.249,-3.2138,-3.1782,-3.1664,-3.1562,-3.1393,-3.119,-3.119,-3.119,-3.119,-3.119,-3.123,-3.1329,-3.1507,-3.1545,-3.175,-3.2179,-3.2213,-3.2417,-3.2777,-3.2921,-3.3014,-3.3196,-3.3255,-3.3356,-3.3488,-3.3543,-3.3597,-3.3762,-3.3807,-3.3807,-3.3807,-3.3807,-3.3807,-3.3844,-3.41,-3.4266,-3.432,-3.4348,-3.4504,-3.4816,-3.5238,-3.5569,-3.5522,-3.6046,-3.6229,-3.635,-3.6609,-3.6728,-3.694,-3.7701,-3.8238,-3.8459,-3.8579,-3.8976,-3.9212,-3.9308,-3.9383,-3.9408,-3.9529,-3.9694,-3.9732,-4.0042,-4.008,-4.0099,-4.0229,-4.0262,-4.0128,-4.0197,-4.0489,-4.0489,-4.0489,-4.045,-4.0431,-4.0489,-4.0489,-3.6332,-3.5639,-3.5639,-3.5639,-3.5639,-3.5639,-3.5639,-3.5639,-3.5639,-3.5639,-3.5639,-3.5639,-3.5639,-3.5639,-3.5639,-3.5639,-3.5639,-3.5639,-3.6214,-3.6992,-3.7686,-3.7821,-3.7161,-3.6738,-3.6383,-3.591,-3.5707,-3.5639,-3.5639,-3.5639,-3.5639,-3.5605,-3.5571,-3.5267,-3.4861,-3.4651,-3.4218,-3.3626,-3.3533,-3.338,-3.3102,-3.2662,-3.2408,-3.2341,-3.1952,-3.1585,-3.145,-3.1382,-3.1326,-3.119,-3.119,-3.123,-3.123,-3.123,-3.1389,-3.166,-3.1752,-3.1933,-3.235,-3.2417,-3.2484,-3.2565,-3.2583,-3.2656,-3.3008,-3.3105,-3.3273,-3.3615,-3.3726,-3.3734,-3.3807,-3.3807,-3.3925,-3.4072,-3.4614,-3.4954,-3.5202,-3.5193,-3.5449,-3.6182,-3.6292,-3.6413,-3.6431,-3.6505,-3.6615,-3.7202,-3.7404,-3.7533,-3.7679,-3.8118,-3.8472,-3.8589,-3.8663,-3.8695,-3.8844,-3.8923,-3.9017,-3.9082,-3.9242,-3.9302,-3.9057,-3.9226,-3.9381,-3.9451,-3.924,-3.9223,-3.9338,-3.9603,-3.9931,-4.0034,-3.973,-4.0011,-4.0315,-4.0431,-4.0489,-3.6332,-3.5639,-3.5639,-3.5639,-3.5639,-3.5639,-3.5639,-3.5639,-3.5639,-3.5639,-3.5639,-3.5639,-3.5639,-3.5639,-3.5639,-3.5639,-3.5639,-3.5723,-3.6315,-3.7753,-3.9056,-3.9123,-3.8311,-3.7381,-3.6721,-3.6383,-3.5876,-3.5656,-3.5639,-3.5639,-3.5639,-3.5639,-3.5622,-3.5537,-3.5385,-3.5267,-3.5013,-3.4387,-3.4261,-3.4007,-3.3575,-3.3339,-3.3136,-3.3085,-3.2916,-3.2591,-3.2179,-3.2066,-3.1765,-3.136,-3.119,-3.119,-3.119,-3.119,-3.1252,-3.1312,-3.1372,-3.1545,-3.1878,-3.1968,-3.2092,-3.2384,-3.2384,-3.2537,-3.261,-3.2666,-3.288,-3.3196,-3.3327,-3.3447,-3.3707,-3.3807,-3.4109,-3.4559,-3.4972,-3.5614,-3.6501,-3.6384,-3.6208,-3.6461,-3.6923,-3.7239,-3.7305,-3.7771,-3.7955,-3.8138,-3.823,-3.8395,-3.8487,-3.8579,-3.8634,-3.8707,-3.8707,-3.8707,-3.8719,-3.8803,-3.8844,-3.8884,-3.9008,-3.9027,-3.8774,-3.8439,-3.8602,-3.8413,-3.8045,-3.8144,-3.8353,-3.8328,-3.8513,-3.8697,-3.8958,-3.9205,-3.949,-3.9925,-4.0216,-3.6637,-3.5656,-3.5639,-3.5639,-3.5639,-3.5639,-3.5639,-3.5639,-3.5639,-3.5639,-3.5639,-3.5639,-3.5639,-3.5639,-3.5639,-3.5639,-3.574,-3.6028,-3.6569,-3.7584,-3.8768,-3.9106,-3.8548,-3.7736,-3.7161,-3.6738,-3.5994,-3.5656,-3.5639,-3.5639,-3.5639,-3.5639,-3.5639,-3.5622,-3.5639,-3.5639,-3.5419,-3.5115,-3.504,-3.4776,-3.4472,-3.4083,-3.3677,-3.3474,-3.3389,-3.316,-3.287,-3.2456,-3.2116,-3.1726,-3.1399,-3.1207,-3.119,-3.119,-3.119,-3.119,-3.119,-3.1252,-3.147,-3.1545,-3.162,-3.1878,-3.1896,-3.2002,-3.2107,-3.2162,-3.2385,-3.2734,-3.2908,-3.3045,-3.3484,-3.4193,-3.4578,-3.5009,-3.5744,-3.652,-3.7174,-3.7106,-3.7044,-3.7339,-3.7821,-3.801,-3.8267,-3.8524,-3.856,-3.8414,-3.8432,-3.8579,-3.8579,-3.8652,-3.867,-3.8707,-3.8707,-3.8707,-3.8707,-3.8719,-3.8719,-3.8762,-3.8792,-3.8796,-3.8641,-3.8238,-3.7869,-3.753,-3.7197,-3.7174,-3.7314,-3.7253,-3.73,-3.77,-3.8004,-3.823,-3.8497,-3.8823,-3.909,-3.6907,-3.5639,-3.5639,-3.5639,-3.5639,-3.5639,-3.5639,-3.5639,-3.5639,-3.5639,-3.5639,-3.5639,-3.5639,-3.5639,-3.5639,-3.5639,-3.5825,-3.6366,-3.684,-3.7077,-3.821,-3.8447,-3.8024,-3.7669,-3.7263,-3.6721,-3.5994,-3.5656,-3.5639,-3.5639,-3.5639,-3.5639,-3.5639,-3.5639,-3.5639,-3.5639,-3.5588,-3.5504,-3.5487,-3.5487,-3.5402,-3.4912,-3.4387,-3.4066,-3.3947,-3.3803,-3.3558,-3.3102,-3.2642,-3.2423,-3.1862,-3.1619,-3.1478,-3.1241,-3.119,-3.119,-3.119,-3.1213,-3.1252,-3.1269,-3.1252,-3.119,-3.123,-3.1389,-3.164,-3.175,-3.1933,-3.2318,-3.2641,-3.2965,-3.3296,-3.4178,-3.4841,-3.5367,-3.6522,-3.7284,-3.7571,-3.7601,-3.7979,-3.8377,-3.8401,-3.8432,-3.8505,-3.867,-3.8689,-3.8707,-3.8707,-3.8707,-3.8707,-3.8707,-3.8707,-3.8707,-3.8707,-3.8707,-3.8707,-3.8707,-3.8707,-3.8707,-3.8707,-3.856,-3.845,-3.8029,-3.7489,-3.6768,-3.6461,-3.6389,-3.6205,-3.6062,-3.6252,-3.6729,-3.7005,-3.7185,-3.7428,-3.7718,-3.808,-3.6451,-3.5639,-3.5639,-3.5639,-3.5639,-3.5639,-3.5639,-3.5639,-3.5639,-3.5639,-3.5639,-3.5639,-3.5639,-3.5639,-3.5639,-3.5639,-3.5808,-3.6315,-3.6688,-3.6823,-3.7652,-3.7889,-3.7635,-3.7297,-3.6924,-3.6637,-3.6028,-3.5639,-3.5639,-3.5639,-3.5639,-3.5639,-3.5639,-3.5639,-3.5639,-3.5639,-3.5639,-3.5639,-3.5639,-3.5639,-3.5571,-3.5436,-3.5267,-3.5013,-3.4996,-3.4756,-3.4425,-3.4165,-3.3872,-3.3296,-3.3102,-3.3017,-3.2696,-3.1884,-3.1427,-3.1393,-3.1427,-3.1478,-3.1444,-3.1309,-3.1224,-3.119,-3.1326,-3.1309,-3.1431,-3.1453,-3.1819,-3.2208,-3.2897,-3.3439,-3.3559,-3.4403,-3.5059,-3.5693,-3.636,-3.713,-3.7679,-3.8083,-3.8346,-3.8548,-3.8621,-3.8707,-3.8707,-3.8707,-3.8707,-3.8707,-3.8707,-3.8707,-3.8707,-3.8707,-3.8707,-3.8707,-3.8707,-3.8707,-3.8707,-3.8707,-3.8707,-3.8707,-3.8634,-3.8395,-3.8175,-3.7753,-3.7195,-3.6765,-3.5919,-3.5339,-3.5129,-3.5027,-3.4987,-3.5306,-3.5672,-3.609,-3.6283,-3.655,-3.7468,-3.6332,-3.5639,-3.5639,-3.5639,-3.5639,-3.5639,-3.5639,-3.5639,-3.5639,-3.5639,-3.5639,-3.5639,-3.5639,-3.5639,-3.5639,-3.5639,-3.5712,-3.5943,-3.618,-3.6349,-3.6924,-3.706,-3.6924,-3.6705,-3.6518,-3.6214,-3.5791,-3.5639,-3.5639,-3.5639,-3.5639,-3.5639,-3.5639,-3.5639,-3.5639,-3.5639,-3.5639,-3.5639,-3.5639,-3.5639,-3.5639,-3.5639,-3.5639,-3.5639,-3.5622,-3.538,-3.5144,-3.4604,-3.4361,-3.3936,-3.3617,-3.3457,-3.3203,-3.2882,-3.2341,-3.2357,-3.2307,-3.2307,-3.2307,-3.233,-3.2405,-3.2341,-3.2297,-3.233,-3.2324,-3.2432,-3.236,-3.2723,-3.3211,-3.3857,-3.3875,-3.4707,-3.5438,-3.5901,-3.6471,-3.7052,-3.7507,-3.8012,-3.8218,-3.8332,-3.8468,-3.8572,-3.8707,-3.8707,-3.8707,-3.8707,-3.8707,-3.8707,-3.8707,-3.8707,-3.8707,-3.8707,-3.8707,-3.8707,-3.8707,-3.8707,-3.8707,-3.8707,-3.867,-3.8414,-3.8303,-3.8046,-3.7643,-3.7195,-3.6156,-3.5165,-3.4687,-3.4737,-3.4338,-3.4012,-3.4531,-3.4963,-3.5075,-3.5466,-3.6478,-3.587,-3.5424,-3.5253,-3.5207,-3.5207,-3.5224,-3.5161,-3.5207,-3.5161,-3.5115,-3.5207,-3.5161,-3.5207,-3.5407,-3.5532,-3.5532,-3.5453,-3.5503,-3.569,-3.5808,-3.6231,-3.6197,-3.6011,-3.6079,-3.6231,-3.5825,-3.5673,-3.5639,-3.5639,-3.5639,-3.5639,-3.5639,-3.5639,-3.5639,-3.5639,-3.5639,-3.5639,-3.5639,-3.5639,-3.5639,-3.5639,-3.5639,-3.5639,-3.5639,-3.5639,-3.5622,-3.5459,-3.5115,-3.4868,-3.4594,-3.4283,-3.3914,-3.3863,-3.3846,-3.3846,-3.3812,-3.3609,-3.3423,-3.3322,-3.3279,-3.3143,-3.3136,-3.3322,-3.3372,-3.333,-3.3152,-3.3271,-3.349,-3.3874,-3.4174,-3.43,-3.5188,-3.5692,-3.5945,-3.6464,-3.7031,-3.7113,-3.7415,-3.7713,-3.7935,-3.8237,-3.8455,-3.8528,-3.8707,-3.8707,-3.8707,-3.8707,-3.8707,-3.8707,-3.8707,-3.8707,-3.8707,-3.8707,-3.8707,-3.8707,-3.8707,-3.8707,-3.8707,-3.8707,-3.8579,-3.8597,-3.8579,-3.812,-3.7661,-3.6835,-3.5899,-3.5238,-3.4559,-3.4328,-3.4115,-3.3907,-3.3997,-3.4349,-3.4884,-3.5742,-3.4267,-3.4688,-3.4087,-3.3836,-3.3887,-3.3937,-3.3887,-3.3887,-3.3953,-3.3836,-3.3987,-3.3937,-3.4235,-3.4688,-3.5316,-3.5207,-3.5005,-3.527,-3.5424,-3.5412,-3.5701,-3.578,-3.5577,-3.5673,-3.5734,-3.5424,-3.547,-3.5639,-3.5487,-3.5487,-3.5639,-3.5639,-3.5639,-3.5639,-3.5639,-3.5639,-3.5639,-3.5639,-3.5639,-3.5639,-3.5639,-3.5639,-3.5639,-3.5639,-3.5639,-3.5639,-3.5639,-3.5419,-3.5374,-3.5374,-3.5357,-3.5334,-3.5368,-3.5368,-3.5368,-3.4979,-3.4286,-3.3406,-3.3541,-3.3626,-3.3685,-3.3719,-3.3597,-3.3436,-3.3599,-3.366,-3.366,-3.3423,-3.4033,-3.4491,-3.4644,-3.5197,-3.5538,-3.5805,-3.6136,-3.6446,-3.6596,-3.6935,-3.7195,-3.7358,-3.763,-3.8068,-3.8364,-3.8546,-3.8707,-3.8707,-3.8707,-3.8707,-3.8707,-3.8707,-3.8707,-3.8707,-3.8707,-3.8707,-3.8707,-3.8707,-3.8707,-3.8707,-3.8707,-3.8707,-3.8707,-3.8707,-3.8689,-3.8157,-3.7367,-3.6597,-3.5826,-3.5165,-3.4596,-3.4229,-3.4027,-3.3899,-3.387,-3.4504,-3.5265,-3.3061,-3.3971,-3.3735,-3.3582,-3.3582,-3.3582,-3.3582,-3.3582,-3.3582,-3.3582,-3.3582,-3.3582,-3.3786,-3.4087,-3.4399,-3.4301,-3.4235,-3.4736,-3.48,-3.48,-3.5115,-3.5362,-3.5098,-3.5052,-3.5052,-3.4958,-3.4657,-3.4399,-3.4657,-3.5224,-3.5639,-3.5532,-3.5577,-3.5639,-3.5577,-3.5577,-3.5639,-3.5639,-3.5639,-3.5639,-3.5639,-3.5639,-3.5639,-3.5639,-3.5639,-3.5639,-3.5639,-3.5639,-3.5639,-3.5639,-3.5639,-3.5622,-3.5622,-3.5605,-3.5605,-3.5554,-3.5081,-3.4709,-3.4709,-3.4624,-3.4573,-3.4597,-3.46,-3.4711,-3.4631,-3.4607,-3.4607,-3.4692,-3.4928,-3.5081,-3.5115,-3.5419,-3.5554,-3.5711,-3.5854,-3.5895,-3.6127,-3.6457,-3.6776,-3.6887,-3.701,-3.7443,-3.7844,-3.7998,-3.8285,-3.8596,-3.8627,-3.8658,-3.8658,-3.8707,-3.8707,-3.8707,-3.8707,-3.8707,-3.8707,-3.8707,-3.8707,-3.8707,-3.8707,-3.8707,-3.8707,-3.8707,-3.8707,-3.8707,-3.823,-3.7386,-3.6468,-3.5697,-3.5073,-3.4578,-3.4119,-3.4156,-3.4247,-3.4614,-3.5495,-3.2104,-3.3077,-3.3077,-3.3077,-3.3093,-3.3061,-3.3077,-3.3077,-3.3024,-3.3024,-3.313,-3.3166,-3.3235,-3.3235,-3.3443,-3.3649,-3.3443,-3.4053,-3.3987,-3.4137,-3.4447,-3.4688,-3.4479,-3.4333,-3.4333,-3.4333,-3.4003,-3.3786,-3.3987,-3.4447,-3.4975,-3.5115,-3.5161,-3.527,-3.5362,-3.5515,-3.5639,-3.5639,-3.5639,-3.5639,-3.5639,-3.5639,-3.5639,-3.5639,-3.5639,-3.5639,-3.5639,-3.5639,-3.5639,-3.5639,-3.5639,-3.5639,-3.5639,-3.5639,-3.5639,-3.5622,-3.5419,-3.5436,-3.5419,-3.5436,-3.5622,-3.5639,-3.5639,-3.5408,-3.5459,-3.5639,-3.5605,-3.5436,-3.5504,-3.5554,-3.5622,-3.5622,-3.5622,-3.5639,-3.5667,-3.5622,-3.5684,-3.6051,-3.6251,-3.6233,-3.6405,-3.671,-3.7062,-3.7321,-3.7738,-3.8318,-3.8515,-3.8578,-3.8658,-3.8707,-3.8707,-3.8707,-3.8707,-3.8707,-3.8658,-3.8676,-3.8707,-3.8658,-3.8658,-3.8707,-3.8707,-3.8707,-3.8707,-3.8707,-3.8658,-3.8322,-3.7496,-3.6486,-3.555,-3.533,-3.5073,-3.478,-3.4798,-3.5165,-3.5917,-3.1524,-3.1625,-3.1682,-3.1724,-3.1739,-3.1625,-3.1682,-3.1838,-3.1739,-3.1781,-3.1936,-3.2272,-3.2312,-3.2145,-3.2826,-3.3077,-3.2695,-3.3391,-3.3443,-3.3531,-3.3684,-3.3786,-3.3684,-3.3684,-3.3684,-3.3633,-3.3339,-3.3339,-3.3531,-3.3427,-3.3735,-3.3786,-3.435,-3.4592,-3.4781,-3.5057,-3.5278,-3.5311,-3.5316,-3.5424,-3.547,-3.5515,-3.5532,-3.5577,-3.5639,-3.5639,-3.5639,-3.5639,-3.5639,-3.5639,-3.5639,-3.5639,-3.5639,-3.5639,-3.5639,-3.5639,-3.5639,-3.5639,-3.5639,-3.5639,-3.5639,-3.5639,-3.5639,-3.5639,-3.5639,-3.5639,-3.5639,-3.5639,-3.5639,-3.5639,-3.5639,-3.5639,-3.5639,-3.5639,-3.5639,-3.5639,-3.5639,-3.5639,-3.5779,-3.5701,-3.5851,-3.6208,-3.6354,-3.662,-3.721,-3.7826,-3.8234,-3.83,-3.8627,-3.8707,-3.8707,-3.8707,-3.8707,-3.8676,-3.8658,-3.8627,-3.8627,-3.8546,-3.8465,-3.8596,-3.8707,-3.8676,-3.835,-3.8546,-3.8465,-3.8504,-3.8505,-3.7539,-3.6769,-3.6395,-3.6028,-3.5642,-3.5789,-3.6266,-3.7074,-3.1467,-3.1467,-3.1467,-3.1467,-3.1467,-3.1467,-3.1467,-3.1467,-3.1467,-3.1467,-3.1539,-3.1739,-3.1739,-3.1739,-3.1894,-3.2216,-3.2064,-3.268,-3.2664,-3.2772,-3.3024,-3.3287,-3.3198,-3.3002,-3.3002,-3.2879,-3.261,-3.2296,-3.2256,-3.2461,-3.2312,-3.2625,-3.3427,-3.3836,-3.4154,-3.4325,-3.4432,-3.4446,-3.4464,-3.456,-3.4941,-3.4988,-3.5144,-3.5577,-3.5639,-3.5639,-3.5639,-3.5639,-3.5639,-3.5639,-3.5639,-3.5639,-3.5639,-3.5639,-3.5639,-3.5639,-3.5639,-3.5639,-3.5639,-3.5639,-3.5639,-3.5639,-3.5639,-3.5639,-3.5639,-3.5639,-3.5639,-3.5639,-3.5639,-3.5639,-3.5639,-3.5639,-3.5639,-3.5639,-3.5639,-3.5639,-3.5639,-3.5639,-3.5639,-3.5639,-3.5622,-3.5773,-3.5844,-3.5941,-3.6586,-3.7285,-3.7649,-3.8032,-3.8318,-3.8515,-3.8483,-3.8433,-3.8433,-3.8318,-3.8267,-3.8382,-3.8546,-3.8382,-3.8216,-3.8318,-3.8336,-3.7861,-3.7703,-3.7964,-3.8216,-3.8165,-3.8158,-3.8253,-3.7876,-3.7246,-3.6798,-3.6413,-3.678,-3.7312,-3.79,-3.1467,-3.1467,-3.1467,-3.1467,-3.1467,-3.1467,-3.1467,-3.1467,-3.1467,-3.1467,-3.1467,-3.1467,-3.1467,-3.1467,-3.1524,-3.1582,-3.1697,-3.2007,-3.191,-3.2048,-3.2351,-3.2625,-3.2422,-3.2272,-3.2272,-3.212,-3.1853,-3.1582,-3.1625,-3.1524,-3.164,-3.1951,-3.2407,-3.2933,-3.3351,-3.3534,-3.3567,-3.359,-3.3641,-3.3793,-3.4284,-3.4333,-3.4431,-3.4958,-3.5068,-3.5227,-3.5335,-3.5442,-3.5639,-3.5639,-3.5639,-3.5639,-3.5639,-3.5639,-3.5639,-3.5622,-3.5622,-3.5622,-3.5639,-3.5639,-3.5639,-3.5639,-3.5639,-3.5639,-3.5639,-3.5639,-3.5639,-3.5639,-3.5639,-3.5639,-3.5639,-3.5639,-3.5639,-3.5639,-3.5639,-3.5639,-3.5639,-3.5639,-3.5639,-3.5639,-3.5622,-3.5622,-3.565,-3.5739,-3.6165,-3.6825,-3.7285,-3.7596,-3.7773,-3.7982,-3.8034,-3.8034,-3.8034,-3.7895,-3.7773,-3.7861,-3.7929,-3.7861,-3.7738,-3.7826,-3.7738,-3.7323,-3.7173,-3.756,-3.7703,-3.7703,-3.7719,-3.7733,-3.7885,-3.7943,-3.7546,-3.7204,-3.7551,-3.8028,-3.8138,-3.1467,-3.1467,-3.1467,-3.1467,-3.1467,-3.1467,-3.1467,-3.1467,-3.1467,-3.1467,-3.1467,-3.1467,-3.1467,-3.1467,-3.1467,-3.1467,-3.1524,-3.1582,-3.1582,-3.1682,-3.1781,-3.1697,-3.164,-3.1682,-3.1739,-3.1582,-3.1467,-3.1467,-3.1467,-3.1467,-3.1467,-3.1467,-3.1838,-3.2104,-3.2625,-3.3271,-3.3566,-3.3555,-3.3472,-3.3466,-3.3603,-3.3633,-3.3751,-3.4037,-3.4382,-3.4603,-3.4717,-3.4977,-3.5144,-3.5224,-3.5224,-3.5224,-3.527,-3.5407,-3.547,-3.5453,-3.556,-3.5622,-3.5639,-3.5639,-3.5639,-3.5639,-3.5639,-3.5639,-3.5639,-3.5639,-3.5639,-3.5639,-3.5639,-3.5639,-3.5639,-3.5639,-3.5639,-3.5639,-3.5639,-3.5639,-3.5639,-3.5639,-3.5639,-3.5639,-3.5639,-3.5622,-3.5622,-3.5667,-3.5898,-3.6374,-3.6882,-3.719,-3.736,-3.7524,-3.7614,-3.765,-3.7685,-3.7451,-3.7323,-3.7285,-3.7303,-3.7248,-3.7248,-3.736,-3.7285,-3.702,-3.702,-3.7173,-3.721,-3.7173,-3.721,-3.723,-3.7487,-3.7805,-3.8182,-3.8123,-3.8449,-3.8499,-3.8418,-3.1467,-3.1467,-3.1467,-3.1467,-3.1467,-3.1467,-3.1467,-3.1467,-3.1467,-3.1467,-3.1467,-3.1467,-3.1467,-3.1467,-3.1467,-3.1467,-3.1467,-3.1467,-3.1467,-3.1467,-3.1467,-3.1524,-3.1467,-3.1467,-3.1467,-3.1467,-3.1467,-3.1467,-3.1467,-3.1467,-3.1467,-3.1467,-3.1524,-3.164,-3.1853,-3.2145,-3.2201,-3.2176,-3.2224,-3.2379,-3.2873,-3.2949,-3.3145,-3.3479,-3.377,-3.3925,-3.3938,-3.4329,-3.4447,-3.4431,-3.4448,-3.4399,-3.4496,-3.464,-3.4941,-3.5035,-3.5191,-3.5622,-3.5639,-3.5639,-3.5639,-3.5577,-3.5622,-3.5622,-3.5639,-3.5639,-3.5639,-3.5639,-3.5639,-3.5639,-3.5639,-3.5639,-3.5639,-3.5639,-3.5639,-3.5639,-3.5639,-3.5639,-3.5639,-3.5639,-3.5639,-3.5639,-3.5639,-3.5639,-3.5783,-3.5941,-3.6399,-3.6843,-3.7058,-3.721,-3.734,-3.734,-3.7303,-3.7038,-3.6843,-3.6825,-3.6764,-3.6684,-3.6764,-3.6865,-3.6746,-3.6586,-3.6545,-3.6586,-3.6643,-3.6684,-3.6684,-3.6786,-3.721,-3.7578,-3.7667,-3.7929,-3.808,-3.8096,-3.8062,-3.1467,-3.1467,-3.1467,-3.1467,-3.1467,-3.1467,-3.1467,-3.1467,-3.1467,-3.1467,-3.1467,-3.1467,-3.1467,-3.1467,-3.1467,-3.1467,-3.1467,-3.1467,-3.1467,-3.1467,-3.1467,-3.1467,-3.1467,-3.1467,-3.1467,-3.1467,-3.1467,-3.1467,-3.1467,-3.1467,-3.1467,-3.1467,-3.1467,-3.1524,-3.1582,-3.1582,-3.1625,-3.164,-3.173,-3.1814,-3.2104,-3.2272,-3.2422,-3.2772,-3.3045,-3.3252,-3.3299,-3.3393,-3.3587,-3.3577,-3.3582,-3.3563,-3.3735,-3.3937,-3.4235,-3.4431,-3.4592,-3.4855,-3.4834,-3.4844,-3.4841,-3.5155,-3.5414,-3.5622,-3.5639,-3.5639,-3.5639,-3.5639,-3.5639,-3.5639,-3.5639,-3.5639,-3.5639,-3.5639,-3.5639,-3.5639,-3.5639,-3.5639,-3.5639,-3.5639,-3.5639,-3.5639,-3.5639,-3.5639,-3.5667,-3.5783,-3.5924,-3.6316,-3.6684,-3.6724,-3.6803,-3.6803,-3.6724,-3.644,-3.6291,-3.6333,-3.6249,-3.6156,-3.6266,-3.6399,-3.6249,-3.6079,-3.6037,-3.6011,-3.6097,-3.6182,-3.6224,-3.6374,-3.6603,-3.6684,-3.6643,-3.702,-3.7542,-3.7649,-3.7649,-3.1467,-3.1467,-3.1467,-3.1467,-3.1467,-3.1465,-3.1392,-3.1467,-3.1467,-3.1467,-3.1467,-3.1467,-3.1467,-3.1467,-3.1467,-3.1467,-3.1467,-3.1467,-3.1467,-3.1467,-3.1467,-3.1467,-3.1467,-3.1467,-3.1467,-3.1467,-3.1467,-3.1467,-3.1467,-3.1467,-3.1467,-3.1467,-3.1467,-3.1467,-3.1467,-3.1467,-3.1467,-3.1467,-3.1524,-3.1582,-3.1739,-3.1682,-3.1739,-3.1992,-3.2296,-3.2475,-3.2687,-3.2944,-3.3185,-3.3302,-3.3372,-3.343,-3.3495,-3.3531,-3.3582,-3.3633,-3.3735,-3.3828,-3.3884,-3.3925,-3.4087,-3.4591,-3.5044,-3.5391,-3.5639,-3.5639,-3.5639,-3.5639,-3.5639,-3.5639,-3.5639,-3.5639,-3.5639,-3.5639,-3.5639,-3.5639,-3.5639,-3.5639,-3.5639,-3.5639,-3.5639,-3.5639,-3.5639,-3.5639,-3.5639,-3.5667,-3.5739,-3.5783,-3.6054,-3.6028,-3.6054,-3.6011,-3.5941,-3.5783,-3.5783,-3.5941,-3.5941,-3.5915,-3.5827,-3.5854,-3.5739,-3.5739,-3.5783,-3.5783,-3.5667,-3.5711,-3.5871,-3.5871,-3.5783,-3.5827,-3.6028,-3.6374,-3.702,-3.7135,-3.7135,-3.1467,-3.1467,-3.1467,-3.1467,-3.145,-3.1001,-3.1061,-3.1437,-3.1467,-3.1467,-3.1467,-3.1467,-3.1467,-3.1467,-3.1467,-3.1467,-3.1467,-3.1467,-3.1467,-3.1467,-3.1467,-3.1467,-3.1467,-3.1467,-3.1467,-3.1467,-3.1467,-3.1467,-3.1467,-3.1467,-3.1467,-3.1467,-3.1467,-3.1467,-3.1467,-3.1467,-3.1467,-3.1467,-3.1467,-3.1467,-3.1467,-3.1467,-3.1467,-3.164,-3.1739,-3.1932,-3.2016,-3.2114,-3.2266,-3.2205,-3.2159,-3.2145,-3.2104,-3.2571,-3.2986,-3.3531,-3.3617,-3.3607,-3.3596,-3.359,-3.3642,-3.3818,-3.4129,-3.4783,-3.5207,-3.5487,-3.547,-3.5379,-3.5316,-3.527,-3.5224,-3.527,-3.527,-3.527,-3.522,-3.5227,-3.5256,-3.5262,-3.5279,-3.5414,-3.5431,-3.5532,-3.5532,-3.5639,-3.5639,-3.5639,-3.5639,-3.5639,-3.5639,-3.5639,-3.5639,-3.5639,-3.5639,-3.5639,-3.5639,-3.5739,-3.5711,-3.5622,-3.5639,-3.5639,-3.5622,-3.5667,-3.5622,-3.5639,-3.5639,-3.5639,-3.5622,-3.5639,-3.5639,-3.5639,-3.5783,-3.6097,-3.6374,-3.6522,-3.6643,-3.0761,-3.0761,-3.0761,-3.0761,-3.0687,-3.0313,-3.0402,-3.0761,-3.1016,-3.1135,-3.1108,-3.142,-3.1467,-3.1467,-3.1467,-3.1467,-3.1467,-3.1467,-3.1467,-3.1467,-3.1467,-3.1467,-3.1467,-3.1467,-3.1467,-3.1467,-3.1467,-3.1467,-3.1467,-3.1467,-3.1467,-3.1467,-3.1467,-3.1467,-3.1467,-3.1467,-3.1467,-3.1467,-3.1467,-3.1467,-3.1467,-3.1467,-3.1467,-3.1467,-3.1467,-3.1467,-3.1467,-3.1467,-3.1467,-3.1467,-3.1467,-3.1524,-3.1524,-3.2007,-3.2216,-3.2664,-3.2664,-3.2648,-3.264,-3.2656,-3.2865,-3.3091,-3.3192,-3.3745,-3.4284,-3.4609,-3.4657,-3.4609,-3.4704,-3.4752,-3.4752,-3.4816,-3.4752,-3.4752,-3.4745,-3.4735,-3.4772,-3.4745,-3.4891,-3.5121,-3.5239,-3.5374,-3.5424,-3.5532,-3.5639,-3.5639,-3.5639,-3.5639,-3.5639,-3.5639,-3.5639,-3.5639,-3.5639,-3.5639,-3.5639,-3.5639,-3.5639,-3.5639,-3.5639,-3.5639,-3.5639,-3.5639,-3.5639,-3.5639,-3.5639,-3.5639,-3.5639,-3.5639,-3.5639,-3.5639,-3.5639,-3.5827,-3.5985,-3.6011,-3.6097,-2.9609,-2.9639,-2.9594,-2.9639,-2.9505,-2.9505,-2.949,-2.952,-3.0043,-3.0372,-3.0522,-3.1061,-3.127,-3.1198,-3.1243,-3.142,-3.148,-3.1467,-3.1467,-3.1452,-3.1467,-3.1467,-3.1467,-3.1467,-3.1467,-3.1467,-3.1467,-3.1467,-3.1467,-3.1467,-3.1467,-3.1467,-3.1467,-3.1467,-3.1467,-3.1467,-3.1467,-3.1467,-3.1467,-3.1467,-3.1467,-3.1467,-3.1467,-3.1467,-3.1467,-3.1467,-3.1467,-3.1467,-3.1467,-3.1467,-3.1467,-3.1467,-3.1524,-3.1582,-3.164,-3.1625,-3.1838,-3.1838,-3.1838,-3.1894,-3.2099,-3.2327,-3.2509,-3.2864,-3.3235,-3.3887,-3.4037,-3.4103,-3.4137,-3.4137,-3.4153,-3.4153,-3.4153,-3.417,-3.417,-3.4168,-3.4164,-3.4184,-3.4284,-3.4431,-3.4544,-3.4739,-3.5161,-3.527,-3.5424,-3.5532,-3.5639,-3.5639,-3.5577,-3.5577,-3.5577,-3.5577,-3.5622,-3.5622,-3.5639,-3.5639,-3.5639,-3.5639,-3.5639,-3.5639,-3.5639,-3.5639,-3.5639,-3.5639,-3.5639,-3.5639,-3.5639,-3.5639,-3.5639,-3.5639,-3.5639,-3.5639,-3.5667,-3.5694,-3.5739,-2.9594,-2.9594,-2.9594,-2.931,-2.8861,-2.8831,-2.8532,-2.8128,-2.8757,-2.934,-2.9774,-3.0013,-3.0357,-3.0731,-3.0761,-3.0926,-3.1345,-3.1255,-3.1422,-3.1347,-3.1317,-3.124,-3.1377,-3.1228,-3.1362,-3.1467,-3.1467,-3.1467,-3.1467,-3.1467,-3.1467,-3.1467,-3.1467,-3.1467,-3.1467,-3.1467,-3.1467,-3.1467,-3.1467,-3.1467,-3.1467,-3.1467,-3.1467,-3.1467,-3.1467,-3.1467,-3.1467,-3.1467,-3.1467,-3.1467,-3.1467,-3.1467,-3.1524,-3.1467,-3.1467,-3.1467,-3.1467,-3.1467,-3.1467,-3.1467,-3.1652,-3.1694,-3.1823,-3.1894,-3.2256,-3.3061,-3.3531,-3.3531,-3.3531,-3.3479,-3.3479,-3.3479,-3.3479,-3.3483,-3.3502,-3.3494,-3.3499,-3.3543,-3.3574,-3.3747,-3.3838,-3.4201,-3.4673,-3.4958,-3.5161,-3.5316,-3.5532,-3.5577,-3.547,-3.5424,-3.5424,-3.5424,-3.556,-3.5622,-3.5622,-3.5639,-3.5639,-3.5639,-3.5639,-3.5639,-3.5639,-3.5639,-3.5639,-3.5639,-3.5639,-3.5639,-3.5639,-3.5639,-3.5639,-3.5639,-3.5639,-3.5639,-3.5639,-3.5667,-3.5622,-2.8749,-2.8697,-2.8682,-2.8487,-2.8188,-2.8143,-2.7919,-2.7745,-2.7979,-2.8338,-2.8801,-2.928,-2.9789,-3.0088,-3.0088,-3.0238,-3.0687,-3.0642,-3.0537,-3.0612,-3.0761,-3.0597,-3.0672,-3.0776,-3.0851,-3.0971,-3.1347,-3.1467,-3.1467,-3.1467,-3.1467,-3.1467,-3.1467,-3.1467,-3.1467,-3.1467,-3.1467,-3.1467,-3.1467,-3.1467,-3.1467,-3.1467,-3.1467,-3.1467,-3.1467,-3.1467,-3.1467,-3.1467,-3.1467,-3.1467,-3.1467,-3.1467,-3.1467,-3.1467,-3.1467,-3.1467,-3.1467,-3.1467,-3.1467,-3.1467,-3.1467,-3.1467,-3.1524,-3.1682,-3.1682,-3.2407,-3.2407,-3.2407,-3.2407,-3.2407,-3.2407,-3.2407,-3.2407,-3.2431,-3.2431,-3.2408,-3.2431,-3.2413,-3.2701,-3.3095,-3.3239,-3.3491,-3.3887,-3.4137,-3.435,-3.435,-3.4657,-3.4816,-3.4864,-3.5115,-3.5115,-3.5207,-3.5253,-3.547,-3.5622,-3.5639,-3.5639,-3.5639,-3.5639,-3.5639,-3.5639,-3.5639,-3.5639,-3.5639,-3.5639,-3.5639,-3.5639,-3.5639,-3.5639,-3.5639,-3.5639,-3.5639,-3.5639,-3.5639,-3.5639,-2.767,-2.756,-2.759,-2.7575,-2.7575,-2.7575,-2.7575,-2.7575,-2.759,-2.759,-2.785,-2.8869,-2.9295,-2.946,-2.946,-2.952,-2.9654,-2.9924,-2.9774,-2.9744,-2.9744,-2.9909,-2.9879,-2.9759,-3.0163,-3.0612,-3.1046,-3.136,-3.1467,-3.1467,-3.1467,-3.1467,-3.1467,-3.1467,-3.1467,-3.1467,-3.1467,-3.1467,-3.1467,-3.1467,-3.1467,-3.1467,-3.1467,-3.1467,-3.1467,-3.1467,-3.1467,-3.1467,-3.1467,-3.1467,-3.1467,-3.1467,-3.1467,-3.1467,-3.1467,-3.1467,-3.1467,-3.1467,-3.1467,-3.1467,-3.1467,-3.1467,-3.1467,-3.1524,-3.1524,-3.1524,-3.1582,-3.1582,-3.1582,-3.1582,-3.164,-3.164,-3.164,-3.1625,-3.164,-3.164,-3.1612,-3.1627,-3.1998,-3.2458,-3.2624,-3.2857,-3.313,-3.3427,-3.3531,-3.3531,-3.3582,-3.3582,-3.3735,-3.4186,-3.4447,-3.4544,-3.4657,-3.4958,-3.547,-3.5532,-3.5487,-3.5639,-3.5639,-3.5639,-3.5639,-3.5639,-3.5639,-3.5639,-3.5639,-3.5639,-3.5639,-3.5639,-3.5639,-3.5639,-3.5639,-3.5639,-3.5639,-3.5639,-3.5639,-2.756,-2.756,-2.756,-2.756,-2.756,-2.756,-2.756,-2.756,-2.756,-2.756,-2.77,-2.7769,-2.8218,-2.8786,-2.8786,-2.8921,-2.925,-2.9355,-2.952,-2.9609,-2.9325,-2.9445,-2.949,-2.934,-2.9924,-3.0328,-3.0657,-3.1001,-3.13,-3.145,-3.1467,-3.1467,-3.1467,-3.1467,-3.1467,-3.1467,-3.1467,-3.1467,-3.1467,-3.1467,-3.1467,-3.1467,-3.1467,-3.1467,-3.1467,-3.1467,-3.1467,-3.1467,-3.1467,-3.1467,-3.1467,-3.1467,-3.1467,-3.1467,-3.1467,-3.1467,-3.1467,-3.1467,-3.1467,-3.1467,-3.1467,-3.1467,-3.1467,-3.1467,-3.1524,-3.1524,-3.1524,-3.1524,-3.1524,-3.1524,-3.1524,-3.1524,-3.1524,-3.1524,-3.1524,-3.1524,-3.1539,-3.1539,-3.1702,-3.185,-3.1875,-3.2201,-3.2625,-3.2826,-3.2986,-3.3093,-3.3287,-3.3287,-3.3219,-3.3531,-3.3786,-3.3887,-3.4053,-3.4704,-3.5333,-3.527,-3.527,-3.547,-3.5577,-3.5532,-3.5532,-3.5577,-3.5639,-3.5639,-3.5639,-3.5639,-3.5639,-3.5639,-3.5639,-3.5639,-3.5639,-3.5639,-3.5639,-3.5639,-3.5639]}]]